GFSSW_500_temp_000.txt.gz
Temp
-14 -14 -14 -15 -15 -15 -15 -16 -16 -16 -16 -16 -16 -17 -17 -16 -16 -16 -16 -17 -17 -16 -16 -15 -15 -15 -14 -14 -15 -15 -15 -15 -15 -14 -14 -14 -13 -13 -13 -14 -15 -14 -14 -14 -14
-14 -14 -15 -15 -15 -15 -15 -15 -16 -16 -16 -16 -16 -16 -16 -16 -16 -16 -16 -16 -16 -16 -16 -15 -15 -14 -14 -15 -15 -15 -15 -15 -15 -14 -14 -13 -13 -15 -16 -15 -15 -14 -14 -14 -14
-14 -14 -15 -15 -15 -15 -15 -16 -16 -16 -16 -16 -16 -16 -16 -16 -16 -16 -16 -16 -16 -16 -15 -15 -14 -14 -15 -15 -15 -15 -15 -15 -15 -14 -14 -14 -14 -16 -15 -14 -14 -14 -14 -14 -14
-14 -14 -15 -15 -15 -15 -15 -16 -16 -16 -16 -16 -16 -16 -16 -16 -16 -16 -16 -17 -16 -16 -15 -15 -15 -15 -15 -15 -15 -15 -16 -15 -15 -14 -14 -14 -15 -15 -14 -14 -15 -14 -14 -14 -14
-14 -14 -15 -15 -15 -15 -16 -16 -15 -16 -16 -16 -16 -16 -17 -16 -16 -16 -16 -17 -16 -16 -16 -16 -16 -16 -16 -16 -16 -15 -15 -15 -16 -15 -16 -15 -15 -15 -15 -15 -14 -14 -14 -14 -14
-14 -14 -15 -15 -15 -16 -16 -16 -15 -16 -16 -16 -16 -17 -17 -17 -17 -16 -16 -16 -16 -16 -16 -17 -16 -16 -16 -15 -16 -16 -16 -16 -16 -15 -15 -15 -15 -15 -15 -15 -15 -15 -15 -14 -14
-14 -15 -15 -16 -16 -16 -16 -16 -15 -15 -16 -16 -16 -16 -17 -16 -17 -17 -16 -16 -16 -16 -17 -16 -17 -16 -16 -16 -16 -16 -16 -15 -15 -15 -15 -15 -15 -14 -15 -15 -15 -15 -15 -15 -14
-15 -15 -15 -15 -16 -16 -16 -16 -16 -16 -16 -16 -16 -17 -17 -17 -17 -17 -16 -16 -16 -17 -17 -16 -16 -16 -16 -16 -16 -16 -16 -15 -15 -15 -14 -15 -15 -15 -15 -15 -15 -15 -14 -14 -14
-15 -15 -16 -16 -16 -16 -16 -16 -16 -16 -16 -16 -17 -17 -17 -17 -17 -17 -16 -17 -17 -17 -17 -16 -16 -16 -17 -16 -16 -16 -16 -15 -15 -15 -15 -15 -15 -15 -15 -15 -15 -15 -14 -14 -14
-15 -15 -15 -16 -16 -16 -16 -16 -16 -16 -16 -17 -17 -17 -17 -17 -17 -17 -17 -17 -17 -17 -17 -17 -16 -16 -16 -16 -16 -15 -16 -16 -15 -15 -15 -15 -15 -15 -15 -15 -15 -15 -14 -14 -15
-15 -15 -15 -16 -16 -16 -16 -16 -16 -16 -17 -17 -17 -17 -17 -17 -17 -17 -17 -17 -17 -17 -17 -17 -17 -17 -16 -16 -16 -16 -16 -16 -16 -15 -15 -15 -15 -15 -15 -14 -14 -14 -14 -15 -15
-15 -15 -15 -16 -16 -16 -16 -16 -16 -17 -16 -17 -17 -17 -17 -17 -17 -17 -17 -17 -17 -17 -17 -16 -16 -16 -16 -16 -16 -16 -16 -16 -15 -15 -15 -15 -15 -14 -14 -14 -14 -14 -15 -16 -16
-15 -15 -16 -16 -16 -16 -16 -16 -17 -17 -17 -17 -17 -17 -17 -17 -16 -17 -17 -17 -17 -17 -16 -16 -16 -16 -16 -16 -16 -16 -16 -15 -16 -16 -15 -15 -15 -15 -15 -15 -14 -15 -15 -16 -16
-15 -15 -16 -16 -16 -16 -16 -16 -17 -17 -17 -17 -17 -17 -17 -16 -16 -16 -16 -17 -17 -17 -16 -17 -17 -17 -16 -16 -16 -16 -16 -16 -16 -16 -16 -16 -15 -15 -15 -14 -15 -15 -16 -16 -16
-15 -16 -16 -16 -16 -16 -16 -16 -17 -17 -17 -17 -17 -16 -16 -16 -16 -16 -16 -16 -16 -16 -16 -16 -16 -16 -16 -16 -16 -16 -15 -16 -16 -16 -16 -16 -15 -15 -14 -15 -15 -15 -16 -16 -16
-15 -15 -16 -16 -16 -16 -16 -16 -16 -16 -16 -16 -16 -16 -16 -16 -16 -16 -15 -16 -16 -16 -16 -16 -16 -16 -16 -16 -15 -15 -15 -15 -16 -16 -15 -15 -15 -14 -15 -15 -15 -16 -16 -16 -17
-15 -16 -16 -16 -16 -16 -16 -16 -16 -16 -16 -16 -16 -16 -16 -16 -16 -16 -16 -16 -16 -16 -16 -16 -16 -15 -15 -15 -15 -15 -15 -15 -15 -15 -15 -15 -15 -15 -15 -15 -16 -16 -16 -16 -16
-16 -16 -16 -15 -15 -16 -16 -16 -16 -16 -16 -16 -16 -16 -16 -16 -16 -16 -15 -15 -16 -16 -16 -16 -16 -15 -15 -15 -15 -15 -15 -15 -15 -15 -15 -15 -14 -14 -15 -15 -15 -16 -16 -16 -16
-16 -16 -15 -15 -15 -16 -16 -16 -16 -16 -16 -16 -15 -16 -15 -16 -16 -16 -15 -15 -15 -15 -15 -15 -15 -15 -15 -15 -15 -15 -15 -15 -15 -15 -15 -15 -14 -15 -15 -15 -15 -15 -16 -15 -15
-16 -16 -15 -15 -15 -16 -16 -16 -16 -15 -15 -15 -16 -15 -15 -16 -16 -16 -16 -16 -15 -16 -15 -15 -15 -15 -15 -15 -15 -15 -15 -15 -15 -15 -14 -14 -15 -14 -14 -15 -15 -15 -15 -15 -15
-16 -15 -15 -15 -15 -16 -16 -16 -16 -15 -15 -15 -15 -15 -15 -15 -15 -15 -15 -15 -16 -16 -16 -15 -15 -15 -15 -15 -15 -15 -15 -15 -15 -15 -14 -14 -15 -15 -15 -15 -15 -15 -15 -15 -15
-15 -15 -15 -15 -15 -15 -15 -16 -15 -15 -15 -15 -15 -15 -15 -15 -15 -15 -15 -15 -15 -16 -15 -15 -15 -15 -15 -15 -15 -15 -15 -15 -15 -15 -15 -14 -14 -14 -14 -14 -15 -15 -15 -15 -15
-15 -15 -15 -15 -15 -15 -15 -15 -15 -15 -15 -15 -15 -15 -15 -15 -15 -15 -15 -15 -15 -15 -15 -15 -15 -15 -15 -15 -15 -15 -15 -15 -15 -15 -15 -15 -14 -15 -15 -15 -15 -15 -15 -15 -15
-15 -15 -15 -15 -15 -15 -15 -15 -15 -15 -15 -15 -15 -15 -16 -16 -15 -15 -15 -15 -15 -15 -15 -15 -15 -15 -15 -15 -15 -15 -15 -15 -15 -15 -15 -15 -15 -15 -15 -15 -15 -15 -15 -16 -16
-15 -15 -15 -15 -15 -15 -15 -15 -15 -15 -15 -15 -15 -15 -15 -15 -15 -15 -15 -15 -15 -15 -15 -15 -15 -15 -15 -15 -15 -15 -15 -15 -15 -15 -15 -15 -15 -15 -15 -15 -15 -16 -16 -16 -16
-15 -14 -15 -15 -15 -15 -15 -15 -15 -15 -15 -15 -15 -15 -15 -15 -15 -15 -15 -15 -15 -15 -15 -15 -15 -15 -15 -15 -15 -15 -15 -15 -15 -15 -15 -15 -15 -15 -15 -15 -16 -16 -16 -16 -16
-15 -15 -15 -15 -15 -15 -15 -15 -15 -15 -15 -15 -15 -15 -15 -15 -15 -15 -15 -15 -15 -15 -15 -15 -15 -15 -15 -16 -16 -15 -16 -16 -15 -15 -15 -15 -16 -16 -16 -16 -16 -16 -16 -16 -17

GFSSW_500_temp_003.txt.gz
Temp
-13 -13 -13 -13 -14 -15 -15 -15 -15 -15 -16 -16 -16 -16 -16 -16 -16 -16 -16 -16 -16 -16 -16 -16 -16 -15 -15 -15 -15 -15 -15 -15 -15 -15 -14 -14 -14 -14 -13 -13 -13 -13 -14 -14 -14
-13 -13 -13 -13 -14 -15 -15 -15 -15 -16 -16 -16 -16 -16 -16 -16 -16 -16 -16 -17 -17 -17 -16 -16 -16 -15 -15 -15 -15 -15 -15 -15 -15 -14 -14 -14 -14 -14 -13 -15 -14 -14 -14 -14 -14
-13 -13 -13 -13 -14 -14 -15 -15 -15 -16 -15 -16 -16 -16 -16 -16 -16 -16 -16 -17 -17 -16 -16 -16 -15 -15 -15 -15 -15 -15 -15 -15 -16 -15 -15 -15 -15 -15 -15 -15 -15 -14 -14 -15 -15
-13 -13 -13 -13 -14 -14 -15 -15 -15 -16 -16 -16 -16 -16 -16 -16 -16 -16 -16 -17 -17 -16 -16 -15 -15 -15 -15 -15 -15 -16 -15 -16 -16 -15 -15 -16 -16 -15 -15 -15 -15 -15 -15 -15 -15
-13 -13 -13 -14 -14 -14 -15 -15 -15 -16 -16 -16 -16 -17 -16 -16 -16 -16 -16 -16 -17 -16 -16 -15 -15 -15 -15 -16 -16 -16 -16 -16 -16 -16 -16 -16 -15 -15 -15 -15 -15 -15 -15 -15 -15
-13 -13 -13 -14 -14 -14 -15 -16 -16 -16 -15 -16 -16 -17 -16 -16 -16 -16 -16 -17 -16 -16 -16 -16 -16 -17 -16 -15 -16 -16 -16 -15 -16 -17 -16 -16 -15 -15 -15 -15 -15 -15 -15 -15 -15
-13 -13 -13 -14 -15 -15 -15 -15 -16 -16 -16 -16 -16 -16 -16 -16 -16 -16 -17 -17 -16 -16 -17 -16 -16 -16 -16 -17 -17 -17 -16 -16 -16 -16 -16 -16 -15 -15 -15 -15 -15 -15 -15 -15 -15
-13 -13 -13 -15 -15 -15 -16 -16 -16 -16 -16 -16 -16 -16 -17 -16 -16 -17 -17 -18 -17 -17 -16 -17 -16 -16 -16 -16 -16 -16 -16 -16 -15 -15 -16 -16 -15 -15 -15 -15 -16 -16 -15 -15 -15
-13 -13 -14 -15 -15 -15 -16 -16 -16 -16 -16 -16 -16 -17 -17 -17 -17 -17 -17 -17 -17 -17 -17 -17 -17 -16 -17 -16 -16 -16 -16 -15 -15 -15 -16 -16 -15 -15 -15 -15 -15 -15 -15 -15 -15
-13 -13 -14 -15 -15 -15 -16 -16 -16 -16 -16 -17 -17 -16 -17 -17 -17 -17 -17 -17 -17 -17 -17 -17 -17 -16 -16 -16 -16 -16 -16 -16 -16 -15 -15 -15 -15 -15 -16 -16 -16 -15 -15 -15 -15
-13 -14 -14 -14 -15 -16 -16 -16 -16 -16 -16 -17 -17 -17 -17 -17 -17 -17 -17 -17 -17 -17 -17 -17 -16 -16 -16 -17 -17 -16 -16 -16 -16 -16 -16 -16 -16 -16 -15 -16 -15 -15 -15 -15 -15
-13 -14 -15 -15 -15 -16 -16 -16 -16 -16 -16 -17 -17 -17 -17 -17 -17 -17 -17 -17 -17 -17 -17 -17 -17 -17 -17 -17 -16 -16 -16 -17 -17 -16 -15 -16 -15 -15 -15 -15 -15 -15 -15 -15 -15
-13 -14 -15 -14 -16 -16 -16 -16 -16 -16 -17 -17 -17 -17 -17 -17 -17 -17 -17 -17 -17 -17 -17 -17 -17 -17 -16 -16 -17 -17 -17 -16 -16 -16 -15 -16 -15 -15 -15 -15 -15 -15 -15 -15 -15
-14 -14 -15 -15 -16 -16 -16 -16 -16 -17 -17 -17 -17 -17 -17 -17 -17 -17 -17 -17 -17 -17 -17 -17 -16 -17 -17 -16 -17 -16 -17 -16 -16 -16 -16 -16 -15 -15 -15 -15 -15 -15 -15 -16 -15
-14 -15 -14 -15 -16 -16 -16 -17 -17 -17 -17 -17 -17 -17 -17 -17 -16 -16 -17 -17 -17 -17 -17 -17 -16 -17 -17 -17 -17 -16 -16 -16 -16 -16 -16 -15 -15 -15 -15 -15 -15 -15 -15 -16 -16
-14 -15 -15 -16 -16 -16 -16 -17 -17 -17 -17 -17 -17 -17 -17 -16 -16 -16 -16 -16 -17 -17 -17 -17 -17 -17 -17 -17 -16 -16 -16 -16 -16 -15 -15 -15 -15 -15 -15 -15 -15 -15 -15 -16 -16
-14 -15 -15 -16 -16 -16 -17 -17 -17 -17 -17 -17 -17 -17 -16 -16 -16 -16 -16 -16 -16 -16 -16 -17 -16 -16 -16 -16 -16 -16 -16 -15 -15 -15 -15 -15 -15 -15 -15 -15 -15 -15 -15 -16 -16
-15 -15 -16 -16 -16 -16 -16 -16 -16 -17 -17 -16 -16 -16 -16 -16 -16 -16 -16 -16 -16 -16 -16 -16 -16 -16 -16 -16 -16 -15 -15 -15 -15 -15 -15 -15 -15 -15 -15 -15 -15 -15 -15 -15 -15
-15 -15 -16 -16 -16 -16 -16 -16 -16 -16 -16 -16 -16 -16 -16 -16 -16 -16 -16 -16 -16 -16 -16 -16 -16 -16 -16 -16 -15 -15 -15 -15 -15 -15 -15 -15 -15 -15 -15 -15 -14 -15 -15 -15 -15
-15 -16 -16 -16 -16 -16 -16 -16 -16 -16 -16 -16 -16 -16 -16 -16 -16 -16 -16 -16 -16 -16 -16 -15 -15 -15 -15 -15 -15 -15 -15 -15 -15 -15 -15 -15 -15 -15 -14 -15 -15 -15 -15 -15 -15
-15 -16 -16 -15 -16 -16 -16 -16 -16 -16 -16 -16 -16 -16 -16 -16 -16 -16 -16 -16 -16 -16 -16 -16 -15 -15 -15 -15 -15 -15 -15 -15 -15 -15 -15 -15 -15 -15 -15 -15 -15 -15 -15 -15 -15
-15 -15 -15 -15 -16 -15 -16 -16 -16 -16 -16 -16 -16 -16 -15 -15 -16 -16 -16 -16 -16 -16 -16 -16 -16 -15 -15 -15 -15 -15 -15 -15 -15 -15 -15 -15 -15 -15 -15 -15 -15 -15 -15 -15 -15
-16 -16 -15 -16 -15 -15 -15 -15 -16 -16 -16 -16 -16 -15 -15 -15 -15 -15 -15 -15 -16 -16 -16 -16 -15 -15 -15 -15 -15 -15 -15 -15 -15 -15 -15 -15 -15 -15 -15 -15 -15 -15 -15 -15 -15
-16 -16 -15 -15 -15 -16 -15 -16 -16 -16 -16 -16 -15 -15 -15 -16 -16 -15 -15 -15 -15 -15 -15 -15 -15 -15 -15 -15 -15 -15 -15 -15 -15 -15 -15 -15 -15 -15 -15 -15 -15 -15 -15 -15 -16
-16 -16 -15 -15 -15 -15 -15 -16 -16 -16 -16 -15 -15 -16 -16 -16 -16 -16 -15 -15 -15 -15 -15 -15 -15 -15 -15 -15 -15 -15 -15 -15 -15 -15 -15 -15 -15 -15 -15 -15 -15 -15 -15 -16 -16
-16 -16 -15 -15 -15 -15 -15 -15 -16 -16 -16 -15 -16 -16 -16 -16 -16 -16 -15 -15 -15 -15 -15 -15 -15 -15 -15 -15 -15 -15 -15 -15 -15 -15 -15 -15 -15 -15 -15 -15 -15 -16 -16 -16 -16
-16 -16 -15 -15 -15 -15 -15 -15 -16 -16 -16 -15 -16 -16 -16 -15 -15 -15 -15 -15 -15 -15 -15 -15 -15 -15 -15 -15 -15 -15 -15 -15 -15 -15 -15 -15 -16 -16 -16 -16 -16 -16 -16 -16 -17

GFSSW_500_temp_006.txt.gz
Temp
-12 -13 -12 -13 -13 -13 -13 -14 -14 -15 -15 -15 -16 -16 -16 -16 -16 -16 -16 -16 -16 -16 -16 -16 -15 -15 -15 -15 -15 -14 -14 -15 -15 -14 -14 -15 -14 -14 -14 -14 -13 -14 -14 -15 -15
-12 -13 -13 -13 -13 -13 -13 -14 -14 -15 -15 -16 -16 -16 -16 -16 -16 -16 -16 -16 -16 -16 -17 -17 -16 -16 -16 -15 -15 -15 -15 -15 -15 -15 -15 -14 -14 -14 -14 -14 -15 -16 -15 -15 -15
-12 -13 -13 -13 -13 -13 -14 -14 -15 -15 -15 -15 -16 -16 -16 -16 -16 -16 -16 -16 -16 -17 -17 -17 -16 -16 -16 -15 -15 -15 -15 -15 -15 -15 -15 -15 -16 -16 -15 -15 -16 -17 -15 -15 -15
-13 -13 -13 -13 -13 -13 -14 -14 -15 -15 -15 -16 -16 -16 -16 -16 -16 -16 -16 -16 -17 -17 -17 -16 -16 -16 -15 -15 -15 -15 -15 -15 -15 -16 -16 -16 -16 -15 -15 -15 -15 -15 -15 -15 -15
-13 -13 -13 -13 -13 -13 -14 -14 -15 -15 -16 -16 -16 -16 -16 -16 -16 -16 -16 -17 -17 -17 -16 -16 -15 -15 -15 -15 -15 -15 -16 -15 -16 -15 -16 -16 -16 -15 -15 -15 -15 -15 -15 -15 -15
-13 -13 -13 -13 -13 -13 -14 -15 -15 -16 -16 -15 -16 -16 -16 -16 -16 -16 -17 -17 -17 -17 -16 -16 -16 -16 -16 -16 -16 -16 -16 -16 -15 -16 -16 -16 -15 -15 -15 -15 -15 -15 -15 -15 -15
-13 -13 -13 -13 -13 -14 -14 -15 -15 -16 -16 -16 -16 -16 -16 -16 -16 -16 -17 -18 -17 -17 -17 -16 -17 -16 -16 -16 -16 -16 -17 -16 -15 -16 -16 -16 -16 -15 -15 -15 -15 -15 -15 -15 -15
-13 -13 -13 -13 -13 -14 -14 -15 -15 -16 -16 -16 -16 -16 -16 -16 -16 -17 -17 -18 -17 -17 -17 -17 -16 -16 -16 -17 -17 -17 -17 -17 -16 -16 -16 -16 -16 -15 -15 -16 -16 -15 -15 -15 -15
-13 -13 -14 -13 -13 -14 -15 -15 -16 -16 -16 -16 -16 -16 -16 -16 -17 -17 -18 -18 -17 -17 -17 -17 -17 -17 -17 -17 -16 -16 -17 -16 -16 -15 -16 -16 -16 -15 -16 -16 -16 -16 -16 -15 -15
-14 -14 -14 -13 -14 -14 -15 -15 -16 -16 -16 -16 -16 -16 -16 -16 -17 -17 -18 -17 -17 -17 -17 -17 -16 -16 -16 -16 -16 -17 -16 -16 -16 -16 -16 -16 -16 -16 -16 -16 -17 -16 -16 -15 -15
-13 -14 -14 -13 -14 -14 -15 -15 -16 -16 -16 -16 -16 -16 -16 -17 -17 -17 -17 -17 -17 -17 -17 -16 -16 -17 -17 -17 -17 -16 -16 -16 -16 -16 -16 -16 -16 -16 -16 -16 -16 -16 -16 -15 -15
-13 -14 -14 -14 -14 -15 -15 -16 -16 -16 -16 -16 -17 -16 -17 -17 -17 -17 -17 -17 -17 -17 -17 -17 -17 -17 -17 -16 -16 -16 -16 -17 -16 -16 -16 -16 -16 -16 -16 -16 -16 -16 -16 -15 -15
-13 -14 -13 -14 -15 -15 -16 -16 -16 -16 -16 -17 -17 -17 -17 -17 -17 -17 -17 -17 -17 -17 -17 -17 -17 -17 -17 -17 -17 -16 -17 -17 -16 -16 -16 -16 -16 -16 -16 -16 -16 -15 -15 -15 -15
-14 -14 -13 -14 -15 -15 -16 -16 -16 -16 -17 -17 -17 -17 -17 -17 -17 -17 -17 -17 -17 -17 -17 -17 -17 -17 -17 -17 -17 -17 -17 -17 -16 -16 -16 -16 -15 -15 -15 -15 -16 -16 -15 -15 -16
-14 -14 -14 -14 -15 -16 -16 -16 -16 -16 -17 -17 -17 -17 -17 -17 -17 -17 -17 -18 -17 -17 -17 -17 -17 -17 -17 -17 -16 -17 -17 -17 -16 -16 -16 -16 -16 -15 -15 -15 -15 -15 -15 -16 -16
-14 -14 -14 -15 -15 -15 -15 -16 -17 -17 -17 -17 -17 -17 -17 -17 -17 -17 -17 -17 -17 -17 -17 -17 -17 -17 -17 -17 -17 -17 -16 -16 -16 -16 -16 -15 -15 -16 -15 -15 -15 -15 -15 -16 -16
-15 -14 -14 -15 -15 -15 -16 -16 -17 -17 -17 -17 -17 -17 -17 -17 -16 -16 -17 -17 -17 -17 -17 -17 -17 -17 -17 -17 -17 -16 -16 -16 -16 -16 -15 -15 -15 -15 -15 -15 -15 -15 -15 -16 -16
-15 -14 -15 -15 -15 -16 -16 -16 -17 -17 -17 -17 -17 -17 -17 -16 -16 -16 -16 -17 -17 -17 -17 -17 -17 -17 -17 -16 -16 -16 -16 -16 -16 -15 -16 -15 -15 -15 -15 -15 -15 -15 -15 -15 -15
-15 -14 -15 -15 -15 -16 -16 -16 -16 -17 -16 -17 -17 -16 -16 -16 -16 -16 -16 -16 -16 -17 -17 -16 -16 -16 -16 -16 -16 -16 -16 -16 -16 -15 -15 -15 -15 -15 -15 -15 -14 -14 -15 -15 -15
-14 -15 -15 -15 -16 -16 -16 -16 -16 -16 -16 -16 -16 -16 -16 -16 -16 -16 -16 -16 -16 -16 -16 -16 -16 -16 -16 -16 -16 -16 -15 -15 -15 -15 -15 -15 -15 -15 -15 -14 -14 -14 -14 -15 -15
-14 -15 -15 -15 -16 -15 -16 -16 -16 -16 -16 -16 -16 -16 -16 -16 -16 -16 -16 -16 -16 -16 -16 -16 -16 -15 -15 -15 -15 -15 -15 -15 -15 -15 -15 -15 -15 -15 -15 -15 -15 -15 -15 -15 -15
-14 -14 -15 -15 -16 -15 -16 -16 -16 -16 -16 -16 -16 -16 -16 -16 -16 -16 -16 -16 -16 -16 -16 -16 -16 -16 -16 -15 -15 -15 -15 -15 -15 -15 -15 -15 -15 -15 -15 -15 -15 -15 -15 -15 -15
-14 -15 -15 -15 -15 -15 -16 -16 -16 -16 -16 -16 -16 -16 -16 -16 -15 -15 -15 -15 -15 -16 -16 -16 -15 -15 -15 -15 -15 -15 -15 -15 -15 -15 -15 -15 -15 -15 -15 -15 -15 -15 -15 -15 -15
-16 -15 -16 -15 -16 -16 -16 -16 -16 -16 -16 -16 -16 -16 -15 -15 -15 -15 -15 -15 -15 -15 -16 -16 -15 -15 -15 -16 -15 -15 -15 -15 -15 -15 -15 -15 -15 -15 -15 -15 -15 -15 -15 -16 -16
-15 -15 -15 -15 -15 -16 -16 -16 -16 -16 -16 -16 -16 -16 -16 -16 -16 -16 -15 -15 -15 -15 -15 -15 -15 -15 -15 -15 -15 -15 -15 -15 -15 -15 -15 -15 -15 -16 -15 -15 -15 -15 -16 -16 -16
-15 -15 -15 -16 -16 -16 -16 -16 -16 -16 -16 -16 -16 -16 -16 -16 -16 -16 -15 -15 -15 -15 -15 -15 -15 -15 -15 -15 -15 -15 -15 -15 -15 -15 -15 -15 -15 -16 -16 -16 -16 -16 -16 -16 -16
-16 -15 -16 -16 -16 -16 -16 -16 -16 -16 -16 -16 -16 -16 -16 -16 -16 -16 -16 -15 -15 -15 -15 -15 -15 -15 -15 -15 -15 -15 -15 -15 -15 -15 -16 -15 -16 -16 -16 -16 -16 -16 -16 -16 -17

GFSSW_500_temp_009.txt.gz
Temp
-11 -12 -12 -12 -12 -12 -13 -13 -13 -13 -14 -14 -15 -15 -15 -15 -16 -16 -16 -16 -16 -16 -16 -16 -16 -16 -16 -16 -15 -15 -14 -15 -14 -14 -13 -13 -13 -13 -12 -12 -13 -12 -12 -12 -12
-12 -12 -12 -12 -13 -13 -13 -13 -13 -14 -14 -15 -15 -15 -15 -16 -16 -16 -16 -16 -16 -16 -16 -17 -17 -17 -16 -16 -15 -15 -14 -15 -14 -13 -13 -13 -13 -14 -13 -13 -13 -12 -13 -13 -12
-12 -12 -12 -12 -13 -13 -13 -13 -13 -14 -14 -15 -15 -15 -16 -16 -16 -16 -16 -16 -16 -16 -17 -17 -17 -17 -16 -16 -15 -16 -15 -14 -14 -13 -14 -14 -14 -14 -13 -13 -14 -14 -14 -15 -14
-12 -12 -12 -12 -13 -13 -13 -13 -14 -14 -15 -15 -15 -15 -16 -16 -16 -16 -16 -16 -17 -17 -17 -17 -17 -16 -16 -16 -16 -16 -15 -14 -13 -13 -14 -14 -15 -14 -13 -13 -16 -15 -15 -15 -14
-12 -12 -12 -12 -13 -13 -13 -13 -14 -15 -15 -15 -16 -16 -16 -16 -16 -16 -16 -16 -17 -17 -17 -16 -16 -16 -16 -15 -16 -16 -15 -15 -15 -14 -15 -14 -14 -15 -15 -15 -15 -15 -15 -15 -15
-12 -12 -12 -13 -13 -13 -13 -14 -14 -15 -15 -16 -16 -16 -16 -16 -16 -16 -16 -17 -17 -17 -17 -16 -16 -16 -16 -16 -17 -16 -15 -15 -15 -15 -16 -15 -16 -15 -15 -15 -15 -15 -15 -15 -15
-12 -12 -12 -13 -13 -13 -13 -14 -15 -15 -15 -16 -16 -15 -16 -16 -16 -17 -17 -17 -18 -17 -16 -16 -16 -16 -16 -16 -16 -16 -16 -16 -15 -16 -16 -16 -15 -15 -15 -15 -15 -15 -15 -15 -15
-12 -12 -12 -13 -13 -13 -13 -14 -15 -15 -15 -16 -16 -15 -16 -16 -17 -17 -17 -18 -18 -17 -17 -16 -16 -16 -16 -16 -16 -17 -17 -16 -16 -16 -16 -16 -16 -15 -15 -15 -15 -15 -15 -15 -15
-12 -12 -12 -13 -13 -13 -13 -14 -15 -15 -15 -16 -16 -16 -16 -16 -17 -17 -17 -18 -18 -17 -17 -17 -17 -17 -16 -16 -17 -17 -16 -16 -17 -16 -16 -16 -16 -16 -16 -16 -15 -15 -15 -15 -15
-12 -12 -12 -14 -13 -13 -14 -14 -15 -15 -15 -16 -16 -16 -16 -16 -17 -17 -17 -17 -17 -17 -17 -17 -17 -16 -17 -17 -16 -16 -16 -16 -16 -16 -16 -16 -16 -16 -16 -16 -16 -16 -16 -16 -15
-12 -12 -13 -14 -13 -13 -14 -15 -15 -15 -16 -16 -16 -16 -16 -16 -17 -18 -18 -17 -17 -17 -17 -16 -17 -16 -16 -16 -16 -16 -16 -16 -16 -16 -17 -16 -16 -16 -16 -16 -16 -16 -16 -16 -16
-13 -12 -13 -14 -14 -13 -14 -15 -15 -15 -16 -16 -16 -16 -16 -16 -17 -17 -17 -17 -17 -17 -17 -16 -16 -16 -16 -17 -16 -16 -16 -16 -16 -16 -16 -16 -16 -16 -16 -16 -16 -16 -16 -16 -16
-13 -13 -13 -13 -14 -14 -15 -15 -15 -16 -16 -16 -16 -16 -16 -17 -17 -18 -17 -18 -17 -16 -16 -16 -16 -17 -17 -17 -17 -16 -16 -16 -16 -16 -16 -16 -16 -15 -15 -16 -16 -16 -16 -16 -16
-13 -13 -13 -13 -14 -14 -15 -15 -16 -16 -16 -16 -16 -16 -16 -17 -17 -17 -17 -17 -17 -17 -17 -16 -17 -17 -17 -16 -16 -16 -16 -16 -16 -16 -16 -15 -15 -16 -16 -15 -15 -16 -16 -16 -16
-13 -13 -13 -14 -14 -14 -15 -15 -16 -16 -16 -17 -16 -16 -17 -17 -17 -17 -17 -17 -17 -17 -17 -17 -17 -17 -16 -16 -16 -16 -17 -16 -16 -16 -15 -15 -15 -16 -16 -15 -15 -15 -16 -16 -16
-13 -13 -14 -14 -14 -14 -15 -15 -16 -16 -16 -16 -16 -16 -17 -17 -17 -17 -17 -17 -17 -17 -17 -16 -17 -17 -17 -16 -17 -16 -16 -17 -16 -16 -16 -15 -15 -15 -15 -15 -15 -15 -15 -15 -16
-13 -14 -15 -14 -14 -15 -15 -16 -16 -16 -16 -16 -16 -17 -17 -17 -17 -17 -17 -17 -17 -17 -17 -16 -17 -17 -17 -17 -17 -17 -17 -16 -16 -16 -15 -15 -15 -15 -16 -15 -15 -15 -15 -15 -15
-13 -14 -15 -14 -14 -14 -15 -15 -16 -16 -17 -16 -16 -17 -17 -17 -17 -16 -16 -17 -17 -17 -16 -16 -16 -16 -17 -17 -17 -17 -16 -16 -16 -16 -15 -15 -16 -15 -16 -15 -15 -15 -14 -15 -15
-14 -14 -15 -14 -14 -15 -15 -15 -15 -16 -17 -16 -17 -17 -17 -16 -16 -16 -16 -17 -17 -16 -16 -16 -16 -16 -16 -17 -17 -17 -16 -16 -16 -16 -16 -15 -16 -16 -15 -15 -15 -14 -15 -15 -14
-14 -15 -15 -15 -15 -15 -15 -15 -16 -16 -16 -16 -16 -17 -17 -16 -16 -16 -16 -17 -16 -16 -17 -17 -17 -16 -16 -16 -16 -16 -16 -16 -16 -16 -16 -16 -16 -16 -15 -15 -15 -15 -14 -14 -14
-15 -15 -16 -15 -15 -15 -14 -16 -16 -16 -16 -16 -16 -16 -17 -17 -16 -16 -17 -16 -16 -16 -16 -16 -16 -16 -16 -16 -16 -15 -16 -16 -16 -16 -16 -15 -16 -16 -15 -15 -15 -15 -14 -14 -15
-15 -16 -15 -15 -15 -15 -15 -16 -16 -16 -16 -16 -16 -16 -16 -16 -16 -16 -17 -17 -16 -16 -16 -16 -16 -16 -16 -15 -16 -15 -15 -15 -15 -15 -15 -15 -15 -15 -15 -15 -15 -15 -15 -15 -15
-15 -16 -15 -15 -14 -15 -16 -16 -16 -16 -16 -16 -16 -16 -16 -16 -16 -16 -16 -16 -16 -16 -16 -16 -16 -16 -16 -15 -15 -16 -15 -15 -15 -15 -15 -15 -15 -15 -15 -15 -15 -15 -15 -15 -15
-17 -16 -16 -15 -15 -16 -16 -15 -16 -16 -15 -16 -16 -16 -16 -16 -16 -16 -16 -16 -16 -16 -16 -16 -16 -16 -16 -17 -16 -16 -15 -15 -15 -15 -15 -15 -15 -15 -15 -15 -15 -15 -15 -15 -15
-17 -16 -15 -14 -15 -16 -16 -16 -16 -16 -16 -16 -16 -16 -16 -16 -16 -15 -15 -15 -15 -15 -15 -15 -16 -16 -16 -16 -15 -15 -15 -15 -15 -15 -15 -15 -15 -16 -15 -15 -15 -15 -16 -16 -16
-16 -16 -16 -16 -16 -16 -16 -16 -16 -16 -16 -16 -16 -16 -16 -16 -16 -16 -16 -16 -15 -15 -15 -15 -15 -16 -15 -15 -15 -15 -15 -15 -15 -15 -15 -15 -15 -16 -16 -15 -16 -16 -16 -16 -16
-16 -16 -16 -15 -16 -16 -16 -16 -16 -16 -16 -16 -16 -16 -16 -16 -16 -16 -16 -16 -16 -16 -16 -15 -15 -15 -15 -15 -15 -14 -15 -15 -15 -15 -16 -16 -16 -15 -15 -15 -16 -16 -16 -16 -17

GFSSW_500_temp_012.txt.gz
Temp
-10 -11 -11 -11 -12 -12 -12 -12 -12 -13 -12 -13 -13 -14 -15 -15 -15 -15 -16 -16 -16 -16 -16 -16 -16 -16 -16 -16 -16 -15 -15 -14 -14 -14 -14 -14 -13 -13 -13 -12 -12 -11 -12 -12 -11
-10 -11 -11 -12 -12 -12 -12 -12 -13 -13 -13 -13 -14 -15 -15 -15 -15 -15 -16 -16 -16 -16 -16 -16 -17 -16 -17 -17 -16 -15 -14 -15 -15 -14 -14 -14 -13 -13 -14 -12 -13 -13 -11 -12 -11
-11 -11 -11 -12 -12 -12 -13 -12 -13 -13 -13 -13 -14 -15 -15 -15 -15 -16 -16 -16 -16 -16 -17 -17 -17 -17 -17 -17 -16 -15 -15 -16 -15 -14 -14 -13 -13 -14 -13 -13 -13 -12 -13 -14 -12
-11 -12 -12 -12 -12 -12 -13 -12 -13 -13 -13 -14 -15 -15 -16 -15 -16 -16 -16 -16 -16 -17 -17 -17 -17 -17 -17 -16 -16 -16 -15 -15 -14 -14 -14 -14 -14 -13 -13 -13 -12 -13 -14 -14 -14
-12 -12 -12 -12 -12 -12 -13 -12 -13 -13 -13 -14 -15 -16 -15 -15 -16 -16 -16 -16 -16 -17 -17 -17 -17 -17 -16 -16 -16 -16 -15 -16 -15 -15 -15 -14 -14 -14 -14 -12 -13 -14 -14 -15 -14
-12 -12 -12 -12 -13 -13 -13 -13 -13 -13 -13 -14 -15 -16 -15 -15 -16 -16 -16 -16 -16 -16 -17 -17 -16 -17 -18 -17 -16 -16 -16 -15 -15 -14 -14 -14 -14 -14 -12 -13 -14 -15 -14 -14 -14
-12 -12 -12 -12 -13 -12 -13 -13 -13 -13 -13 -14 -15 -15 -15 -15 -16 -16 -16 -16 -16 -17 -17 -16 -16 -16 -17 -17 -17 -16 -16 -15 -15 -15 -15 -14 -15 -15 -14 -15 -14 -14 -14 -15 -14
-12 -12 -12 -12 -12 -12 -13 -13 -13 -13 -13 -14 -15 -15 -15 -15 -16 -16 -17 -17 -17 -18 -17 -16 -16 -16 -16 -15 -16 -15 -16 -15 -15 -15 -16 -16 -15 -15 -14 -14 -14 -14 -14 -14 -15
-12 -12 -12 -12 -12 -12 -13 -13 -13 -14 -14 -14 -15 -15 -15 -15 -16 -16 -17 -18 -17 -17 -17 -16 -16 -16 -16 -16 -16 -16 -16 -15 -15 -15 -16 -16 -15 -15 -15 -15 -15 -14 -15 -15 -15
-13 -13 -12 -12 -13 -13 -13 -13 -13 -13 -14 -14 -15 -15 -15 -16 -16 -16 -17 -17 -17 -17 -17 -17 -17 -17 -16 -16 -16 -16 -16 -16 -16 -16 -15 -16 -16 -15 -15 -15 -13 -14 -14 -15 -14
-13 -13 -13 -12 -13 -13 -13 -13 -13 -13 -14 -15 -15 -15 -15 -16 -16 -16 -17 -17 -17 -17 -17 -17 -17 -16 -16 -16 -16 -16 -16 -16 -16 -16 -16 -16 -15 -15 -15 -15 -15 -15 -15 -14 -15
-13 -13 -13 -13 -13 -13 -14 -13 -13 -14 -14 -15 -15 -15 -16 -16 -16 -16 -17 -17 -17 -17 -17 -17 -16 -16 -16 -16 -16 -16 -16 -16 -16 -15 -15 -16 -16 -15 -15 -15 -15 -15 -15 -15 -15
-13 -13 -13 -13 -13 -13 -14 -13 -14 -14 -14 -15 -15 -15 -16 -16 -16 -16 -17 -17 -17 -17 -16 -16 -16 -16 -16 -16 -16 -16 -16 -15 -16 -15 -16 -16 -16 -16 -15 -15 -16 -15 -15 -15 -15
-13 -13 -13 -13 -13 -14 -14 -14 -14 -14 -15 -14 -15 -16 -16 -16 -16 -17 -17 -17 -17 -16 -16 -16 -16 -16 -16 -16 -16 -16 -15 -16 -15 -15 -15 -16 -15 -15 -16 -15 -15 -15 -15 -15 -15
-13 -13 -14 -13 -14 -14 -14 -14 -14 -15 -15 -15 -15 -15 -16 -16 -17 -16 -16 -17 -16 -17 -16 -16 -16 -16 -16 -16 -16 -16 -16 -16 -16 -16 -16 -15 -16 -15 -15 -15 -15 -16 -16 -15 -15
-14 -14 -14 -13 -14 -14 -14 -14 -14 -14 -15 -15 -15 -16 -16 -16 -16 -17 -17 -17 -17 -16 -17 -17 -16 -16 -16 -16 -16 -16 -16 -16 -16 -16 -16 -15 -15 -15 -15 -15 -16 -16 -16 -16 -15
-14 -14 -14 -14 -14 -14 -14 -14 -14 -13 -15 -16 -16 -16 -17 -17 -17 -16 -16 -16 -17 -17 -17 -16 -16 -16 -16 -16 -16 -16 -16 -16 -16 -16 -15 -15 -15 -15 -15 -15 -15 -15 -15 -15 -15
-14 -14 -14 -14 -14 -15 -14 -14 -14 -14 -15 -16 -16 -17 -17 -18 -17 -16 -16 -16 -16 -17 -17 -16 -17 -16 -16 -16 -16 -16 -16 -16 -15 -15 -15 -15 -15 -15 -15 -15 -15 -15 -15 -15 -15
-15 -14 -14 -14 -15 -15 -14 -14 -13 -15 -16 -17 -18 -18 -18 -17 -17 -16 -16 -16 -16 -16 -16 -15 -15 -15 -16 -16 -16 -16 -17 -16 -16 -16 -16 -15 -15 -15 -15 -15 -16 -15 -14 -14 -14
-15 -14 -15 -15 -16 -15 -14 -14 -14 -16 -17 -17 -18 -18 -17 -17 -17 -16 -16 -16 -16 -17 -17 -16 -16 -16 -16 -16 -16 -16 -16 -15 -16 -15 -15 -15 -15 -15 -15 -15 -15 -15 -14 -14 -15
-15 -15 -16 -16 -16 -15 -13 -14 -15 -16 -16 -17 -17 -18 -17 -17 -16 -17 -17 -16 -16 -16 -16 -17 -16 -16 -15 -15 -16 -16 -16 -15 -16 -16 -15 -15 -16 -16 -15 -15 -15 -15 -14 -14 -14
-15 -15 -16 -16 -15 -14 -14 -14 -16 -16 -16 -16 -17 -18 -17 -16 -16 -16 -17 -17 -16 -16 -16 -16 -16 -16 -15 -15 -15 -15 -16 -15 -15 -15 -15 -15 -15 -15 -15 -15 -15 -15 -15 -14 -14
-15 -16 -17 -16 -15 -14 -15 -15 -16 -16 -16 -16 -16 -17 -17 -17 -17 -16 -17 -16 -16 -16 -16 -16 -15 -16 -16 -16 -15 -15 -16 -16 -16 -15 -15 -15 -15 -15 -15 -15 -15 -15 -15 -15 -15
-15 -16 -17 -15 -15 -15 -15 -15 -16 -16 -16 -16 -16 -17 -16 -16 -16 -16 -16 -16 -16 -16 -16 -16 -16 -16 -16 -16 -17 -16 -16 -16 -16 -15 -15 -15 -15 -16 -15 -14 -14 -15 -15 -15 -15
-15 -15 -15 -14 -14 -14 -16 -16 -16 -16 -16 -17 -16 -16 -16 -16 -16 -16 -16 -15 -16 -15 -16 -16 -16 -16 -16 -17 -16 -17 -16 -16 -15 -15 -15 -15 -15 -16 -17 -16 -15 -15 -15 -15 -16
-15 -15 -14 -15 -15 -15 -15 -15 -16 -16 -16 -16 -16 -16 -16 -16 -16 -15 -16 -15 -15 -15 -15 -15 -15 -16 -15 -16 -16 -16 -15 -15 -15 -15 -15 -15 -15 -16 -15 -15 -15 -15 -16 -16 -16
-15 -14 -15 -15 -16 -16 -15 -16 -16 -16 -16 -16 -16 -16 -16 -16 -15 -15 -16 -15 -15 -15 -15 -15 -15 -15 -15 -15 -15 -15 -15 -15 -15 -15 -15 -15 -16 -16 -16 -15 -15 -16 -16 -15 -16

GFSSW_500_temp_015.txt.gz
Temp
-11 -11 -11 -11 -11 -11 -11 -11 -11 -12 -12 -12 -12 -12 -14 -15 -15 -15 -16 -16 -16 -16 -16 -16 -16 -16 -16 -16 -16 -16 -15 -15 -14 -14 -15 -14 -14 -13 -13 -12 -13 -12 -12 -13 -11
-11 -11 -11 -11 -11 -12 -11 -11 -12 -12 -12 -12 -12 -13 -14 -15 -15 -16 -16 -16 -16 -16 -16 -16 -17 -16 -17 -17 -16 -16 -15 -15 -16 -15 -14 -13 -14 -13 -13 -12 -13 -13 -12 -12 -12
-11 -11 -11 -11 -12 -12 -12 -11 -12 -12 -12 -13 -13 -13 -14 -15 -15 -16 -15 -16 -16 -16 -17 -17 -17 -17 -17 -17 -16 -16 -16 -15 -16 -15 -14 -14 -14 -14 -13 -13 -14 -12 -13 -12 -12
-11 -11 -11 -11 -12 -12 -12 -12 -12 -12 -12 -13 -13 -13 -14 -15 -15 -15 -15 -16 -16 -16 -17 -17 -18 -17 -17 -17 -16 -15 -16 -16 -15 -15 -14 -14 -14 -14 -14 -13 -13 -12 -12 -12 -12
-12 -11 -12 -12 -12 -12 -12 -12 -12 -12 -13 -13 -13 -14 -14 -15 -15 -15 -16 -16 -16 -16 -17 -17 -17 -17 -17 -17 -16 -16 -17 -16 -15 -15 -15 -14 -13 -14 -14 -14 -12 -13 -13 -14 -14
-12 -12 -12 -12 -12 -12 -12 -12 -12 -12 -12 -13 -13 -14 -14 -15 -15 -15 -16 -16 -16 -16 -17 -17 -17 -17 -17 -17 -16 -16 -16 -16 -16 -15 -14 -14 -14 -14 -14 -15 -13 -14 -13 -14 -14
-12 -12 -12 -12 -12 -12 -12 -12 -12 -12 -12 -13 -13 -14 -14 -15 -15 -15 -16 -16 -16 -17 -17 -17 -17 -17 -17 -17 -17 -17 -16 -16 -16 -15 -15 -14 -14 -15 -14 -15 -15 -14 -14 -14 -14
-12 -12 -12 -12 -12 -12 -12 -12 -12 -12 -13 -13 -13 -14 -14 -15 -15 -16 -16 -17 -17 -17 -17 -16 -16 -16 -16 -16 -16 -16 -16 -16 -15 -14 -14 -15 -15 -15 -14 -14 -14 -14 -14 -14 -14
-12 -12 -13 -13 -13 -12 -12 -12 -12 -12 -13 -13 -13 -14 -15 -15 -15 -15 -16 -16 -17 -17 -17 -16 -16 -16 -16 -16 -16 -16 -16 -16 -15 -15 -16 -16 -15 -15 -15 -15 -15 -14 -14 -14 -14
-13 -13 -13 -13 -13 -12 -12 -12 -12 -13 -13 -13 -13 -14 -15 -15 -15 -15 -16 -17 -17 -17 -17 -17 -17 -16 -17 -16 -16 -17 -16 -16 -15 -16 -16 -16 -15 -16 -15 -15 -15 -15 -14 -15 -14
-14 -15 -15 -14 -13 -13 -13 -12 -13 -13 -13 -13 -13 -14 -15 -15 -15 -15 -16 -17 -17 -17 -17 -17 -17 -17 -16 -16 -16 -16 -16 -16 -15 -15 -16 -16 -16 -16 -15 -14 -15 -15 -15 -15 -14
-14 -14 -15 -15 -14 -13 -13 -13 -13 -13 -13 -13 -13 -14 -15 -15 -15 -15 -16 -17 -17 -17 -17 -17 -17 -16 -16 -16 -15 -16 -16 -16 -16 -16 -16 -16 -16 -16 -15 -15 -15 -15 -15 -14 -14
-14 -15 -15 -14 -14 -13 -13 -13 -13 -13 -13 -13 -14 -14 -15 -15 -15 -15 -15 -17 -16 -16 -16 -16 -16 -16 -16 -15 -16 -16 -16 -16 -16 -16 -16 -16 -16 -16 -15 -15 -15 -15 -15 -15 -15
-14 -15 -15 -14 -14 -14 -13 -13 -14 -13 -13 -13 -14 -14 -15 -15 -15 -15 -15 -17 -17 -17 -16 -16 -16 -16 -16 -16 -17 -16 -16 -16 -16 -16 -15 -16 -16 -16 -16 -15 -16 -16 -15 -15 -15
-15 -14 -14 -14 -14 -14 -14 -14 -13 -13 -13 -13 -14 -14 -15 -15 -15 -15 -15 -16 -17 -17 -16 -16 -16 -16 -16 -16 -15 -16 -16 -16 -15 -16 -15 -15 -15 -16 -15 -15 -15 -16 -16 -15 -14
-15 -14 -14 -14 -14 -13 -14 -14 -14 -13 -13 -13 -13 -14 -15 -15 -15 -16 -17 -17 -17 -16 -15 -16 -15 -15 -15 -15 -16 -16 -15 -15 -16 -16 -16 -16 -15 -16 -15 -15 -15 -15 -15 -15 -15
-15 -15 -15 -14 -14 -14 -14 -14 -14 -13 -15 -13 -13 -14 -15 -15 -15 -16 -16 -17 -17 -16 -15 -16 -16 -16 -16 -16 -16 -15 -16 -16 -16 -16 -15 -16 -15 -15 -15 -15 -16 -15 -15 -15 -15
-17 -16 -16 -15 -14 -14 -14 -14 -13 -13 -15 -15 -14 -15 -15 -15 -16 -16 -17 -17 -17 -16 -16 -16 -17 -17 -17 -16 -17 -16 -16 -16 -16 -16 -15 -16 -16 -15 -16 -15 -15 -15 -15 -15 -15
-17 -16 -15 -15 -15 -15 -14 -13 -13 -14 -15 -16 -16 -16 -16 -16 -16 -17 -17 -16 -16 -16 -16 -16 -16 -17 -17 -17 -17 -17 -17 -16 -17 -16 -16 -16 -16 -16 -16 -15 -15 -15 -15 -15 -15
-16 -16 -15 -16 -15 -15 -15 -13 -13 -15 -15 -17 -17 -16 -16 -17 -17 -17 -17 -16 -16 -16 -17 -17 -17 -16 -16 -16 -16 -17 -17 -16 -16 -16 -15 -15 -16 -15 -16 -15 -15 -15 -15 -15 -15
-16 -16 -16 -16 -15 -15 -14 -13 -14 -15 -15 -15 -16 -17 -16 -17 -17 -17 -16 -17 -17 -17 -17 -17 -16 -17 -16 -17 -16 -16 -16 -16 -16 -16 -15 -15 -16 -16 -15 -15 -15 -15 -15 -15 -15
-16 -15 -17 -16 -15 -14 -13 -13 -15 -16 -15 -16 -16 -17 -17 -17 -17 -17 -16 -17 -17 -17 -16 -16 -16 -16 -16 -16 -16 -16 -16 -16 -16 -16 -16 -15 -15 -16 -16 -16 -16 -16 -15 -15 -15
-16 -16 -17 -17 -15 -14 -13 -14 -16 -16 -15 -15 -16 -16 -16 -17 -16 -17 -17 -16 -17 -17 -17 -16 -16 -16 -16 -16 -16 -16 -16 -16 -16 -15 -15 -15 -15 -16 -16 -16 -16 -15 -15 -15 -15
-16 -16 -17 -17 -15 -14 -14 -15 -15 -16 -16 -15 -16 -17 -16 -17 -16 -16 -17 -16 -16 -16 -16 -16 -16 -16 -16 -16 -16 -16 -16 -16 -16 -15 -15 -15 -15 -16 -16 -15 -15 -15 -15 -16 -15
-17 -16 -16 -15 -14 -14 -14 -15 -16 -16 -16 -15 -16 -17 -16 -16 -16 -16 -16 -16 -15 -15 -16 -16 -16 -16 -16 -16 -16 -16 -16 -16 -16 -16 -15 -16 -15 -16 -16 -15 -15 -14 -14 -15 -16
-17 -16 -15 -15 -15 -14 -14 -15 -16 -16 -16 -16 -15 -17 -16 -16 -16 -16 -16 -16 -15 -16 -16 -16 -15 -15 -16 -16 -16 -16 -16 -16 -16 -16 -15 -15 -15 -16 -16 -15 -15 -15 -15 -16 -15
-16 -16 -15 -15 -15 -15 -14 -15 -15 -16 -16 -16 -16 -16 -17 -16 -16 -16 -16 -16 -15 -15 -15 -15 -15 -15 -15 -15 -15 -15 -16 -16 -16 -16 -16 -16 -16 -16 -16 -15 -15 -15 -16 -16 -16

GFSSW_500_temp_021.txt.gz
Temp
-12 -11 -11 -11 -11 -11 -11 -11 -11 -11 -11 -11 -11 -11 -11 -12 -12 -13 -14 -15 -15 -16 -16 -17 -17 -17 -17 -17 -17 -17 -17 -16 -16 -15 -16 -15 -15 -15 -14 -13 -13 -13 -13 -13 -13
-12 -12 -12 -12 -12 -11 -12 -11 -11 -11 -11 -11 -11 -11 -11 -12 -12 -13 -15 -15 -16 -16 -16 -17 -17 -17 -17 -17 -17 -17 -17 -16 -16 -16 -16 -15 -14 -13 -13 -13 -13 -13 -13 -13 -12
-12 -12 -12 -12 -12 -12 -11 -11 -11 -11 -12 -11 -11 -11 -11 -12 -12 -13 -15 -15 -16 -16 -16 -17 -17 -17 -18 -18 -17 -17 -17 -17 -16 -15 -15 -14 -14 -14 -14 -13 -13 -13 -13 -13 -12
-12 -12 -12 -12 -12 -12 -12 -12 -11 -11 -12 -12 -11 -12 -12 -12 -13 -14 -15 -15 -15 -16 -16 -17 -17 -18 -18 -18 -17 -17 -17 -17 -16 -16 -15 -14 -14 -14 -14 -14 -13 -13 -13 -13 -12
-12 -12 -12 -12 -12 -12 -12 -12 -12 -12 -12 -12 -11 -12 -12 -12 -13 -14 -15 -15 -15 -16 -17 -17 -17 -17 -18 -17 -17 -17 -16 -16 -16 -15 -15 -15 -15 -14 -14 -14 -14 -13 -14 -13 -12
-12 -12 -12 -12 -12 -12 -12 -12 -12 -12 -12 -12 -12 -12 -12 -12 -13 -14 -15 -15 -15 -15 -16 -17 -17 -17 -17 -17 -18 -16 -17 -16 -16 -15 -14 -14 -15 -14 -15 -14 -14 -14 -14 -13 -13
-12 -12 -12 -12 -12 -12 -12 -12 -12 -12 -12 -12 -12 -12 -12 -13 -13 -14 -15 -15 -15 -15 -15 -17 -17 -17 -18 -18 -17 -17 -16 -16 -15 -14 -14 -15 -15 -15 -15 -15 -15 -15 -14 -14 -15
-12 -13 -12 -13 -12 -12 -12 -12 -12 -12 -12 -12 -12 -12 -12 -13 -13 -15 -15 -15 -15 -16 -16 -17 -17 -18 -18 -18 -17 -17 -16 -15 -15 -15 -15 -15 -16 -16 -15 -15 -14 -15 -15 -15 -14
-13 -13 -13 -13 -13 -12 -12 -12 -12 -13 -13 -12 -12 -12 -12 -13 -13 -14 -15 -15 -15 -16 -16 -17 -17 -17 -17 -17 -17 -16 -16 -15 -15 -15 -15 -16 -16 -16 -15 -15 -15 -15 -15 -14 -14
-13 -13 -13 -13 -13 -13 -12 -12 -13 -13 -13 -12 -12 -12 -12 -13 -13 -15 -15 -15 -16 -16 -16 -16 -17 -17 -17 -17 -17 -16 -16 -15 -15 -15 -15 -16 -16 -16 -16 -16 -15 -15 -15 -15 -14
-13 -13 -13 -13 -14 -13 -13 -13 -13 -13 -12 -12 -13 -12 -13 -13 -14 -14 -15 -15 -16 -16 -16 -16 -17 -17 -17 -17 -16 -16 -15 -16 -16 -16 -16 -15 -16 -16 -16 -16 -16 -15 -15 -15 -15
-13 -13 -13 -13 -13 -14 -13 -13 -13 -13 -13 -12 -12 -13 -13 -13 -13 -14 -15 -15 -15 -15 -15 -16 -17 -17 -17 -17 -16 -16 -16 -16 -17 -17 -16 -15 -16 -15 -15 -15 -15 -15 -15 -15 -15
-14 -13 -13 -13 -13 -14 -13 -14 -14 -14 -13 -13 -13 -13 -13 -13 -13 -14 -15 -15 -15 -15 -16 -16 -16 -17 -17 -17 -16 -16 -16 -16 -16 -16 -16 -16 -16 -16 -15 -15 -15 -15 -15 -15 -15
-14 -14 -13 -13 -13 -14 -14 -14 -15 -14 -13 -13 -13 -12 -13 -13 -14 -14 -15 -15 -15 -15 -16 -15 -15 -16 -17 -17 -17 -16 -17 -16 -16 -16 -16 -16 -16 -15 -15 -15 -15 -15 -15 -15 -15
-15 -16 -15 -13 -14 -14 -13 -14 -14 -14 -13 -13 -13 -12 -13 -13 -14 -14 -15 -15 -15 -15 -15 -15 -15 -15 -16 -16 -17 -16 -16 -16 -15 -16 -17 -16 -16 -15 -15 -15 -15 -15 -15 -15 -15
-17 -17 -16 -16 -16 -14 -14 -15 -15 -14 -13 -13 -13 -13 -13 -13 -14 -14 -15 -15 -16 -16 -16 -15 -14 -15 -15 -16 -16 -16 -16 -16 -16 -16 -16 -16 -16 -15 -15 -15 -15 -15 -15 -16 -15
-18 -18 -17 -17 -18 -15 -15 -15 -15 -13 -14 -13 -13 -13 -13 -14 -14 -14 -14 -15 -15 -16 -16 -15 -16 -15 -16 -16 -16 -15 -15 -16 -16 -16 -16 -16 -16 -15 -16 -15 -15 -14 -15 -16 -16
-18 -18 -18 -19 -19 -18 -16 -16 -13 -12 -14 -14 -13 -13 -14 -14 -14 -14 -14 -15 -16 -16 -16 -16 -16 -15 -15 -16 -16 -16 -16 -16 -16 -16 -15 -15 -15 -15 -15 -15 -16 -16 -15 -15 -15
-18 -18 -18 -19 -19 -18 -18 -15 -12 -13 -15 -14 -14 -14 -14 -14 -14 -14 -14 -15 -16 -16 -16 -16 -16 -16 -16 -17 -17 -16 -16 -16 -16 -16 -16 -16 -16 -15 -16 -16 -15 -16 -15 -15 -15
-18 -18 -18 -20 -19 -19 -18 -13 -13 -15 -15 -14 -14 -14 -14 -14 -14 -14 -14 -16 -16 -16 -17 -16 -17 -17 -17 -16 -17 -17 -16 -16 -16 -16 -16 -16 -16 -16 -16 -16 -16 -15 -15 -15 -15
-19 -18 -17 -19 -20 -19 -14 -12 -13 -16 -16 -15 -14 -14 -14 -14 -14 -14 -15 -17 -16 -16 -16 -16 -17 -17 -17 -17 -17 -17 -17 -16 -16 -17 -16 -16 -16 -16 -16 -15 -15 -15 -15 -15 -15
-18 -18 -17 -19 -19 -16 -13 -13 -14 -16 -16 -15 -14 -14 -14 -14 -14 -15 -16 -17 -16 -16 -16 -16 -17 -17 -17 -17 -17 -17 -17 -16 -16 -16 -16 -16 -15 -16 -16 -16 -15 -15 -15 -16 -16
-18 -18 -18 -19 -18 -14 -14 -14 -16 -17 -16 -15 -15 -15 -14 -15 -15 -15 -16 -17 -17 -16 -16 -16 -16 -16 -17 -17 -16 -16 -17 -17 -17 -16 -16 -16 -15 -16 -16 -16 -15 -15 -15 -16 -16
-19 -19 -18 -19 -16 -16 -15 -15 -15 -17 -16 -15 -15 -15 -15 -15 -15 -16 -17 -16 -16 -17 -17 -17 -16 -17 -16 -16 -17 -17 -18 -17 -17 -16 -15 -15 -15 -16 -16 -16 -15 -15 -15 -15 -15
-19 -18 -17 -16 -15 -15 -15 -15 -16 -17 -16 -16 -16 -15 -15 -15 -15 -16 -16 -16 -17 -17 -17 -17 -16 -17 -17 -17 -16 -17 -17 -17 -16 -16 -16 -16 -15 -16 -16 -16 -16 -15 -15 -15 -15
-19 -18 -17 -16 -17 -16 -15 -14 -15 -17 -16 -15 -16 -16 -16 -15 -16 -16 -16 -16 -17 -17 -16 -16 -16 -17 -17 -17 -17 -16 -17 -17 -16 -16 -16 -16 -16 -16 -16 -16 -16 -16 -15 -15 -16
-19 -18 -17 -16 -16 -16 -14 -14 -15 -17 -17 -16 -16 -17 -16 -16 -17 -17 -17 -16 -17 -17 -16 -16 -17 -17 -17 -17 -17 -16 -16 -16 -16 -16 -16 -16 -16 -16 -16 -16 -16 -16 -16 -16 -16

GFSSW_500_temp_024.txt.gz
Temp
-12 -12 -12 -12 -12 -12 -12 -11 -11 -11 -11 -11 -11 -11 -11 -11 -11 -12 -12 -13 -14 -15 -16 -16 -17 -17 -17 -17 -17 -17 -17 -17 -17 -17 -16 -16 -16 -15 -15 -14 -14 -14 -13 -13 -13
-12 -12 -12 -12 -12 -12 -12 -11 -11 -11 -12 -11 -12 -11 -11 -11 -11 -12 -12 -13 -14 -15 -16 -16 -17 -17 -17 -17 -17 -18 -17 -17 -17 -17 -16 -15 -15 -15 -14 -14 -14 -13 -13 -13 -13
-12 -12 -12 -12 -12 -12 -11 -12 -12 -11 -12 -12 -12 -12 -11 -11 -11 -12 -13 -13 -14 -15 -15 -16 -16 -16 -16 -17 -18 -18 -17 -17 -17 -17 -16 -15 -15 -14 -14 -14 -13 -13 -13 -13 -13
-12 -12 -12 -12 -12 -12 -12 -12 -12 -12 -12 -12 -12 -12 -11 -11 -12 -12 -13 -14 -14 -15 -15 -16 -17 -17 -17 -17 -17 -18 -18 -17 -16 -16 -16 -15 -15 -14 -14 -14 -14 -13 -14 -13 -12
-13 -13 -12 -12 -12 -12 -12 -12 -12 -12 -12 -12 -12 -12 -11 -12 -12 -12 -13 -14 -14 -15 -14 -16 -17 -17 -17 -18 -18 -17 -17 -17 -16 -16 -16 -15 -15 -15 -15 -15 -14 -14 -14 -13 -13
-12 -12 -12 -12 -12 -12 -12 -12 -12 -12 -12 -12 -12 -12 -11 -12 -12 -12 -13 -14 -14 -14 -15 -16 -17 -18 -18 -18 -18 -17 -17 -17 -16 -15 -15 -15 -15 -14 -15 -15 -14 -14 -14 -14 -13
-13 -13 -13 -12 -12 -13 -12 -12 -12 -12 -12 -12 -12 -12 -12 -12 -12 -13 -13 -14 -14 -14 -15 -17 -17 -18 -18 -18 -18 -17 -17 -16 -16 -15 -15 -15 -14 -15 -15 -15 -15 -15 -15 -15 -15
-13 -13 -13 -13 -13 -13 -13 -12 -12 -12 -12 -12 -13 -12 -13 -12 -12 -13 -13 -14 -14 -15 -16 -17 -17 -18 -18 -18 -18 -17 -16 -16 -16 -16 -15 -15 -16 -16 -15 -15 -14 -15 -15 -15 -15
-13 -13 -13 -13 -13 -13 -13 -13 -12 -12 -12 -13 -13 -13 -12 -12 -13 -13 -13 -14 -15 -15 -16 -17 -17 -17 -18 -18 -18 -17 -17 -16 -16 -15 -15 -15 -16 -15 -15 -15 -15 -15 -15 -15 -15
-13 -13 -13 -13 -13 -13 -13 -13 -13 -12 -13 -13 -13 -13 -12 -12 -13 -13 -13 -14 -14 -15 -16 -17 -17 -17 -17 -18 -18 -17 -17 -16 -15 -15 -16 -15 -16 -15 -15 -16 -15 -15 -15 -15 -15
-14 -14 -14 -13 -13 -13 -13 -13 -13 -13 -13 -13 -13 -13 -13 -12 -13 -13 -13 -14 -14 -15 -15 -16 -16 -17 -17 -18 -18 -17 -17 -16 -15 -15 -16 -16 -16 -15 -15 -16 -16 -16 -15 -15 -15
-14 -14 -14 -13 -13 -13 -13 -13 -13 -13 -13 -13 -13 -13 -13 -13 -13 -13 -13 -14 -14 -15 -16 -16 -17 -17 -17 -18 -17 -17 -17 -16 -16 -16 -16 -16 -15 -15 -16 -15 -16 -16 -16 -15 -15
-14 -14 -14 -14 -13 -13 -13 -13 -13 -13 -13 -13 -13 -13 -12 -13 -13 -13 -14 -14 -14 -15 -16 -16 -17 -17 -17 -17 -17 -17 -16 -16 -15 -15 -15 -15 -16 -16 -16 -16 -16 -16 -16 -16 -15
-15 -15 -14 -14 -14 -13 -13 -14 -13 -13 -13 -13 -13 -14 -13 -13 -13 -13 -14 -14 -14 -15 -15 -16 -16 -16 -16 -16 -17 -16 -16 -16 -16 -16 -16 -17 -16 -16 -16 -16 -15 -15 -16 -16 -16
-16 -16 -15 -14 -14 -14 -14 -14 -14 -13 -13 -13 -14 -14 -13 -13 -13 -13 -14 -14 -14 -15 -15 -16 -15 -16 -16 -16 -16 -17 -16 -16 -16 -16 -16 -16 -16 -16 -15 -15 -15 -15 -16 -15 -16
-16 -17 -16 -15 -15 -16 -14 -15 -14 -14 -13 -13 -14 -14 -13 -13 -13 -13 -14 -14 -14 -15 -15 -15 -15 -15 -16 -16 -15 -16 -16 -16 -16 -15 -15 -15 -15 -15 -15 -15 -15 -15 -15 -15 -15
-17 -18 -17 -17 -18 -17 -15 -15 -14 -13 -14 -14 -14 -14 -13 -13 -13 -13 -14 -14 -14 -15 -15 -16 -16 -15 -16 -16 -15 -16 -16 -16 -16 -15 -15 -15 -15 -14 -15 -15 -15 -15 -15 -15 -15
-18 -18 -18 -18 -20 -19 -18 -17 -13 -12 -13 -15 -14 -14 -13 -14 -13 -14 -14 -14 -14 -15 -16 -16 -16 -15 -16 -16 -16 -16 -16 -15 -16 -15 -16 -16 -15 -15 -16 -16 -16 -15 -15 -15 -15
-19 -18 -18 -19 -20 -20 -19 -16 -12 -12 -13 -15 -15 -14 -14 -14 -13 -14 -14 -14 -14 -15 -16 -16 -16 -16 -16 -16 -17 -16 -16 -16 -16 -16 -16 -16 -15 -15 -16 -16 -16 -16 -15 -15 -15
-19 -18 -18 -20 -20 -21 -19 -14 -13 -15 -15 -15 -16 -15 -14 -14 -14 -14 -14 -14 -15 -15 -16 -16 -17 -17 -17 -17 -16 -16 -16 -16 -16 -16 -16 -16 -16 -16 -16 -16 -16 -16 -15 -15 -15
-19 -19 -18 -20 -21 -21 -15 -13 -14 -16 -16 -16 -16 -15 -15 -15 -14 -14 -14 -14 -15 -15 -16 -16 -17 -17 -17 -17 -17 -17 -16 -16 -16 -16 -16 -15 -15 -16 -16 -16 -16 -16 -16 -16 -16
-20 -19 -19 -20 -20 -17 -15 -14 -15 -17 -17 -16 -16 -15 -16 -15 -14 -14 -14 -15 -15 -15 -15 -16 -17 -17 -17 -17 -17 -17 -17 -16 -16 -16 -16 -16 -15 -16 -16 -16 -16 -16 -16 -16 -16
-20 -19 -20 -21 -20 -16 -15 -15 -15 -18 -18 -18 -17 -16 -16 -16 -15 -15 -15 -16 -16 -16 -16 -17 -17 -17 -17 -17 -16 -16 -17 -17 -16 -16 -15 -16 -15 -16 -16 -16 -16 -16 -16 -15 -16
-20 -20 -20 -20 -18 -17 -16 -15 -15 -18 -18 -17 -17 -16 -16 -16 -15 -15 -15 -16 -16 -17 -17 -17 -17 -17 -16 -16 -17 -17 -17 -17 -16 -16 -16 -16 -16 -16 -16 -16 -16 -16 -16 -16 -16
-22 -20 -19 -18 -18 -15 -16 -15 -17 -17 -17 -17 -17 -17 -16 -16 -16 -16 -16 -16 -16 -17 -17 -17 -17 -17 -17 -17 -17 -17 -16 -16 -16 -16 -16 -16 -16 -16 -16 -17 -17 -17 -16 -16 -16
-22 -20 -19 -18 -18 -17 -16 -14 -15 -18 -18 -17 -16 -17 -17 -17 -16 -17 -17 -17 -16 -17 -17 -17 -17 -17 -18 -18 -17 -17 -16 -16 -16 -16 -16 -16 -15 -16 -16 -17 -17 -17 -16 -16 -16
-22 -20 -19 -18 -18 -18 -15 -15 -15 -18 -17 -17 -18 -18 -18 -17 -17 -17 -17 -17 -16 -17 -17 -17 -17 -17 -17 -17 -17 -16 -16 -16 -16 -16 -16 -15 -16 -16 -16 -17 -17 -17 -17 -17 -16

GFSSW_500_temp_027.txt.gz
Temp
-12 -12 -12 -12 -12 -12 -12 -12 -12 -12 -12 -12 -12 -12 -12 -12 -11 -11 -11 -12 -12 -13 -14 -14 -15 -16 -16 -17 -17 -17 -17 -18 -18 -17 -17 -16 -16 -16 -16 -15 -15 -14 -14 -13 -13
-12 -12 -12 -12 -12 -12 -12 -12 -12 -12 -12 -12 -12 -12 -12 -12 -11 -11 -11 -12 -12 -13 -14 -14 -15 -15 -16 -17 -17 -18 -18 -18 -18 -17 -16 -15 -15 -15 -15 -15 -15 -14 -14 -13 -13
-12 -12 -12 -12 -12 -12 -12 -12 -12 -12 -12 -12 -12 -12 -12 -12 -12 -11 -11 -12 -13 -14 -14 -14 -15 -15 -16 -17 -18 -18 -18 -17 -17 -17 -16 -15 -15 -15 -15 -15 -15 -14 -14 -13 -13
-12 -12 -12 -13 -12 -12 -12 -12 -12 -13 -12 -12 -12 -12 -12 -12 -12 -11 -12 -12 -13 -14 -14 -14 -16 -15 -16 -17 -18 -18 -17 -17 -17 -17 -16 -16 -15 -15 -15 -14 -14 -14 -14 -13 -13
-12 -12 -13 -12 -13 -13 -13 -12 -13 -13 -12 -12 -12 -12 -12 -12 -12 -12 -12 -12 -13 -14 -14 -15 -16 -16 -17 -17 -18 -18 -17 -17 -16 -16 -15 -16 -15 -15 -15 -16 -15 -14 -13 -13 -13
-12 -13 -13 -13 -13 -13 -13 -13 -12 -13 -13 -13 -12 -13 -13 -12 -12 -12 -12 -12 -12 -14 -14 -15 -16 -16 -17 -18 -18 -17 -17 -16 -16 -16 -15 -15 -16 -16 -15 -15 -15 -15 -14 -14 -13
-12 -13 -13 -13 -13 -13 -13 -13 -13 -13 -13 -13 -13 -13 -13 -12 -12 -12 -12 -12 -13 -14 -14 -16 -16 -16 -17 -18 -17 -18 -17 -16 -16 -16 -15 -16 -16 -16 -15 -15 -15 -15 -14 -14 -14
-13 -12 -13 -13 -13 -13 -13 -13 -13 -13 -13 -13 -13 -13 -13 -13 -13 -12 -12 -12 -13 -14 -14 -16 -16 -17 -17 -18 -18 -17 -17 -17 -16 -16 -16 -16 -17 -16 -16 -15 -15 -15 -15 -15 -15
-13 -13 -12 -13 -13 -12 -13 -13 -13 -13 -13 -13 -13 -13 -13 -13 -13 -12 -12 -12 -13 -14 -15 -16 -16 -17 -17 -17 -18 -17 -17 -17 -16 -16 -16 -16 -16 -17 -16 -15 -15 -15 -15 -15 -15
-13 -14 -13 -13 -14 -13 -13 -13 -13 -13 -13 -13 -14 -13 -13 -13 -13 -12 -12 -12 -13 -14 -15 -15 -16 -16 -17 -17 -18 -17 -17 -17 -17 -16 -16 -16 -16 -16 -17 -16 -15 -15 -15 -15 -15
-14 -14 -14 -13 -13 -14 -14 -13 -13 -13 -13 -13 -13 -14 -13 -13 -13 -12 -13 -12 -13 -14 -15 -15 -16 -16 -17 -17 -18 -17 -17 -17 -16 -16 -16 -16 -16 -16 -16 -16 -16 -16 -15 -15 -16
-15 -15 -15 -14 -14 -13 -13 -13 -13 -13 -13 -13 -13 -14 -14 -13 -13 -13 -13 -13 -13 -14 -14 -15 -15 -16 -17 -17 -17 -18 -17 -17 -17 -16 -16 -16 -16 -16 -16 -16 -16 -16 -16 -15 -15
-16 -15 -15 -15 -14 -14 -13 -14 -14 -13 -12 -13 -13 -14 -14 -14 -13 -13 -13 -13 -13 -14 -14 -15 -15 -16 -17 -17 -17 -17 -17 -17 -16 -16 -17 -17 -16 -16 -16 -17 -16 -16 -17 -16 -16
-16 -16 -16 -15 -15 -15 -14 -14 -14 -13 -12 -13 -13 -14 -14 -14 -14 -13 -13 -13 -13 -14 -14 -15 -15 -16 -16 -16 -18 -17 -17 -17 -16 -16 -16 -16 -16 -16 -16 -16 -17 -17 -17 -16 -16
-17 -17 -17 -16 -16 -16 -15 -15 -14 -13 -13 -13 -12 -13 -14 -14 -15 -14 -14 -14 -13 -14 -14 -15 -15 -15 -15 -16 -17 -17 -16 -16 -16 -16 -16 -15 -15 -16 -16 -16 -16 -17 -16 -17 -16
-18 -18 -18 -16 -16 -17 -15 -15 -15 -14 -12 -13 -13 -13 -14 -14 -15 -15 -14 -14 -14 -14 -14 -15 -15 -15 -16 -16 -16 -16 -16 -16 -16 -16 -16 -16 -16 -15 -16 -16 -16 -16 -16 -16 -16
-19 -19 -18 -17 -17 -19 -16 -16 -16 -13 -13 -13 -13 -13 -14 -15 -14 -15 -14 -14 -14 -14 -14 -15 -15 -15 -16 -16 -15 -16 -16 -16 -16 -15 -16 -16 -15 -15 -15 -16 -15 -16 -16 -16 -16
-19 -19 -19 -18 -18 -20 -18 -17 -15 -12 -12 -14 -14 -13 -14 -14 -14 -15 -14 -14 -14 -14 -14 -15 -15 -16 -15 -15 -15 -16 -16 -16 -16 -15 -15 -15 -15 -15 -15 -15 -15 -15 -16 -16 -16
-20 -19 -19 -18 -19 -21 -20 -17 -13 -12 -12 -15 -14 -14 -14 -14 -15 -14 -14 -14 -15 -15 -15 -15 -16 -16 -16 -15 -16 -16 -16 -16 -16 -16 -15 -15 -15 -15 -16 -15 -16 -16 -15 -15 -16
-21 -20 -19 -19 -20 -21 -21 -15 -13 -13 -14 -15 -15 -15 -15 -16 -15 -14 -14 -14 -14 -15 -15 -16 -16 -17 -16 -16 -16 -16 -17 -17 -16 -16 -16 -15 -15 -15 -16 -16 -16 -16 -16 -15 -16
-23 -23 -20 -20 -21 -22 -18 -14 -13 -12 -14 -16 -15 -16 -15 -17 -15 -15 -15 -15 -15 -15 -15 -15 -16 -17 -17 -16 -16 -17 -17 -17 -17 -16 -16 -15 -15 -16 -16 -16 -16 -16 -16 -16 -16
-22 -23 -22 -21 -22 -21 -17 -14 -13 -14 -15 -16 -15 -16 -16 -17 -16 -16 -15 -15 -16 -15 -15 -16 -16 -16 -17 -17 -17 -17 -16 -17 -17 -16 -16 -15 -15 -16 -16 -16 -16 -16 -16 -16 -16
-22 -22 -23 -23 -22 -21 -17 -15 -13 -16 -16 -16 -16 -16 -17 -18 -17 -17 -16 -16 -16 -15 -15 -16 -16 -16 -17 -17 -17 -17 -17 -17 -17 -17 -16 -16 -15 -16 -16 -16 -16 -16 -16 -16 -16
-23 -22 -23 -24 -21 -20 -19 -15 -14 -16 -16 -17 -17 -17 -17 -19 -18 -17 -16 -16 -16 -16 -16 -17 -16 -16 -16 -16 -17 -17 -17 -17 -17 -17 -16 -15 -15 -16 -16 -16 -16 -16 -16 -16 -16
-24 -22 -22 -22 -22 -20 -19 -16 -15 -17 -16 -17 -17 -18 -19 -19 -19 -18 -17 -17 -16 -16 -17 -17 -16 -16 -16 -17 -17 -17 -17 -17 -17 -17 -16 -16 -16 -16 -16 -16 -16 -16 -16 -16 -16
-24 -22 -22 -22 -21 -20 -19 -15 -15 -17 -17 -17 -17 -19 -20 -19 -19 -18 -18 -17 -17 -17 -18 -18 -17 -17 -17 -17 -17 -17 -17 -17 -17 -17 -17 -16 -15 -16 -16 -16 -16 -16 -16 -16 -16
-22 -23 -22 -21 -21 -20 -18 -16 -15 -18 -18 -18 -19 -20 -20 -19 -19 -18 -18 -18 -17 -17 -18 -18 -17 -17 -17 -17 -17 -16 -16 -17 -17 -17 -17 -16 -16 -16 -16 -16 -16 -16 -16 -17 -17

GFSSW_500_temp_030.txt.gz
Temp
-12 -12 -12 -12 -12 -12 -12 -12 -12 -12 -12 -12 -12 -12 -12 -11 -11 -11 -11 -11 -11 -12 -12 -13 -13 -14 -14 -15 -16 -17 -16 -18 -17 -17 -16 -16 -16 -16 -16 -16 -15 -15 -14 -14 -14
-12 -12 -12 -12 -12 -12 -12 -12 -12 -12 -12 -12 -12 -12 -12 -12 -12 -11 -11 -11 -12 -12 -12 -13 -14 -14 -15 -15 -16 -17 -17 -18 -17 -16 -16 -16 -15 -15 -15 -16 -15 -15 -14 -14 -14
-12 -12 -12 -12 -12 -12 -12 -12 -12 -12 -12 -12 -12 -13 -12 -12 -12 -12 -12 -11 -12 -12 -12 -13 -14 -15 -15 -15 -16 -17 -17 -17 -17 -16 -16 -15 -15 -15 -15 -15 -15 -15 -15 -15 -14
-12 -12 -12 -12 -12 -12 -12 -12 -12 -12 -12 -12 -13 -13 -13 -12 -12 -12 -12 -12 -12 -12 -12 -13 -14 -15 -16 -16 -17 -17 -17 -17 -17 -16 -16 -16 -15 -15 -15 -15 -14 -14 -15 -14 -14
-12 -12 -12 -12 -12 -12 -12 -12 -12 -12 -12 -12 -13 -13 -13 -13 -12 -12 -12 -12 -12 -12 -13 -13 -14 -15 -16 -16 -17 -17 -17 -16 -16 -16 -15 -15 -15 -15 -15 -15 -14 -14 -14 -14 -14
-12 -12 -12 -12 -12 -12 -12 -13 -13 -13 -13 -13 -13 -13 -13 -13 -12 -12 -12 -12 -12 -12 -13 -13 -14 -15 -16 -16 -17 -17 -16 -16 -16 -16 -16 -15 -15 -16 -16 -15 -15 -15 -15 -14 -13
-12 -12 -13 -12 -13 -12 -13 -13 -13 -13 -13 -13 -13 -13 -13 -13 -13 -13 -13 -12 -13 -12 -13 -14 -14 -15 -16 -16 -17 -17 -17 -16 -16 -16 -16 -16 -16 -16 -16 -15 -16 -15 -14 -14 -13
-12 -12 -12 -12 -12 -13 -13 -13 -13 -13 -13 -13 -13 -13 -13 -13 -13 -13 -13 -13 -13 -13 -13 -14 -14 -15 -15 -16 -16 -17 -17 -16 -16 -16 -16 -16 -16 -16 -16 -16 -16 -15 -15 -15 -15
-12 -12 -12 -12 -12 -12 -13 -13 -13 -13 -13 -13 -13 -13 -13 -13 -13 -13 -13 -13 -13 -13 -14 -14 -14 -15 -15 -16 -16 -17 -16 -17 -16 -16 -16 -16 -16 -16 -16 -16 -16 -15 -16 -15 -15
-12 -12 -12 -12 -12 -12 -12 -13 -13 -13 -13 -13 -13 -13 -13 -13 -13 -13 -13 -13 -13 -13 -14 -14 -15 -15 -15 -16 -17 -17 -17 -17 -16 -16 -16 -17 -17 -16 -16 -16 -17 -16 -15 -15 -15
-13 -13 -13 -13 -13 -13 -13 -13 -13 -13 -13 -13 -13 -13 -13 -13 -13 -13 -13 -13 -13 -13 -14 -14 -15 -15 -15 -16 -16 -16 -17 -17 -17 -16 -16 -16 -17 -16 -16 -16 -16 -16 -16 -15 -16
-14 -13 -13 -13 -13 -13 -14 -13 -13 -13 -13 -13 -13 -13 -13 -13 -13 -13 -13 -13 -14 -13 -14 -15 -15 -15 -16 -16 -16 -17 -16 -17 -16 -16 -16 -16 -17 -16 -16 -16 -16 -16 -16 -16 -15
-15 -14 -14 -14 -14 -14 -14 -14 -14 -13 -13 -13 -13 -13 -13 -12 -13 -13 -14 -14 -14 -13 -14 -15 -15 -15 -16 -16 -17 -17 -17 -16 -16 -16 -16 -17 -17 -17 -16 -16 -16 -16 -16 -16 -16
-16 -16 -16 -15 -15 -15 -14 -14 -15 -14 -13 -13 -13 -12 -13 -12 -12 -13 -14 -14 -14 -14 -14 -15 -15 -15 -16 -16 -16 -16 -16 -17 -16 -16 -17 -17 -16 -17 -16 -16 -16 -16 -16 -16 -16
-17 -17 -16 -16 -16 -16 -16 -15 -15 -15 -14 -13 -13 -13 -13 -12 -13 -13 -14 -14 -14 -14 -14 -15 -15 -15 -16 -16 -16 -17 -16 -17 -17 -16 -16 -17 -16 -16 -16 -16 -16 -16 -16 -16 -16
-17 -17 -17 -17 -16 -17 -17 -17 -16 -16 -14 -13 -13 -13 -13 -12 -13 -14 -14 -15 -15 -14 -14 -15 -15 -15 -16 -16 -16 -16 -16 -16 -16 -17 -16 -16 -16 -16 -16 -16 -16 -16 -16 -16 -16
-18 -18 -18 -18 -18 -18 -18 -18 -17 -15 -14 -13 -13 -13 -13 -13 -13 -14 -14 -14 -14 -14 -14 -15 -15 -15 -16 -16 -16 -16 -16 -17 -17 -16 -17 -16 -16 -16 -16 -16 -16 -16 -16 -15 -16
-20 -19 -19 -19 -18 -19 -19 -19 -18 -15 -14 -13 -13 -13 -14 -13 -13 -14 -15 -15 -15 -15 -14 -15 -14 -15 -16 -16 -16 -16 -16 -16 -17 -17 -17 -16 -16 -16 -16 -15 -15 -15 -15 -16 -15
-21 -20 -20 -20 -21 -20 -20 -20 -17 -15 -14 -13 -14 -14 -15 -14 -13 -13 -13 -15 -15 -15 -14 -15 -15 -15 -16 -16 -16 -15 -16 -17 -16 -16 -16 -16 -16 -16 -15 -15 -15 -15 -15 -16 -16
-21 -21 -20 -21 -22 -22 -21 -19 -17 -15 -14 -14 -13 -15 -15 -14 -14 -13 -13 -14 -15 -15 -15 -15 -16 -16 -16 -16 -16 -16 -16 -16 -16 -16 -16 -17 -16 -16 -16 -16 -15 -15 -16 -16 -16
-22 -22 -20 -21 -22 -24 -22 -20 -17 -16 -14 -14 -15 -16 -16 -16 -15 -14 -14 -15 -15 -15 -15 -15 -15 -15 -16 -16 -17 -16 -16 -16 -17 -16 -16 -16 -16 -16 -16 -16 -16 -16 -16 -16 -16
-22 -22 -21 -22 -22 -23 -23 -20 -18 -16 -15 -15 -14 -16 -16 -16 -16 -15 -14 -15 -15 -15 -15 -15 -15 -15 -16 -16 -17 -17 -17 -17 -17 -17 -16 -16 -15 -16 -16 -16 -16 -16 -16 -16 -16
-23 -22 -22 -23 -23 -22 -22 -21 -19 -17 -17 -16 -17 -18 -18 -17 -16 -16 -16 -16 -16 -16 -16 -15 -15 -15 -16 -16 -17 -17 -16 -17 -17 -17 -16 -16 -16 -16 -16 -16 -16 -16 -16 -16 -16
-23 -23 -23 -22 -23 -22 -21 -21 -20 -19 -18 -17 -18 -19 -18 -18 -16 -17 -16 -17 -17 -16 -16 -16 -16 -15 -15 -16 -17 -17 -17 -17 -17 -16 -16 -16 -16 -16 -16 -16 -16 -16 -16 -16 -16
-24 -24 -22 -21 -22 -21 -21 -21 -20 -19 -20 -18 -19 -18 -19 -18 -17 -16 -18 -18 -18 -16 -16 -15 -15 -15 -16 -17 -17 -17 -17 -17 -17 -17 -17 -16 -16 -16 -17 -16 -16 -16 -16 -16 -16
-24 -23 -22 -21 -23 -23 -22 -20 -21 -21 -20 -20 -19 -19 -20 -19 -18 -17 -18 -18 -18 -17 -16 -15 -16 -16 -16 -17 -17 -17 -17 -17 -17 -17 -16 -17 -17 -17 -16 -16 -16 -16 -16 -16 -16
-24 -24 -23 -22 -22 -24 -22 -21 -20 -20 -20 -21 -21 -21 -21 -20 -18 -19 -18 -18 -18 -17 -17 -16 -16 -17 -16 -17 -17 -16 -16 -16 -16 -16 -16 -16 -16 -16 -16 -16 -16 -16 -16 -16 -16

GFSSW_500_temp_036.txt.gz
Temp
-11 -11 -11 -11 -11 -11 -11 -11 -12 -12 -11 -12 -12 -12 -12 -12 -12 -12 -12 -12 -12 -12 -11 -11 -11 -11 -11 -11 -13 -14 -14 -15 -15 -16 -15 -16 -15 -14 -14 -13 -14 -13 -16 -14 -13
-11 -11 -11 -11 -11 -12 -12 -12 -12 -12 -12 -12 -12 -12 -12 -12 -12 -12 -12 -12 -12 -12 -12 -11 -11 -11 -11 -11 -13 -15 -15 -15 -16 -15 -14 -14 -14 -15 -14 -14 -14 -14 -15 -14 -13
-11 -11 -11 -11 -11 -11 -12 -12 -12 -12 -12 -12 -12 -12 -12 -12 -12 -12 -12 -12 -12 -12 -12 -12 -12 -11 -11 -12 -14 -15 -16 -16 -16 -14 -14 -14 -14 -14 -13 -14 -13 -14 -14 -14 -13
-11 -11 -11 -12 -12 -12 -11 -12 -12 -12 -12 -12 -12 -12 -12 -12 -12 -12 -12 -12 -12 -12 -12 -12 -12 -12 -11 -13 -14 -15 -15 -15 -15 -14 -14 -14 -14 -14 -14 -14 -14 -14 -14 -14 -13
-12 -12 -11 -12 -12 -12 -12 -12 -11 -12 -12 -12 -12 -12 -12 -12 -13 -12 -12 -12 -12 -12 -12 -12 -12 -12 -11 -14 -14 -14 -15 -15 -15 -15 -15 -14 -14 -14 -15 -14 -15 -14 -14 -13 -13
-12 -12 -12 -12 -12 -12 -12 -12 -11 -11 -12 -12 -12 -12 -12 -12 -12 -12 -12 -13 -12 -12 -12 -13 -12 -12 -12 -12 -13 -14 -14 -14 -15 -16 -15 -14 -14 -14 -14 -14 -15 -15 -15 -13 -13
-13 -12 -12 -12 -12 -12 -12 -12 -12 -12 -12 -12 -12 -12 -12 -13 -12 -12 -13 -13 -13 -12 -12 -13 -12 -12 -12 -12 -13 -13 -14 -14 -16 -15 -15 -14 -14 -14 -13 -14 -14 -14 -14 -13 -13
-13 -13 -13 -13 -13 -12 -12 -12 -12 -12 -12 -12 -12 -12 -12 -12 -12 -12 -12 -12 -13 -13 -12 -13 -13 -12 -12 -12 -13 -13 -14 -15 -15 -15 -14 -14 -13 -14 -13 -14 -14 -13 -14 -13 -13
-14 -13 -13 -13 -13 -13 -13 -12 -12 -13 -12 -12 -12 -12 -12 -12 -12 -12 -12 -12 -12 -13 -12 -12 -13 -13 -12 -12 -14 -14 -15 -15 -15 -15 -15 -14 -14 -14 -14 -15 -14 -14 -14 -14 -14
-14 -14 -13 -13 -13 -13 -13 -13 -13 -12 -12 -12 -12 -12 -12 -12 -12 -13 -12 -12 -12 -12 -12 -13 -13 -13 -12 -12 -13 -16 -15 -15 -15 -15 -15 -15 -14 -14 -14 -15 -15 -14 -13 -13 -14
-14 -14 -13 -13 -13 -13 -13 -13 -13 -12 -12 -12 -12 -13 -12 -12 -12 -12 -13 -12 -12 -12 -13 -12 -13 -13 -12 -13 -13 -16 -15 -15 -15 -14 -15 -15 -14 -15 -14 -16 -16 -14 -14 -14 -14
-14 -14 -14 -14 -13 -13 -13 -13 -13 -13 -12 -12 -12 -12 -12 -12 -12 -12 -12 -13 -12 -13 -13 -12 -13 -13 -13 -13 -14 -15 -15 -15 -15 -14 -14 -15 -15 -15 -14 -15 -15 -14 -14 -14 -14
-14 -14 -14 -14 -14 -14 -14 -14 -13 -13 -12 -13 -13 -12 -13 -12 -12 -12 -12 -13 -12 -12 -13 -13 -13 -13 -13 -13 -14 -14 -14 -15 -16 -15 -14 -15 -15 -15 -15 -14 -15 -14 -14 -14 -14
-14 -14 -14 -14 -15 -14 -15 -15 -14 -13 -12 -12 -13 -12 -13 -12 -12 -13 -12 -13 -12 -12 -13 -13 -14 -14 -14 -13 -14 -14 -15 -16 -16 -15 -15 -15 -15 -14 -14 -15 -14 -14 -14 -14 -14
-13 -14 -13 -13 -14 -15 -15 -15 -14 -15 -14 -13 -13 -11 -13 -12 -13 -13 -13 -13 -12 -13 -13 -13 -14 -14 -14 -14 -14 -15 -15 -16 -16 -16 -16 -15 -15 -15 -15 -15 -15 -14 -15 -15 -15
-14 -14 -13 -13 -14 -16 -16 -15 -17 -17 -12 -13 -13 -13 -13 -13 -13 -13 -13 -13 -13 -13 -14 -14 -14 -14 -14 -14 -15 -16 -15 -16 -16 -16 -15 -14 -15 -15 -14 -15 -15 -15 -15 -15 -15
-17 -16 -15 -15 -16 -17 -17 -17 -18 -14 -13 -13 -13 -13 -14 -13 -13 -13 -13 -13 -12 -12 -12 -13 -14 -14 -14 -14 -15 -16 -16 -16 -16 -16 -14 -15 -14 -15 -14 -14 -15 -15 -15 -14 -15
-20 -19 -19 -18 -18 -19 -18 -19 -18 -11 -13 -15 -16 -15 -14 -14 -14 -13 -13 -13 -13 -13 -14 -14 -14 -14 -14 -14 -16 -15 -15 -16 -15 -15 -15 -14 -15 -15 -15 -14 -15 -15 -15 -15 -14
-20 -20 -20 -20 -20 -21 -20 -20 -16 -13 -15 -17 -16 -18 -17 -15 -15 -14 -13 -12 -13 -14 -13 -14 -14 -16 -15 -15 -15 -16 -15 -15 -16 -15 -15 -15 -14 -15 -15 -15 -15 -15 -15 -15 -15
-20 -20 -20 -20 -21 -21 -21 -20 -17 -15 -16 -17 -19 -18 -18 -16 -16 -14 -14 -13 -13 -14 -15 -15 -16 -16 -16 -15 -15 -15 -16 -15 -16 -16 -15 -15 -15 -15 -15 -16 -15 -15 -15 -15 -15
-20 -20 -20 -20 -21 -21 -20 -19 -19 -17 -18 -19 -19 -18 -19 -19 -17 -16 -14 -14 -14 -14 -15 -15 -16 -16 -16 -16 -15 -15 -15 -15 -15 -16 -16 -15 -15 -15 -15 -16 -16 -15 -15 -15 -15
-20 -20 -20 -21 -20 -20 -20 -19 -19 -19 -19 -19 -21 -20 -18 -19 -18 -16 -16 -15 -16 -15 -15 -15 -16 -16 -16 -16 -16 -16 -16 -16 -16 -15 -16 -16 -15 -14 -15 -15 -16 -15 -15 -15 -15
-21 -20 -20 -21 -21 -20 -20 -20 -20 -19 -19 -19 -21 -21 -20 -18 -18 -16 -16 -16 -17 -17 -15 -16 -16 -16 -16 -16 -16 -16 -15 -16 -16 -16 -16 -16 -15 -15 -15 -15 -15 -15 -15 -15 -15
-21 -22 -21 -21 -20 -21 -20 -20 -20 -20 -20 -20 -21 -21 -21 -19 -18 -17 -16 -17 -17 -16 -16 -17 -16 -15 -15 -16 -16 -16 -16 -17 -16 -16 -15 -16 -15 -15 -16 -16 -15 -16 -16 -16 -15
-22 -22 -21 -20 -20 -19 -20 -20 -20 -20 -20 -21 -21 -21 -21 -20 -19 -18 -17 -16 -17 -16 -17 -17 -15 -15 -16 -17 -17 -16 -16 -16 -17 -15 -15 -16 -15 -15 -16 -16 -15 -16 -16 -16 -16
-23 -22 -21 -21 -21 -21 -21 -21 -20 -20 -20 -20 -21 -20 -20 -20 -20 -18 -17 -17 -17 -16 -16 -17 -16 -16 -16 -17 -17 -17 -16 -16 -17 -16 -16 -16 -17 -17 -16 -16 -16 -16 -16 -16 -16
-24 -24 -23 -22 -22 -22 -21 -20 -21 -21 -21 -21 -21 -21 -21 -20 -21 -19 -19 -18 -17 -17 -17 -17 -15 -17 -16 -18 -17 -17 -16 -17 -17 -16 -16 -17 -17 -17 -17 -17 -16 -17 -16 -16 -16

GFSSW_500_temp_039.txt.gz
Temp
-12 -12 -12 -12 -12 -11 -11 -11 -11 -11 -11 -11 -11 -11 -11 -11 -12 -11 -12 -12 -12 -12 -12 -11 -11 -12 -11 -10 -10 -11 -13 -14 -15 -15 -15 -15 -14 -14 -13 -14 -14 -13 -13 -14 -15
-12 -12 -12 -12 -12 -12 -12 -11 -11 -11 -11 -11 -11 -11 -11 -12 -12 -12 -12 -12 -12 -12 -12 -12 -11 -12 -11 -10 -11 -11 -13 -14 -16 -15 -15 -15 -14 -14 -14 -14 -13 -13 -12 -13 -14
-12 -12 -12 -13 -13 -12 -12 -11 -11 -11 -11 -11 -11 -11 -12 -12 -12 -12 -12 -12 -12 -12 -12 -11 -11 -11 -11 -11 -11 -11 -13 -13 -16 -14 -14 -15 -14 -14 -14 -14 -15 -14 -14 -14 -14
-13 -12 -12 -13 -12 -13 -12 -12 -12 -12 -12 -11 -11 -11 -12 -12 -12 -12 -12 -12 -12 -12 -12 -12 -11 -12 -11 -11 -10 -12 -13 -13 -15 -14 -15 -14 -13 -14 -15 -14 -14 -14 -13 -13 -13
-13 -13 -13 -13 -13 -13 -13 -12 -12 -12 -12 -11 -11 -11 -11 -12 -13 -12 -12 -12 -12 -12 -12 -12 -12 -12 -11 -10 -10 -11 -13 -13 -14 -15 -14 -14 -13 -14 -14 -14 -14 -14 -14 -13 -13
-13 -13 -13 -13 -13 -13 -13 -13 -12 -12 -12 -12 -11 -11 -11 -11 -12 -12 -12 -12 -12 -12 -12 -12 -12 -12 -12 -11 -11 -11 -12 -13 -15 -15 -13 -14 -14 -13 -14 -13 -14 -14 -14 -13 -13
-13 -13 -13 -13 -13 -13 -13 -13 -13 -12 -12 -12 -11 -11 -12 -12 -11 -12 -13 -12 -12 -12 -12 -12 -12 -12 -12 -11 -11 -11 -12 -13 -14 -14 -15 -14 -14 -13 -14 -14 -14 -14 -13 -13 -13
-13 -13 -13 -13 -13 -13 -13 -13 -13 -13 -12 -12 -11 -12 -12 -12 -11 -12 -12 -12 -12 -12 -12 -12 -12 -12 -12 -11 -11 -12 -12 -13 -14 -15 -15 -15 -15 -14 -14 -14 -14 -14 -13 -13 -13
-13 -13 -14 -14 -14 -13 -13 -13 -13 -13 -12 -12 -12 -11 -12 -12 -12 -11 -12 -12 -12 -12 -12 -12 -12 -12 -12 -12 -11 -11 -13 -13 -14 -16 -14 -14 -14 -14 -14 -14 -14 -14 -14 -14 -14
-15 -16 -16 -15 -15 -14 -14 -14 -13 -13 -12 -12 -12 -12 -12 -12 -12 -12 -12 -12 -12 -12 -11 -12 -12 -12 -12 -12 -12 -12 -12 -14 -14 -15 -14 -14 -14 -14 -14 -14 -14 -13 -14 -13 -14
-16 -16 -16 -15 -14 -14 -15 -16 -14 -13 -12 -12 -12 -12 -12 -12 -12 -12 -12 -11 -11 -12 -12 -12 -12 -13 -13 -12 -12 -12 -13 -14 -15 -15 -15 -15 -14 -14 -14 -14 -14 -13 -13 -14 -13
-15 -16 -15 -14 -14 -14 -14 -14 -14 -13 -13 -13 -12 -12 -13 -12 -12 -12 -12 -12 -12 -12 -13 -12 -12 -13 -13 -13 -12 -12 -12 -14 -15 -15 -15 -15 -15 -15 -14 -14 -14 -13 -13 -14 -14
-15 -14 -14 -14 -14 -14 -14 -14 -13 -13 -12 -13 -13 -12 -13 -12 -13 -12 -12 -13 -12 -12 -12 -12 -13 -13 -13 -13 -12 -12 -12 -14 -15 -16 -15 -15 -15 -15 -15 -14 -14 -14 -14 -14 -14
-14 -14 -14 -14 -14 -14 -14 -14 -14 -13 -12 -11 -13 -12 -13 -12 -12 -13 -13 -13 -12 -12 -13 -12 -13 -13 -13 -13 -13 -13 -13 -14 -15 -16 -15 -16 -15 -15 -14 -15 -14 -14 -15 -14 -14
-14 -14 -14 -14 -14 -15 -14 -15 -14 -14 -13 -13 -12 -12 -13 -12 -13 -14 -14 -13 -13 -13 -13 -12 -13 -13 -13 -13 -13 -14 -14 -14 -14 -15 -15 -15 -15 -15 -15 -14 -14 -14 -15 -15 -15
-15 -14 -13 -14 -15 -15 -15 -15 -14 -14 -11 -12 -12 -12 -12 -13 -13 -13 -13 -13 -13 -13 -13 -12 -13 -13 -13 -13 -13 -14 -14 -15 -15 -15 -15 -15 -16 -15 -15 -15 -15 -14 -14 -15 -14
-16 -16 -14 -14 -17 -15 -16 -15 -16 -13 -12 -12 -13 -12 -13 -13 -13 -13 -13 -13 -12 -13 -12 -12 -13 -13 -14 -14 -14 -14 -14 -15 -15 -15 -14 -16 -16 -15 -15 -15 -15 -15 -14 -15 -15
-19 -19 -17 -16 -17 -17 -17 -16 -15 -12 -12 -14 -14 -14 -13 -15 -14 -14 -13 -13 -12 -13 -13 -13 -13 -13 -13 -13 -14 -14 -14 -14 -15 -15 -15 -15 -15 -15 -15 -15 -15 -15 -15 -14 -14
-21 -21 -20 -21 -20 -20 -19 -18 -13 -12 -12 -15 -18 -16 -14 -14 -15 -15 -14 -13 -13 -13 -13 -14 -13 -14 -15 -15 -15 -15 -14 -15 -16 -16 -15 -15 -15 -15 -15 -15 -15 -15 -15 -15 -15
-21 -21 -21 -21 -21 -21 -21 -18 -14 -15 -16 -17 -19 -18 -18 -18 -17 -16 -15 -14 -14 -13 -14 -13 -14 -15 -15 -16 -15 -16 -15 -15 -16 -16 -15 -14 -15 -15 -15 -15 -16 -15 -15 -14 -14
-22 -21 -21 -22 -21 -21 -20 -18 -19 -18 -18 -19 -18 -19 -19 -17 -17 -17 -16 -15 -15 -14 -14 -15 -15 -15 -16 -15 -16 -15 -15 -16 -15 -15 -15 -14 -14 -15 -15 -15 -15 -15 -15 -15 -15
-22 -21 -21 -22 -21 -20 -19 -19 -19 -19 -19 -19 -20 -20 -20 -19 -19 -18 -17 -15 -17 -18 -16 -15 -16 -16 -15 -16 -16 -15 -15 -16 -15 -15 -16 -16 -14 -15 -15 -15 -15 -15 -15 -15 -15
-22 -22 -22 -21 -21 -20 -19 -19 -19 -19 -19 -19 -20 -19 -21 -20 -19 -18 -17 -17 -17 -17 -15 -17 -15 -16 -16 -15 -16 -16 -15 -15 -16 -16 -15 -16 -14 -15 -16 -16 -16 -16 -16 -16 -15
-23 -22 -21 -20 -20 -20 -19 -19 -20 -20 -20 -19 -20 -20 -20 -21 -21 -20 -18 -18 -18 -18 -16 -17 -16 -15 -12 -14 -15 -16 -15 -15 -16 -15 -15 -15 -14 -15 -16 -16 -16 -15 -15 -16 -15
-23 -22 -21 -20 -19 -19 -20 -19 -19 -19 -20 -20 -20 -20 -20 -20 -21 -20 -20 -18 -17 -17 -17 -17 -17 -15 -15 -16 -16 -16 -16 -16 -15 -15 -16 -15 -16 -15 -16 -16 -15 -16 -16 -16 -16
-22 -21 -21 -20 -20 -20 -20 -20 -19 -20 -20 -20 -20 -20 -21 -20 -20 -20 -20 -18 -17 -17 -17 -17 -16 -16 -15 -17 -17 -17 -16 -16 -16 -16 -16 -16 -15 -16 -15 -16 -16 -16 -16 -16 -15
-22 -22 -21 -20 -21 -21 -20 -19 -19 -20 -20 -21 -20 -21 -20 -20 -21 -21 -21 -19 -18 -17 -17 -17 -17 -17 -15 -17 -17 -17 -14 -16 -16 -16 -16 -16 -15 -15 -16 -16 -17 -16 -16 -16 -16

GFSSW_500_temp_042.txt.gz
Temp
-13 -12 -12 -12 -12 -12 -11 -11 -11 -11 -11 -11 -10 -11 -11 -11 -11 -11 -12 -12 -12 -12 -12 -12 -12 -12 -11 -11 -10 -11 -13 -13 -13 -14 -14 -14 -14 -13 -13 -14 -14 -14 -13 -13 -14
-13 -13 -12 -12 -12 -12 -12 -12 -12 -12 -11 -11 -11 -11 -11 -11 -11 -11 -12 -12 -12 -12 -12 -12 -12 -12 -11 -11 -10 -12 -13 -13 -13 -13 -14 -14 -13 -14 -13 -13 -14 -13 -13 -13 -13
-13 -13 -13 -13 -13 -12 -12 -12 -12 -12 -12 -11 -11 -11 -11 -11 -11 -11 -12 -12 -12 -12 -12 -12 -12 -12 -12 -11 -11 -11 -12 -13 -13 -12 -14 -13 -14 -14 -13 -13 -13 -14 -14 -13 -13
-13 -14 -13 -13 -13 -13 -12 -12 -12 -12 -12 -11 -11 -11 -11 -11 -11 -11 -12 -12 -12 -12 -12 -12 -12 -12 -12 -11 -10 -11 -12 -12 -12 -13 -14 -14 -14 -13 -13 -13 -13 -14 -14 -12 -13
-13 -13 -13 -13 -13 -13 -13 -13 -12 -12 -12 -11 -11 -11 -11 -11 -12 -11 -11 -12 -13 -13 -12 -12 -12 -12 -12 -11 -10 -11 -11 -12 -13 -14 -14 -14 -13 -14 -14 -14 -13 -14 -13 -13 -12
-14 -14 -13 -14 -13 -13 -13 -12 -12 -13 -13 -12 -11 -11 -11 -12 -12 -11 -11 -12 -12 -13 -12 -12 -12 -12 -12 -12 -11 -10 -12 -12 -12 -13 -14 -14 -13 -14 -14 -13 -13 -13 -13 -13 -12
-14 -14 -13 -14 -14 -13 -14 -13 -13 -13 -13 -12 -12 -11 -11 -12 -12 -11 -12 -12 -12 -12 -12 -12 -12 -12 -12 -11 -11 -10 -11 -13 -14 -14 -14 -13 -13 -14 -14 -13 -13 -13 -13 -13 -12
-14 -14 -14 -13 -14 -13 -13 -14 -13 -12 -13 -12 -12 -11 -12 -12 -12 -12 -11 -11 -12 -12 -12 -12 -12 -12 -12 -12 -11 -11 -12 -13 -14 -14 -13 -14 -15 -14 -14 -14 -14 -14 -13 -13 -13
-13 -14 -14 -14 -14 -14 -13 -13 -14 -12 -12 -12 -12 -12 -12 -12 -12 -12 -11 -12 -12 -12 -12 -12 -12 -12 -12 -12 -12 -11 -12 -13 -14 -13 -14 -14 -15 -15 -14 -14 -15 -15 -13 -13 -13
-14 -14 -14 -14 -14 -14 -14 -14 -13 -13 -12 -12 -12 -12 -13 -12 -12 -12 -12 -12 -12 -12 -11 -12 -12 -12 -13 -12 -12 -12 -13 -13 -13 -13 -14 -15 -14 -15 -14 -14 -14 -14 -13 -13 -14
-16 -16 -15 -15 -16 -16 -16 -15 -14 -12 -12 -12 -11 -12 -13 -12 -12 -13 -12 -12 -11 -11 -12 -12 -12 -12 -13 -13 -12 -12 -12 -13 -13 -14 -15 -15 -14 -14 -14 -14 -14 -14 -14 -14 -14
-16 -16 -17 -17 -17 -17 -17 -16 -16 -13 -13 -13 -12 -13 -13 -12 -12 -12 -12 -12 -11 -12 -12 -12 -12 -13 -13 -13 -12 -12 -12 -13 -13 -15 -15 -15 -14 -14 -14 -14 -15 -15 -14 -14 -14
-15 -15 -15 -15 -16 -16 -17 -17 -16 -14 -13 -13 -13 -13 -13 -12 -12 -12 -12 -13 -12 -12 -12 -12 -14 -12 -12 -12 -13 -12 -12 -13 -13 -15 -15 -15 -15 -15 -14 -14 -14 -15 -14 -13 -14
-15 -15 -15 -15 -15 -15 -15 -15 -16 -14 -14 -13 -14 -12 -13 -13 -12 -13 -12 -13 -12 -12 -13 -12 -14 -12 -12 -13 -13 -13 -13 -13 -13 -13 -14 -15 -14 -14 -15 -14 -14 -15 -14 -14 -14
-16 -15 -15 -15 -15 -15 -15 -14 -14 -14 -13 -13 -12 -12 -13 -12 -13 -13 -13 -13 -13 -13 -13 -12 -14 -14 -13 -13 -13 -13 -13 -13 -13 -13 -13 -14 -14 -14 -15 -14 -15 -15 -14 -15 -14
-16 -15 -14 -16 -16 -14 -15 -15 -14 -14 -12 -13 -12 -12 -12 -13 -13 -13 -13 -13 -13 -13 -12 -12 -13 -13 -13 -14 -14 -14 -13 -14 -14 -13 -12 -14 -14 -14 -15 -15 -14 -15 -15 -15 -15
-16 -16 -15 -16 -16 -14 -16 -15 -14 -13 -12 -13 -13 -13 -13 -13 -13 -13 -13 -13 -12 -12 -12 -13 -13 -13 -13 -13 -13 -14 -13 -14 -14 -13 -12 -14 -14 -12 -15 -15 -14 -14 -15 -14 -15
-18 -17 -16 -18 -16 -16 -16 -15 -13 -12 -13 -14 -14 -13 -13 -13 -13 -14 -14 -13 -13 -12 -12 -13 -13 -14 -13 -13 -14 -14 -14 -14 -13 -13 -14 -14 -12 -13 -14 -15 -15 -14 -14 -15 -14
-20 -19 -18 -21 -18 -17 -16 -14 -12 -12 -13 -16 -16 -14 -14 -15 -15 -14 -14 -14 -13 -13 -13 -13 -12 -14 -14 -15 -15 -14 -14 -14 -15 -14 -14 -14 -13 -14 -14 -14 -14 -14 -15 -15 -14
-22 -21 -21 -22 -21 -20 -18 -13 -13 -14 -17 -17 -18 -16 -16 -15 -16 -16 -15 -14 -14 -14 -14 -13 -13 -14 -15 -15 -14 -14 -15 -15 -15 -14 -13 -12 -13 -13 -14 -14 -15 -14 -14 -14 -14
-24 -23 -22 -23 -22 -22 -17 -16 -17 -18 -18 -18 -18 -18 -18 -18 -17 -16 -16 -15 -14 -15 -14 -14 -14 -14 -15 -14 -15 -14 -15 -15 -15 -15 -14 -13 -13 -14 -14 -15 -15 -15 -15 -15 -15
-24 -23 -22 -23 -22 -21 -19 -19 -19 -20 -20 -21 -19 -20 -19 -20 -20 -18 -18 -17 -15 -15 -15 -14 -14 -13 -14 -14 -15 -15 -14 -15 -14 -14 -14 -14 -13 -14 -14 -14 -14 -15 -15 -15 -16
-23 -23 -22 -23 -21 -20 -20 -20 -20 -20 -20 -21 -20 -20 -20 -21 -20 -19 -18 -17 -18 -17 -16 -16 -15 -13 -14 -14 -14 -14 -15 -15 -16 -15 -14 -14 -13 -14 -15 -14 -15 -15 -15 -15 -15
-23 -23 -22 -21 -21 -20 -20 -20 -20 -20 -20 -20 -20 -20 -20 -20 -20 -19 -19 -18 -17 -18 -18 -18 -17 -15 -13 -14 -16 -15 -15 -15 -15 -15 -14 -13 -14 -14 -15 -15 -15 -15 -15 -16 -15
-23 -22 -21 -20 -20 -21 -20 -20 -20 -19 -19 -20 -19 -20 -20 -20 -20 -19 -20 -19 -19 -18 -18 -18 -17 -17 -14 -14 -16 -16 -16 -16 -15 -15 -15 -14 -14 -14 -15 -16 -16 -16 -16 -16 -16
-22 -22 -21 -21 -20 -21 -21 -20 -20 -20 -20 -20 -20 -20 -20 -20 -20 -20 -20 -20 -20 -19 -18 -18 -18 -17 -16 -15 -16 -16 -16 -15 -16 -15 -15 -15 -15 -15 -15 -16 -16 -16 -16 -16 -16
-22 -22 -22 -21 -21 -21 -19 -19 -20 -21 -20 -20 -20 -20 -20 -20 -21 -21 -21 -20 -20 -20 -20 -19 -19 -17 -17 -17 -17 -17 -12 -15 -16 -16 -16 -16 -15 -15 -15 -15 -16 -16 -16 -16 -15

GFSSW_500_temp_045.txt.gz
Temp
-14 -14 -13 -13 -12 -12 -12 -11 -11 -11 -11 -11 -11 -11 -11 -11 -11 -12 -11 -11 -12 -12 -12 -12 -12 -12 -12 -11 -11 -10 -10 -11 -12 -12 -13 -13 -13 -13 -14 -14 -13 -13 -14 -14 -14
-15 -14 -14 -14 -13 -13 -12 -12 -12 -11 -11 -11 -11 -11 -11 -12 -11 -12 -12 -12 -12 -12 -12 -12 -12 -12 -12 -11 -10 -10 -10 -12 -12 -12 -13 -13 -13 -13 -14 -14 -13 -14 -13 -13 -13
-15 -15 -14 -14 -14 -13 -13 -12 -12 -11 -11 -11 -11 -11 -11 -12 -12 -12 -12 -12 -12 -12 -12 -12 -12 -13 -12 -11 -11 -10 -11 -11 -11 -12 -13 -12 -14 -13 -13 -13 -13 -14 -14 -13 -13
-14 -16 -14 -14 -15 -14 -14 -13 -12 -12 -12 -12 -11 -11 -11 -12 -12 -12 -12 -12 -12 -12 -12 -13 -13 -13 -12 -11 -11 -11 -11 -11 -12 -12 -13 -13 -13 -13 -13 -13 -13 -13 -13 -13 -13
-14 -14 -15 -14 -15 -14 -14 -13 -13 -13 -12 -12 -12 -11 -11 -11 -12 -12 -12 -12 -12 -12 -12 -13 -13 -13 -12 -12 -11 -11 -11 -11 -12 -12 -13 -13 -13 -13 -13 -13 -13 -13 -13 -13 -12
-14 -14 -14 -14 -14 -14 -14 -13 -14 -13 -12 -12 -12 -12 -12 -12 -12 -12 -11 -12 -12 -12 -12 -13 -12 -13 -13 -12 -11 -11 -12 -11 -12 -13 -14 -14 -13 -13 -13 -13 -12 -13 -13 -12 -12
-14 -14 -14 -14 -14 -14 -14 -14 -14 -13 -13 -12 -12 -12 -12 -12 -12 -12 -12 -12 -12 -13 -12 -12 -12 -13 -13 -12 -11 -11 -12 -11 -12 -13 -14 -14 -14 -13 -13 -13 -12 -13 -13 -12 -12
-14 -14 -14 -14 -14 -14 -14 -14 -14 -13 -13 -12 -12 -12 -12 -12 -12 -12 -12 -12 -12 -12 -12 -12 -12 -12 -13 -13 -12 -12 -12 -12 -12 -13 -14 -14 -14 -13 -14 -13 -12 -12 -13 -13 -12
-15 -15 -14 -14 -14 -14 -14 -14 -14 -13 -13 -12 -12 -12 -12 -12 -12 -12 -12 -12 -12 -12 -13 -12 -12 -12 -12 -13 -12 -12 -12 -12 -12 -13 -14 -15 -15 -14 -14 -14 -13 -13 -13 -13 -13
-17 -16 -16 -16 -14 -14 -14 -14 -14 -14 -13 -12 -12 -13 -13 -12 -12 -12 -12 -13 -12 -12 -12 -11 -12 -12 -12 -13 -13 -13 -12 -12 -13 -13 -14 -14 -15 -15 -14 -14 -13 -13 -13 -13 -14
-17 -19 -18 -17 -16 -14 -14 -14 -13 -13 -13 -13 -13 -13 -13 -12 -12 -12 -12 -12 -12 -12 -12 -12 -12 -12 -14 -13 -13 -12 -12 -12 -13 -14 -14 -14 -15 -15 -14 -14 -14 -13 -13 -13 -13
-17 -17 -18 -17 -17 -16 -16 -14 -14 -12 -13 -13 -13 -13 -14 -12 -12 -13 -13 -12 -12 -12 -12 -13 -12 -13 -14 -13 -12 -12 -12 -12 -13 -14 -14 -14 -15 -15 -14 -14 -14 -14 -13 -13 -14
-15 -16 -17 -16 -16 -17 -17 -16 -15 -14 -13 -15 -14 -14 -15 -12 -13 -13 -13 -13 -13 -12 -12 -12 -13 -14 -13 -13 -13 -12 -12 -13 -13 -13 -13 -13 -15 -15 -14 -15 -14 -14 -14 -14 -14
-16 -16 -15 -16 -16 -16 -16 -16 -16 -15 -14 -14 -15 -14 -14 -13 -12 -14 -13 -13 -12 -12 -12 -12 -13 -13 -13 -13 -13 -13 -13 -13 -13 -13 -12 -13 -13 -15 -16 -14 -14 -14 -14 -14 -14
-16 -15 -16 -15 -16 -16 -16 -15 -15 -15 -14 -14 -15 -14 -13 -13 -14 -14 -13 -13 -13 -13 -13 -12 -13 -13 -14 -14 -14 -14 -13 -13 -13 -13 -12 -12 -13 -13 -15 -15 -15 -14 -14 -15 -14
-16 -15 -15 -17 -16 -15 -16 -15 -15 -15 -14 -14 -14 -13 -13 -13 -14 -14 -13 -13 -13 -13 -13 -13 -14 -14 -14 -14 -14 -14 -14 -13 -13 -12 -12 -12 -13 -12 -13 -15 -14 -15 -15 -15 -15
-17 -17 -16 -16 -17 -15 -16 -15 -15 -14 -14 -14 -14 -14 -14 -14 -13 -14 -13 -13 -13 -12 -12 -13 -13 -13 -14 -14 -14 -13 -13 -13 -13 -12 -11 -13 -13 -12 -13 -14 -14 -14 -15 -15 -14
-19 -18 -17 -18 -16 -16 -17 -16 -15 -14 -14 -15 -14 -14 -14 -14 -14 -14 -14 -13 -13 -13 -13 -13 -13 -14 -14 -14 -14 -14 -14 -14 -13 -13 -13 -13 -12 -12 -13 -13 -13 -14 -14 -14 -14
-21 -20 -18 -21 -17 -17 -17 -15 -13 -14 -14 -15 -15 -15 -15 -14 -15 -14 -14 -14 -14 -14 -13 -13 -13 -14 -14 -14 -14 -14 -14 -14 -14 -14 -13 -12 -12 -12 -13 -13 -13 -14 -14 -14 -14
-22 -21 -20 -22 -19 -19 -17 -14 -14 -15 -16 -17 -17 -16 -17 -16 -15 -15 -15 -14 -14 -14 -14 -14 -13 -14 -14 -14 -14 -14 -15 -15 -15 -14 -13 -12 -12 -12 -13 -13 -14 -14 -14 -14 -14
-25 -24 -22 -24 -22 -20 -16 -15 -16 -17 -18 -19 -19 -18 -17 -17 -17 -16 -16 -15 -15 -14 -14 -13 -13 -13 -15 -14 -15 -15 -14 -15 -15 -14 -14 -12 -11 -12 -13 -14 -14 -14 -14 -14 -14
-25 -25 -23 -25 -24 -22 -18 -18 -20 -19 -20 -20 -20 -19 -19 -18 -18 -18 -17 -17 -16 -15 -15 -14 -13 -13 -14 -15 -15 -15 -15 -16 -15 -14 -14 -13 -11 -12 -14 -14 -14 -15 -14 -14 -14
-25 -25 -25 -25 -23 -22 -22 -22 -21 -21 -21 -21 -21 -20 -19 -20 -19 -19 -20 -19 -18 -17 -16 -15 -14 -13 -14 -15 -15 -14 -14 -15 -15 -15 -13 -14 -11 -13 -14 -14 -14 -14 -14 -15 -15
-25 -25 -25 -24 -23 -23 -23 -22 -22 -22 -22 -22 -21 -22 -21 -20 -21 -20 -21 -20 -20 -19 -18 -17 -16 -15 -13 -15 -15 -14 -15 -16 -16 -14 -14 -13 -13 -13 -13 -14 -14 -14 -14 -14 -15
-24 -23 -23 -22 -22 -22 -22 -22 -22 -22 -22 -22 -21 -21 -20 -20 -20 -21 -21 -20 -19 -19 -19 -18 -17 -17 -15 -15 -16 -15 -14 -15 -13 -13 -14 -14 -14 -14 -14 -14 -15 -14 -15 -14 -15
-24 -23 -23 -23 -22 -22 -22 -22 -22 -22 -22 -22 -21 -22 -21 -20 -20 -21 -21 -21 -20 -19 -18 -18 -19 -18 -17 -17 -17 -16 -15 -14 -15 -15 -14 -15 -14 -15 -15 -15 -15 -15 -15 -15 -14
-23 -23 -23 -23 -22 -22 -21 -22 -22 -22 -22 -21 -21 -22 -21 -21 -21 -20 -20 -20 -21 -20 -19 -19 -19 -19 -18 -18 -19 -16 -16 -17 -17 -16 -15 -15 -16 -16 -15 -15 -16 -15 -15 -14 -15

GFSSW_500_temp_048.txt.gz
Temp
-13 -13 -14 -14 -13 -14 -13 -13 -13 -12 -12 -12 -12 -11 -11 -11 -11 -11 -11 -12 -12 -12 -12 -12 -12 -12 -12 -12 -12 -11 -11 -10 -11 -11 -12 -13 -13 -12 -13 -13 -13 -14 -14 -14 -14
-13 -14 -14 -14 -14 -14 -14 -14 -13 -13 -13 -12 -12 -12 -11 -11 -11 -11 -11 -12 -12 -12 -12 -12 -12 -12 -12 -12 -12 -11 -11 -10 -11 -11 -13 -13 -13 -13 -13 -13 -13 -13 -14 -14 -14
-14 -14 -14 -14 -14 -14 -15 -14 -14 -13 -13 -12 -12 -12 -11 -11 -11 -12 -11 -12 -12 -12 -12 -12 -12 -12 -12 -12 -12 -12 -11 -10 -11 -11 -12 -13 -13 -12 -13 -13 -13 -13 -13 -14 -13
-14 -14 -14 -15 -15 -15 -15 -15 -15 -14 -14 -13 -12 -12 -12 -12 -12 -12 -12 -12 -12 -12 -13 -13 -13 -12 -12 -12 -12 -12 -11 -11 -11 -11 -13 -12 -12 -12 -13 -14 -13 -12 -13 -13 -13
-14 -14 -14 -14 -15 -14 -14 -15 -14 -14 -14 -14 -13 -13 -12 -12 -12 -11 -12 -12 -12 -12 -12 -13 -13 -12 -13 -12 -12 -12 -12 -11 -11 -12 -13 -13 -12 -13 -13 -13 -13 -12 -13 -13 -12
-15 -14 -14 -14 -14 -14 -14 -14 -14 -14 -14 -14 -13 -13 -12 -13 -12 -12 -12 -12 -13 -12 -12 -13 -13 -12 -12 -13 -12 -12 -12 -12 -11 -12 -13 -13 -13 -13 -13 -13 -13 -13 -12 -12 -12
-16 -15 -14 -14 -14 -15 -14 -14 -14 -14 -13 -14 -13 -13 -13 -13 -12 -12 -12 -12 -13 -12 -12 -13 -13 -13 -12 -13 -12 -12 -12 -12 -11 -12 -13 -13 -13 -13 -14 -14 -13 -13 -13 -13 -13
-16 -17 -16 -16 -15 -14 -14 -14 -14 -14 -14 -14 -14 -13 -13 -14 -12 -12 -12 -12 -12 -13 -12 -12 -13 -13 -13 -13 -13 -12 -12 -12 -12 -11 -12 -13 -13 -13 -13 -13 -13 -13 -13 -13 -14
-16 -17 -17 -17 -15 -14 -14 -14 -14 -14 -14 -14 -14 -13 -13 -14 -13 -12 -12 -12 -12 -12 -12 -12 -12 -13 -13 -13 -12 -12 -13 -12 -12 -12 -12 -12 -13 -14 -14 -13 -14 -13 -13 -13 -13
-16 -16 -17 -16 -17 -15 -14 -14 -13 -14 -14 -14 -14 -14 -14 -14 -14 -13 -13 -13 -13 -12 -12 -12 -12 -13 -13 -13 -13 -13 -12 -12 -12 -13 -12 -12 -14 -15 -14 -14 -14 -13 -13 -13 -13
-16 -16 -17 -17 -16 -17 -16 -14 -13 -13 -14 -14 -14 -14 -14 -14 -14 -14 -13 -13 -13 -12 -12 -12 -12 -12 -14 -14 -13 -12 -12 -12 -12 -13 -11 -13 -13 -13 -14 -14 -14 -14 -13 -13 -13
-16 -16 -16 -16 -17 -16 -17 -17 -15 -14 -14 -14 -14 -14 -14 -14 -13 -14 -14 -13 -13 -13 -12 -12 -11 -13 -14 -14 -13 -13 -12 -12 -13 -13 -12 -12 -12 -13 -14 -15 -14 -15 -14 -13 -13
-16 -16 -16 -16 -16 -17 -16 -17 -17 -16 -14 -16 -15 -15 -14 -14 -14 -14 -14 -13 -14 -13 -13 -13 -12 -13 -14 -14 -14 -13 -12 -13 -13 -13 -12 -12 -11 -13 -13 -14 -15 -15 -14 -14 -13
-16 -15 -15 -16 -16 -16 -16 -16 -16 -16 -15 -16 -16 -16 -15 -14 -13 -15 -14 -14 -13 -13 -13 -13 -13 -13 -13 -13 -13 -13 -14 -14 -14 -13 -13 -13 -11 -13 -13 -14 -15 -15 -14 -14 -14
-16 -16 -16 -16 -16 -16 -16 -16 -15 -16 -15 -15 -15 -16 -16 -16 -15 -16 -16 -15 -13 -14 -13 -12 -13 -13 -13 -14 -14 -14 -15 -14 -14 -13 -13 -12 -12 -12 -13 -14 -14 -14 -15 -14 -14
-17 -16 -16 -16 -16 -15 -16 -16 -15 -15 -15 -15 -15 -15 -16 -15 -15 -16 -16 -15 -14 -15 -14 -14 -14 -14 -13 -14 -14 -14 -14 -13 -14 -14 -13 -13 -14 -12 -13 -13 -14 -14 -15 -14 -14
-17 -17 -16 -17 -17 -16 -16 -16 -15 -15 -15 -15 -15 -15 -15 -15 -15 -15 -15 -15 -15 -15 -14 -13 -14 -14 -13 -14 -14 -14 -14 -14 -14 -13 -12 -13 -14 -12 -13 -13 -14 -14 -14 -15 -14
-18 -17 -17 -18 -18 -17 -17 -15 -15 -14 -15 -16 -15 -15 -15 -15 -15 -15 -14 -14 -14 -14 -14 -14 -14 -14 -14 -14 -14 -14 -14 -14 -14 -14 -14 -13 -13 -13 -13 -13 -13 -13 -14 -15 -14
-19 -19 -18 -19 -19 -17 -18 -16 -14 -15 -15 -16 -16 -17 -16 -15 -15 -15 -16 -15 -15 -14 -14 -14 -14 -14 -14 -15 -15 -15 -14 -15 -14 -14 -14 -13 -13 -13 -13 -14 -14 -13 -13 -14 -14
-20 -20 -19 -22 -21 -20 -18 -16 -16 -15 -16 -17 -17 -17 -17 -16 -16 -16 -15 -15 -15 -15 -15 -14 -14 -15 -15 -15 -15 -15 -15 -15 -14 -14 -13 -13 -13 -12 -13 -14 -14 -14 -14 -14 -14
-22 -22 -22 -23 -23 -22 -19 -18 -17 -17 -18 -20 -18 -19 -19 -18 -17 -17 -16 -15 -15 -15 -14 -14 -14 -14 -15 -14 -15 -15 -15 -15 -15 -14 -13 -12 -12 -12 -13 -14 -15 -14 -14 -14 -14
-24 -24 -23 -25 -25 -23 -21 -20 -21 -21 -20 -20 -20 -20 -20 -19 -19 -18 -18 -17 -16 -15 -15 -14 -14 -14 -14 -15 -15 -15 -15 -15 -15 -14 -13 -12 -12 -13 -14 -15 -16 -16 -15 -15 -14
-25 -24 -24 -26 -25 -25 -23 -23 -24 -23 -23 -22 -21 -20 -21 -21 -20 -19 -19 -18 -17 -16 -16 -15 -15 -15 -15 -16 -15 -15 -15 -14 -14 -14 -13 -13 -12 -13 -14 -14 -15 -16 -15 -15 -15
-26 -25 -25 -26 -25 -25 -25 -24 -24 -24 -24 -23 -22 -22 -21 -21 -21 -21 -21 -19 -19 -18 -17 -17 -16 -16 -15 -16 -16 -15 -15 -15 -15 -14 -13 -12 -12 -14 -14 -14 -15 -16 -16 -15 -16
-25 -25 -25 -25 -25 -25 -25 -24 -24 -24 -24 -23 -23 -22 -22 -22 -21 -22 -21 -21 -20 -19 -18 -18 -17 -17 -17 -16 -16 -16 -16 -16 -15 -15 -14 -13 -12 -13 -13 -14 -15 -16 -16 -16 -15
-25 -25 -25 -25 -25 -25 -25 -24 -24 -24 -24 -23 -23 -23 -23 -22 -22 -22 -22 -21 -20 -21 -20 -19 -19 -19 -18 -18 -17 -16 -16 -16 -16 -16 -14 -13 -12 -14 -14 -14 -14 -14 -15 -15 -16
-25 -25 -25 -25 -24 -25 -24 -24 -24 -24 -23 -23 -23 -24 -23 -23 -22 -22 -21 -21 -21 -21 -21 -20 -20 -20 -19 -19 -19 -17 -17 -17 -17 -17 -16 -14 -13 -13 -14 -14 -14 -14 -15 -16 -16

GFSSW_500_temp_051.txt.gz
Temp
-10 -11 -11 -12 -12 -13 -13 -14 -14 -13 -13 -13 -13 -13 -12 -13 -12 -12 -12 -12 -12 -12 -12 -12 -12 -12 -12 -12 -12 -12 -12 -12 -11 -11 -12 -12 -11 -12 -13 -13 -12 -12 -12 -13 -13
-12 -12 -12 -13 -13 -14 -14 -14 -14 -14 -14 -14 -13 -13 -13 -13 -13 -12 -12 -12 -12 -12 -12 -12 -12 -12 -12 -12 -12 -12 -12 -12 -11 -11 -12 -12 -11 -12 -13 -12 -12 -12 -12 -13 -13
-13 -13 -13 -13 -14 -14 -14 -14 -15 -15 -14 -14 -14 -14 -14 -13 -13 -13 -12 -12 -12 -12 -12 -12 -12 -12 -12 -13 -12 -12 -12 -12 -12 -11 -12 -12 -12 -13 -13 -13 -12 -12 -12 -12 -12
-13 -13 -13 -14 -13 -13 -14 -14 -14 -15 -14 -15 -14 -14 -14 -14 -14 -13 -13 -13 -12 -12 -12 -12 -12 -12 -13 -12 -12 -12 -12 -12 -12 -11 -12 -12 -13 -13 -13 -13 -12 -12 -12 -12 -12
-14 -14 -15 -14 -14 -14 -13 -14 -14 -15 -15 -15 -15 -14 -14 -15 -15 -13 -13 -13 -12 -12 -12 -12 -12 -12 -12 -12 -12 -12 -12 -12 -12 -12 -12 -11 -12 -13 -13 -13 -13 -12 -12 -12 -12
-15 -15 -15 -15 -15 -14 -14 -14 -14 -14 -14 -14 -15 -15 -14 -14 -14 -14 -14 -13 -13 -12 -12 -12 -12 -12 -12 -13 -12 -12 -12 -12 -12 -12 -12 -12 -12 -13 -13 -13 -13 -13 -12 -12 -12
-15 -15 -16 -15 -15 -16 -15 -14 -14 -14 -14 -14 -15 -14 -14 -14 -14 -14 -14 -13 -13 -13 -12 -13 -12 -12 -12 -13 -13 -12 -12 -12 -13 -12 -12 -12 -13 -13 -13 -13 -13 -13 -12 -13 -13
-15 -16 -16 -16 -16 -16 -16 -15 -15 -15 -14 -14 -14 -14 -14 -14 -14 -14 -14 -14 -13 -13 -13 -12 -12 -12 -12 -13 -13 -12 -12 -12 -12 -12 -12 -12 -13 -13 -13 -14 -13 -13 -13 -13 -13
-16 -16 -16 -16 -15 -16 -17 -16 -15 -15 -14 -14 -14 -14 -14 -14 -14 -14 -14 -14 -13 -13 -12 -12 -12 -12 -12 -13 -13 -13 -13 -12 -12 -12 -12 -12 -14 -14 -14 -14 -14 -13 -13 -13 -13
-16 -16 -16 -16 -16 -16 -16 -17 -16 -15 -14 -14 -14 -14 -15 -14 -14 -14 -14 -14 -14 -14 -13 -13 -12 -12 -12 -12 -13 -14 -13 -12 -12 -12 -12 -12 -13 -13 -14 -15 -14 -13 -14 -13 -13
-17 -16 -16 -16 -16 -15 -15 -16 -16 -16 -15 -15 -14 -14 -14 -14 -14 -14 -14 -14 -14 -14 -13 -13 -12 -12 -13 -14 -14 -13 -13 -12 -13 -13 -12 -12 -13 -14 -14 -15 -15 -14 -14 -14 -14
-17 -17 -16 -16 -16 -15 -15 -15 -16 -16 -16 -15 -15 -14 -14 -14 -14 -14 -14 -14 -14 -14 -14 -13 -12 -13 -13 -14 -14 -13 -13 -13 -13 -13 -13 -12 -12 -13 -13 -15 -15 -15 -14 -14 -14
-17 -17 -17 -16 -16 -15 -15 -15 -15 -16 -16 -18 -16 -15 -15 -13 -14 -14 -14 -14 -14 -14 -14 -14 -13 -13 -14 -14 -14 -13 -13 -13 -14 -14 -13 -12 -12 -13 -13 -14 -15 -14 -14 -14 -14
-18 -17 -17 -17 -16 -16 -15 -15 -15 -15 -16 -16 -17 -17 -15 -14 -14 -15 -14 -14 -13 -14 -14 -14 -14 -13 -14 -14 -14 -13 -13 -14 -13 -14 -13 -13 -11 -13 -13 -14 -15 -15 -14 -14 -14
-18 -18 -17 -17 -17 -16 -16 -15 -15 -16 -16 -16 -16 -16 -16 -16 -15 -15 -15 -14 -13 -14 -14 -14 -14 -13 -13 -14 -14 -14 -14 -14 -13 -13 -13 -13 -13 -12 -13 -14 -14 -15 -14 -14 -15
-19 -18 -18 -18 -17 -16 -16 -16 -15 -16 -16 -16 -16 -16 -16 -16 -16 -16 -16 -15 -15 -15 -14 -15 -15 -14 -14 -14 -15 -14 -14 -14 -13 -13 -12 -12 -14 -12 -13 -14 -14 -14 -15 -15 -14
-19 -18 -18 -18 -18 -17 -17 -16 -16 -15 -16 -16 -16 -16 -17 -17 -17 -17 -16 -17 -16 -16 -15 -15 -15 -15 -14 -14 -14 -14 -14 -14 -14 -13 -12 -13 -13 -12 -13 -14 -14 -14 -14 -15 -14
-19 -19 -18 -19 -18 -17 -17 -16 -16 -16 -16 -16 -17 -17 -17 -17 -17 -18 -17 -17 -16 -17 -17 -17 -16 -15 -15 -14 -15 -15 -15 -15 -14 -14 -13 -13 -13 -12 -13 -14 -14 -14 -14 -15 -14
-20 -19 -19 -19 -19 -18 -18 -17 -17 -16 -16 -16 -18 -17 -17 -17 -17 -17 -17 -16 -17 -17 -17 -17 -17 -16 -16 -15 -15 -15 -15 -15 -15 -15 -14 -13 -13 -13 -13 -13 -14 -14 -14 -15 -14
-21 -20 -20 -21 -20 -19 -18 -17 -17 -17 -17 -17 -18 -19 -18 -18 -17 -17 -18 -17 -16 -16 -16 -16 -16 -17 -16 -16 -16 -15 -16 -15 -15 -15 -14 -13 -13 -13 -13 -14 -15 -13 -13 -14 -15
-22 -21 -22 -22 -21 -20 -19 -19 -19 -20 -19 -18 -19 -20 -20 -19 -19 -18 -17 -17 -17 -16 -16 -15 -15 -15 -16 -16 -16 -16 -16 -15 -15 -15 -14 -14 -13 -13 -14 -14 -14 -14 -14 -14 -15
-23 -22 -22 -23 -22 -22 -21 -20 -21 -21 -21 -20 -21 -21 -21 -20 -20 -19 -18 -17 -16 -16 -16 -16 -15 -15 -15 -16 -16 -16 -16 -15 -15 -14 -14 -14 -13 -14 -14 -14 -14 -15 -14 -14 -15
-23 -23 -23 -23 -23 -23 -23 -22 -23 -23 -23 -22 -22 -22 -23 -22 -21 -20 -19 -18 -17 -17 -17 -16 -15 -15 -16 -17 -17 -17 -16 -15 -14 -14 -14 -14 -13 -14 -14 -13 -14 -14 -15 -15 -15
-24 -24 -23 -23 -23 -24 -24 -24 -24 -25 -25 -24 -24 -23 -23 -23 -22 -20 -20 -19 -18 -17 -17 -16 -16 -16 -16 -16 -16 -16 -15 -15 -15 -15 -14 -14 -14 -14 -15 -14 -14 -15 -15 -15 -15
-24 -24 -24 -24 -25 -25 -25 -25 -26 -25 -26 -25 -25 -24 -23 -23 -23 -22 -21 -20 -19 -19 -18 -17 -17 -17 -17 -17 -17 -16 -16 -16 -16 -15 -15 -15 -14 -15 -15 -15 -14 -14 -15 -16 -15
-24 -24 -24 -25 -25 -25 -26 -26 -26 -26 -26 -25 -25 -24 -24 -23 -23 -22 -22 -21 -20 -20 -19 -18 -18 -18 -18 -18 -17 -17 -16 -17 -17 -16 -15 -15 -15 -15 -15 -15 -14 -14 -15 -15 -16
-24 -24 -25 -25 -25 -25 -26 -26 -26 -25 -25 -25 -25 -24 -24 -24 -23 -23 -22 -22 -21 -21 -20 -20 -20 -20 -19 -19 -19 -17 -18 -18 -18 -18 -17 -16 -16 -16 -15 -14 -15 -15 -15 -15 -16

GFSSW_500_temp_054.txt.gz
Temp
-9 -9 -10 -10 -10 -10 -10 -10 -11 -11 -12 -13 -13 -14 -13 -13 -13 -13 -13 -13 -12 -12 -12 -12 -12 -11 -12 -11 -12 -12 -12 -12 -11 -12 -11 -11 -12 -11 -11 -11 -12 -12 -12 -12 -12
-10 -10 -10 -10 -10 -11 -11 -11 -12 -13 -13 -14 -14 -14 -14 -14 -14 -13 -13 -13 -13 -12 -12 -12 -12 -12 -12 -11 -12 -12 -12 -12 -11 -12 -12 -11 -12 -11 -11 -12 -12 -12 -12 -12 -12
-11 -11 -11 -11 -11 -12 -12 -13 -13 -13 -13 -13 -14 -14 -15 -14 -15 -14 -14 -14 -13 -13 -13 -12 -12 -12 -12 -11 -12 -12 -12 -12 -12 -12 -12 -11 -12 -11 -12 -12 -12 -12 -12 -11 -11
-11 -12 -12 -12 -13 -13 -13 -13 -14 -13 -13 -13 -13 -14 -15 -15 -14 -15 -14 -14 -14 -14 -13 -13 -12 -12 -12 -12 -12 -12 -13 -13 -12 -12 -12 -12 -11 -12 -12 -12 -12 -12 -12 -12 -11
-12 -13 -13 -13 -13 -14 -14 -14 -14 -14 -13 -13 -13 -14 -15 -14 -14 -14 -15 -14 -14 -14 -13 -13 -13 -12 -12 -12 -12 -13 -13 -13 -12 -12 -12 -12 -11 -12 -12 -12 -13 -13 -13 -12 -11
-13 -14 -14 -14 -14 -15 -15 -15 -15 -15 -14 -13 -14 -14 -15 -15 -15 -14 -15 -15 -14 -14 -14 -13 -13 -12 -12 -12 -12 -12 -13 -13 -12 -12 -12 -12 -12 -12 -12 -13 -13 -13 -13 -12 -12
-15 -15 -15 -15 -15 -15 -15 -15 -15 -15 -15 -14 -14 -14 -14 -15 -15 -14 -14 -14 -15 -14 -14 -14 -13 -13 -12 -12 -12 -12 -13 -13 -13 -12 -12 -12 -12 -12 -12 -13 -13 -13 -13 -13 -12
-16 -16 -16 -15 -15 -15 -15 -15 -15 -16 -16 -15 -15 -14 -14 -15 -14 -15 -14 -14 -14 -14 -14 -14 -13 -13 -12 -12 -12 -12 -13 -13 -14 -12 -12 -12 -13 -12 -12 -13 -13 -13 -13 -13 -12
-16 -16 -16 -16 -15 -15 -15 -15 -15 -15 -16 -16 -15 -15 -14 -14 -15 -15 -14 -14 -14 -14 -14 -14 -14 -13 -12 -12 -12 -12 -12 -13 -14 -13 -12 -12 -13 -12 -12 -13 -14 -13 -14 -13 -13
-17 -17 -16 -16 -16 -16 -15 -15 -15 -15 -16 -17 -16 -14 -14 -14 -14 -14 -14 -14 -14 -14 -14 -14 -14 -13 -12 -12 -12 -13 -14 -13 -13 -12 -12 -12 -13 -12 -13 -13 -14 -13 -14 -14 -13
-17 -17 -17 -17 -17 -16 -16 -16 -15 -15 -16 -16 -17 -16 -14 -14 -14 -14 -14 -14 -14 -14 -14 -14 -13 -12 -13 -13 -14 -14 -13 -13 -13 -13 -13 -12 -13 -13 -13 -14 -13 -14 -14 -14 -14
-17 -17 -17 -17 -17 -16 -16 -16 -16 -15 -15 -16 -17 -17 -15 -14 -14 -14 -14 -14 -14 -14 -14 -13 -13 -14 -13 -13 -14 -14 -13 -13 -14 -13 -12 -13 -13 -14 -13 -14 -14 -14 -14 -14 -14
-18 -18 -18 -18 -18 -17 -16 -16 -16 -15 -15 -15 -17 -17 -17 -14 -14 -14 -14 -14 -14 -14 -14 -13 -14 -14 -13 -14 -14 -14 -13 -13 -14 -13 -12 -12 -12 -13 -13 -14 -14 -14 -14 -14 -14
-18 -18 -18 -18 -18 -17 -17 -16 -16 -15 -15 -15 -16 -16 -16 -16 -16 -14 -14 -14 -14 -14 -14 -13 -14 -14 -14 -14 -14 -14 -14 -14 -14 -14 -13 -12 -12 -12 -14 -14 -14 -14 -14 -14 -14
-19 -19 -19 -19 -18 -18 -17 -17 -16 -16 -16 -15 -15 -16 -17 -17 -17 -16 -15 -14 -14 -14 -14 -14 -14 -14 -14 -15 -14 -15 -14 -14 -14 -14 -13 -12 -12 -12 -13 -14 -14 -14 -14 -14 -14
-19 -19 -19 -19 -19 -18 -18 -17 -17 -17 -16 -16 -16 -16 -17 -17 -17 -17 -16 -15 -16 -14 -14 -14 -14 -14 -14 -15 -14 -14 -14 -14 -14 -14 -13 -13 -13 -12 -13 -14 -14 -14 -14 -14 -14
-20 -19 -19 -19 -19 -19 -18 -18 -17 -17 -17 -17 -17 -16 -17 -17 -17 -17 -17 -16 -16 -15 -15 -15 -15 -14 -14 -15 -14 -14 -14 -15 -14 -14 -13 -13 -13 -13 -13 -14 -14 -14 -14 -13 -14
-20 -20 -20 -20 -19 -19 -19 -18 -18 -17 -17 -17 -17 -17 -17 -17 -17 -17 -17 -18 -17 -16 -17 -17 -15 -15 -14 -15 -15 -15 -14 -14 -14 -14 -14 -13 -14 -13 -13 -14 -14 -14 -14 -13 -14
-20 -20 -20 -20 -20 -20 -19 -19 -18 -18 -18 -18 -18 -18 -18 -18 -18 -18 -17 -18 -17 -17 -16 -18 -17 -16 -15 -15 -15 -15 -14 -15 -15 -15 -14 -14 -14 -14 -13 -13 -14 -14 -14 -14 -14
-21 -21 -21 -21 -21 -20 -19 -19 -19 -19 -19 -19 -19 -18 -18 -18 -18 -18 -18 -18 -18 -19 -18 -17 -17 -17 -17 -16 -15 -15 -15 -15 -15 -15 -15 -14 -14 -14 -14 -14 -14 -14 -14 -14 -14
-22 -22 -22 -22 -21 -20 -20 -20 -20 -21 -20 -20 -19 -19 -19 -18 -19 -18 -18 -18 -18 -18 -19 -18 -18 -17 -18 -17 -16 -16 -15 -15 -15 -15 -15 -16 -16 -13 -14 -14 -14 -14 -14 -14 -14
-23 -22 -22 -22 -22 -21 -20 -21 -20 -22 -21 -21 -21 -20 -20 -19 -19 -19 -18 -18 -18 -18 -18 -18 -18 -18 -19 -17 -17 -17 -16 -16 -16 -16 -15 -15 -15 -15 -14 -14 -14 -14 -14 -14 -14
-24 -23 -23 -23 -22 -22 -22 -22 -22 -22 -22 -22 -22 -21 -21 -21 -20 -20 -19 -19 -18 -18 -18 -18 -18 -18 -17 -17 -17 -17 -17 -16 -16 -15 -15 -15 -15 -14 -15 -15 -15 -15 -15 -14 -15
-25 -24 -24 -23 -23 -23 -23 -23 -23 -23 -23 -23 -23 -22 -21 -22 -22 -21 -21 -19 -20 -19 -18 -18 -17 -18 -18 -18 -17 -16 -16 -16 -16 -16 -16 -15 -15 -15 -15 -15 -15 -15 -15 -16 -15
-25 -24 -24 -24 -24 -24 -24 -23 -23 -23 -24 -24 -24 -24 -24 -23 -22 -22 -22 -21 -20 -21 -20 -19 -18 -18 -17 -18 -17 -17 -17 -17 -17 -16 -16 -16 -16 -16 -16 -15 -16 -15 -15 -15 -16
-25 -25 -24 -24 -24 -25 -24 -24 -24 -25 -25 -25 -26 -25 -25 -24 -23 -23 -22 -21 -21 -20 -20 -20 -20 -20 -18 -18 -18 -18 -17 -17 -17 -17 -17 -17 -16 -16 -15 -15 -14 -15 -15 -15 -15
-26 -25 -25 -25 -25 -25 -24 -25 -25 -25 -26 -26 -26 -26 -26 -25 -24 -23 -23 -22 -22 -21 -21 -21 -20 -20 -20 -20 -19 -17 -17 -18 -18 -18 -18 -17 -17 -16 -15 -15 -15 -15 -15 -15 -15

GFSSW_500_temp_057.txt.gz
Temp
-10 -9 -9 -9 -9 -9 -9 -9 -9 -9 -9 -9 -10 -10 -12 -12 -14 -14 -13 -13 -13 -12 -12 -12 -12 -12 -12 -12 -12 -12 -12 -12 -12 -12 -12 -11 -12 -11 -11 -11 -11 -11 -11 -12 -11
-10 -10 -10 -10 -9 -9 -9 -9 -9 -9 -9 -10 -10 -11 -13 -13 -13 -14 -14 -14 -14 -13 -13 -12 -12 -12 -12 -12 -12 -12 -12 -12 -13 -13 -13 -11 -11 -11 -11 -11 -11 -11 -11 -12 -12
-10 -10 -10 -10 -10 -10 -10 -10 -9 -10 -10 -11 -12 -12 -13 -13 -13 -14 -14 -14 -14 -13 -13 -13 -13 -12 -12 -12 -12 -12 -12 -12 -12 -13 -13 -12 -12 -11 -11 -12 -12 -11 -12 -12 -12
-11 -11 -10 -11 -11 -11 -11 -10 -10 -10 -12 -12 -13 -13 -13 -13 -14 -14 -14 -15 -15 -14 -14 -14 -13 -13 -13 -13 -13 -12 -12 -12 -13 -12 -13 -12 -12 -11 -11 -12 -11 -12 -12 -12 -12
-11 -11 -11 -12 -12 -12 -11 -11 -11 -12 -13 -14 -14 -13 -13 -12 -14 -14 -14 -14 -15 -14 -15 -14 -14 -13 -13 -13 -13 -12 -13 -13 -13 -13 -12 -12 -12 -11 -11 -11 -12 -12 -12 -12 -12
-12 -12 -12 -12 -12 -12 -12 -13 -13 -14 -14 -14 -14 -14 -13 -13 -14 -15 -14 -15 -14 -14 -14 -14 -14 -14 -14 -13 -13 -13 -13 -13 -13 -13 -12 -12 -12 -11 -11 -11 -12 -12 -13 -13 -12
-13 -13 -13 -13 -13 -13 -13 -14 -15 -15 -14 -14 -14 -14 -15 -14 -14 -14 -14 -15 -15 -15 -15 -14 -14 -14 -14 -13 -13 -13 -13 -13 -13 -13 -12 -12 -12 -11 -11 -11 -12 -12 -13 -13 -13
-14 -14 -14 -14 -14 -14 -15 -15 -15 -15 -15 -15 -14 -15 -15 -15 -14 -14 -15 -15 -15 -16 -15 -15 -14 -14 -13 -13 -13 -13 -13 -13 -13 -13 -13 -12 -12 -12 -11 -11 -12 -12 -13 -13 -12
-14 -15 -15 -14 -15 -16 -16 -16 -16 -15 -15 -15 -15 -15 -15 -15 -15 -15 -15 -15 -15 -15 -15 -15 -15 -14 -14 -14 -13 -13 -13 -13 -14 -13 -13 -12 -13 -12 -11 -12 -12 -12 -13 -13 -12
-15 -16 -16 -16 -16 -17 -17 -16 -16 -15 -15 -15 -15 -15 -15 -15 -15 -14 -14 -15 -15 -15 -15 -15 -15 -14 -14 -14 -13 -13 -13 -14 -15 -15 -12 -13 -13 -13 -12 -12 -12 -12 -12 -13 -13
-16 -16 -17 -17 -17 -17 -17 -17 -16 -15 -16 -15 -15 -15 -15 -15 -15 -15 -15 -15 -14 -14 -14 -14 -14 -14 -13 -14 -14 -15 -16 -15 -15 -16 -12 -13 -13 -13 -12 -12 -12 -12 -12 -13 -13
-17 -17 -18 -18 -18 -17 -17 -17 -17 -16 -16 -16 -15 -15 -15 -15 -16 -15 -14 -14 -14 -14 -14 -14 -13 -14 -14 -14 -15 -15 -14 -14 -15 -13 -13 -13 -12 -13 -13 -12 -13 -12 -12 -12 -13
-18 -18 -18 -18 -18 -18 -18 -17 -17 -17 -17 -16 -16 -15 -15 -15 -16 -16 -15 -14 -14 -14 -14 -14 -14 -15 -14 -15 -14 -14 -14 -14 -14 -15 -13 -13 -12 -12 -13 -13 -13 -13 -12 -12 -12
-18 -18 -19 -19 -19 -18 -18 -18 -18 -17 -17 -16 -16 -15 -15 -15 -16 -17 -16 -15 -14 -14 -14 -14 -14 -14 -14 -14 -15 -15 -15 -15 -15 -14 -13 -14 -12 -13 -13 -13 -13 -13 -12 -12 -12
-19 -19 -19 -19 -19 -19 -18 -18 -18 -18 -18 -16 -16 -16 -16 -16 -16 -17 -17 -16 -15 -14 -14 -14 -14 -14 -14 -14 -15 -14 -14 -15 -15 -14 -14 -13 -12 -13 -13 -15 -14 -13 -12 -12 -12
-20 -20 -20 -19 -19 -19 -19 -19 -19 -18 -18 -17 -17 -16 -16 -16 -16 -17 -17 -17 -16 -15 -15 -14 -14 -14 -14 -15 -15 -14 -14 -14 -15 -15 -13 -13 -13 -13 -14 -15 -14 -13 -13 -13 -12
-20 -20 -20 -20 -20 -19 -19 -19 -19 -19 -18 -18 -18 -17 -17 -17 -17 -17 -17 -17 -17 -16 -15 -15 -15 -14 -14 -14 -14 -15 -14 -15 -15 -15 -13 -13 -13 -12 -14 -14 -14 -13 -13 -13 -13
-21 -21 -21 -20 -20 -20 -20 -20 -19 -19 -19 -18 -18 -18 -18 -17 -17 -17 -17 -17 -17 -17 -17 -16 -15 -15 -15 -14 -14 -15 -14 -14 -14 -15 -15 -13 -15 -13 -14 -14 -14 -14 -13 -13 -13
-22 -21 -21 -21 -21 -20 -20 -20 -20 -19 -19 -19 -19 -19 -18 -18 -17 -18 -18 -17 -17 -17 -17 -17 -16 -17 -15 -15 -15 -15 -14 -14 -15 -15 -15 -15 -15 -14 -13 -14 -14 -14 -14 -14 -13
-23 -22 -22 -21 -21 -21 -21 -20 -20 -20 -20 -19 -19 -19 -19 -18 -18 -18 -18 -17 -17 -17 -18 -18 -17 -18 -17 -16 -15 -15 -16 -15 -15 -15 -16 -15 -15 -15 -14 -14 -14 -14 -15 -15 -15
-24 -23 -23 -23 -22 -21 -21 -21 -21 -21 -21 -20 -20 -20 -19 -19 -18 -18 -18 -17 -18 -18 -18 -18 -18 -18 -17 -15 -16 -16 -16 -15 -16 -16 -16 -16 -15 -15 -15 -13 -13 -14 -15 -14 -13
-25 -24 -24 -24 -23 -22 -21 -22 -22 -22 -21 -21 -21 -21 -20 -20 -19 -18 -18 -18 -18 -18 -18 -18 -18 -18 -18 -17 -17 -17 -16 -16 -16 -16 -16 -16 -15 -15 -15 -14 -15 -15 -15 -14 -14
-26 -25 -25 -24 -24 -23 -22 -22 -22 -22 -22 -21 -21 -21 -21 -21 -20 -19 -19 -18 -19 -18 -19 -18 -17 -18 -19 -19 -18 -17 -17 -17 -17 -16 -16 -16 -16 -15 -16 -15 -15 -16 -16 -15 -15
-27 -26 -26 -25 -24 -24 -23 -23 -23 -23 -23 -22 -22 -22 -21 -21 -21 -20 -19 -19 -20 -20 -19 -19 -19 -18 -19 -18 -18 -19 -19 -18 -18 -17 -16 -16 -16 -16 -16 -16 -16 -16 -16 -16 -16
-27 -27 -26 -26 -25 -24 -24 -24 -24 -23 -23 -23 -23 -22 -22 -22 -21 -21 -20 -20 -21 -21 -20 -19 -19 -19 -19 -18 -18 -19 -19 -18 -18 -18 -18 -17 -17 -17 -17 -16 -17 -16 -16 -16 -16
-28 -27 -27 -27 -26 -26 -25 -24 -24 -24 -24 -24 -23 -23 -23 -22 -22 -22 -22 -22 -20 -21 -20 -19 -20 -19 -19 -19 -19 -19 -19 -18 -18 -18 -17 -18 -17 -18 -17 -16 -15 -15 -16 -15 -15
-29 -28 -28 -27 -27 -26 -25 -25 -25 -25 -24 -24 -25 -24 -25 -25 -24 -23 -22 -20 -20 -21 -21 -19 -20 -19 -19 -19 -19 -19 -18 -19 -19 -18 -18 -18 -19 -18 -17 -16 -16 -16 -15 -15 -15

GFSSW_500_temp_060.txt.gz
Temp
-10 -10 -10 -9 -10 -10 -10 -9 -9 -9 -9 -9 -9 -8 -8 -8 -9 -9 -9 -9 -11 -12 -12 -13 -12 -12 -12 -12 -12 -12 -12 -11 -12 -12 -14 -14 -13 -11 -11 -11 -11 -11 -11 -11 -11
-10 -10 -10 -10 -10 -10 -10 -9 -9 -9 -9 -9 -9 -9 -9 -9 -9 -11 -10 -11 -12 -13 -13 -14 -13 -13 -13 -13 -13 -13 -12 -12 -12 -14 -14 -14 -13 -12 -12 -11 -11 -11 -11 -11 -12
-11 -10 -10 -10 -10 -10 -10 -10 -10 -10 -10 -10 -10 -9 -9 -9 -10 -11 -11 -11 -12 -14 -14 -14 -14 -14 -13 -13 -13 -13 -12 -13 -13 -15 -15 -14 -14 -12 -12 -11 -12 -10 -12 -11 -12
-11 -11 -11 -10 -10 -11 -10 -10 -10 -10 -10 -10 -10 -10 -9 -10 -13 -12 -11 -12 -13 -14 -14 -15 -15 -14 -14 -13 -14 -13 -13 -13 -13 -13 -13 -13 -13 -12 -12 -12 -12 -10 -12 -12 -12
-12 -11 -12 -12 -11 -11 -11 -11 -11 -11 -11 -11 -11 -10 -11 -13 -13 -13 -12 -13 -13 -14 -14 -15 -15 -14 -14 -14 -14 -14 -13 -14 -14 -14 -13 -13 -13 -12 -12 -12 -11 -11 -12 -12 -12
-12 -12 -12 -12 -12 -12 -12 -12 -12 -12 -12 -11 -11 -12 -13 -14 -13 -14 -13 -13 -13 -14 -15 -15 -16 -15 -14 -14 -14 -14 -14 -14 -14 -13 -13 -13 -13 -12 -12 -12 -11 -11 -11 -12 -12
-13 -13 -13 -13 -13 -13 -13 -13 -13 -13 -13 -12 -12 -13 -14 -14 -14 -13 -14 -13 -13 -14 -15 -15 -15 -15 -14 -14 -14 -14 -13 -14 -13 -13 -13 -13 -12 -12 -12 -11 -11 -11 -11 -12 -12
-14 -14 -14 -14 -14 -14 -14 -14 -14 -14 -13 -13 -14 -14 -15 -14 -14 -14 -14 -15 -14 -14 -14 -15 -15 -16 -14 -14 -14 -13 -14 -13 -13 -13 -13 -13 -12 -12 -12 -11 -11 -11 -11 -11 -12
-15 -15 -14 -14 -15 -15 -15 -15 -15 -14 -14 -14 -15 -15 -15 -14 -14 -14 -14 -15 -14 -14 -15 -15 -15 -16 -15 -14 -14 -14 -13 -13 -14 -14 -13 -13 -12 -13 -12 -11 -12 -12 -11 -11 -12
-16 -15 -15 -15 -15 -15 -15 -15 -15 -15 -15 -15 -15 -15 -15 -15 -15 -14 -14 -15 -15 -14 -15 -15 -15 -16 -15 -15 -14 -14 -14 -14 -14 -14 -14 -15 -12 -13 -13 -12 -12 -12 -12 -11 -12
-16 -16 -16 -16 -16 -16 -16 -17 -15 -15 -17 -16 -16 -16 -15 -15 -15 -14 -14 -15 -15 -15 -15 -15 -15 -15 -16 -16 -15 -16 -16 -15 -14 -14 -15 -14 -13 -13 -13 -12 -12 -12 -12 -12 -11
-17 -17 -17 -17 -17 -17 -17 -17 -16 -16 -17 -17 -16 -16 -16 -15 -15 -15 -14 -15 -15 -15 -15 -15 -15 -16 -16 -16 -16 -16 -15 -14 -15 -15 -14 -15 -13 -13 -13 -12 -12 -12 -12 -12 -12
-17 -17 -17 -17 -18 -17 -17 -17 -17 -17 -17 -17 -17 -16 -16 -16 -15 -15 -15 -15 -15 -15 -15 -14 -15 -15 -15 -15 -15 -15 -15 -15 -14 -15 -15 -14 -13 -13 -13 -12 -12 -12 -12 -12 -11
-18 -18 -18 -18 -18 -19 -18 -18 -18 -18 -18 -17 -17 -17 -16 -16 -15 -15 -15 -15 -16 -15 -15 -15 -15 -15 -15 -14 -15 -15 -15 -15 -15 -16 -14 -15 -13 -14 -13 -13 -12 -13 -12 -12 -12
-19 -19 -19 -19 -19 -19 -19 -19 -19 -19 -19 -18 -17 -17 -17 -17 -16 -16 -15 -16 -16 -16 -15 -15 -15 -15 -14 -14 -14 -14 -15 -15 -15 -15 -14 -14 -14 -13 -14 -15 -13 -13 -12 -12 -12
-19 -19 -19 -19 -20 -20 -20 -19 -19 -19 -19 -18 -18 -18 -17 -17 -17 -16 -16 -16 -15 -17 -16 -16 -15 -15 -15 -14 -14 -15 -15 -15 -15 -15 -14 -13 -13 -13 -13 -14 -14 -15 -14 -13 -11
-20 -20 -20 -20 -20 -20 -20 -20 -20 -20 -19 -19 -18 -18 -18 -18 -17 -17 -16 -16 -16 -17 -17 -16 -16 -15 -16 -14 -14 -14 -14 -15 -15 -15 -13 -13 -13 -12 -14 -15 -14 -14 -14 -13 -12
-20 -21 -21 -21 -21 -21 -21 -21 -20 -20 -20 -19 -19 -19 -18 -18 -18 -17 -17 -17 -16 -16 -18 -17 -16 -16 -15 -15 -15 -14 -14 -14 -15 -15 -14 -14 -13 -12 -13 -14 -13 -13 -14 -14 -12
-21 -21 -21 -22 -22 -22 -21 -21 -20 -20 -20 -20 -19 -19 -19 -19 -18 -18 -17 -17 -17 -16 -17 -18 -17 -17 -17 -16 -15 -15 -14 -15 -15 -15 -15 -14 -14 -14 -14 -14 -14 -14 -14 -14 -13
-23 -23 -23 -24 -23 -23 -22 -21 -20 -21 -21 -20 -20 -20 -19 -20 -18 -19 -18 -19 -17 -17 -17 -17 -17 -17 -17 -17 -16 -15 -15 -16 -15 -15 -15 -14 -14 -14 -14 -14 -14 -15 -14 -14 -15
-26 -25 -25 -25 -24 -24 -22 -21 -21 -22 -21 -21 -21 -20 -20 -20 -19 -19 -19 -19 -18 -17 -18 -18 -17 -18 -18 -16 -17 -16 -16 -16 -15 -15 -15 -14 -14 -14 -14 -13 -14 -14 -14 -14 -14
-26 -26 -26 -26 -26 -24 -23 -22 -22 -22 -22 -22 -21 -21 -20 -20 -20 -19 -19 -19 -18 -18 -18 -18 -17 -17 -18 -18 -18 -17 -17 -16 -15 -15 -16 -15 -15 -14 -14 -14 -14 -14 -15 -15 -15
-26 -26 -27 -27 -27 -25 -24 -23 -23 -23 -22 -22 -22 -21 -21 -21 -20 -20 -20 -20 -18 -19 -18 -18 -18 -18 -18 -18 -18 -17 -16 -16 -16 -16 -15 -16 -15 -15 -15 -14 -14 -16 -15 -14 -15
-27 -26 -27 -27 -27 -26 -25 -25 -24 -23 -23 -23 -23 -22 -22 -21 -21 -21 -20 -20 -19 -19 -19 -18 -18 -18 -18 -18 -17 -18 -18 -17 -16 -15 -15 -15 -16 -15 -15 -15 -15 -15 -15 -15 -15
-28 -27 -28 -28 -27 -27 -26 -26 -25 -24 -24 -24 -23 -23 -23 -22 -22 -22 -21 -21 -20 -19 -19 -20 -19 -19 -18 -17 -17 -18 -18 -17 -17 -16 -16 -16 -15 -15 -16 -15 -15 -15 -15 -15 -15
-28 -28 -29 -28 -28 -28 -27 -27 -26 -26 -25 -24 -24 -24 -23 -23 -23 -23 -22 -21 -20 -20 -19 -20 -20 -19 -18 -19 -17 -17 -18 -16 -17 -17 -17 -17 -16 -16 -16 -17 -16 -16 -16 -16 -16
-29 -29 -29 -29 -28 -29 -28 -27 -26 -26 -26 -25 -25 -24 -24 -25 -23 -22 -22 -21 -20 -20 -20 -19 -20 -20 -19 -19 -18 -18 -18 -17 -18 -19 -18 -18 -18 -18 -17 -17 -17 -17 -17 -16 -17

GFSSW_500_temp_063.txt.gz
Temp
-10 -10 -10 -10 -10 -10 -10 -10 -9 -10 -9 -9 -9 -9 -8 -9 -9 -8 -8 -8 -9 -9 -9 -9 -10 -12 -13 -13 -13 -13 -12 -11 -11 -12 -13 -14 -15 -15 -14 -13 -12 -12 -11 -10 -10
-10 -10 -10 -10 -10 -10 -10 -10 -10 -10 -10 -10 -9 -9 -9 -9 -9 -9 -9 -9 -9 -9 -10 -10 -12 -13 -13 -14 -14 -13 -12 -12 -12 -13 -13 -14 -15 -15 -14 -13 -12 -11 -10 -10 -11
-11 -11 -11 -11 -11 -10 -11 -11 -11 -11 -10 -10 -10 -10 -9 -10 -9 -9 -9 -10 -10 -10 -11 -11 -12 -13 -14 -14 -14 -14 -13 -13 -13 -14 -13 -14 -16 -15 -13 -13 -12 -11 -10 -10 -11
-11 -11 -11 -11 -11 -11 -11 -11 -11 -11 -11 -11 -10 -10 -10 -10 -10 -9 -9 -10 -10 -11 -12 -12 -12 -14 -14 -14 -15 -14 -14 -13 -13 -14 -14 -13 -15 -15 -14 -13 -13 -12 -11 -11 -11
-12 -11 -12 -12 -12 -12 -12 -12 -12 -12 -11 -11 -11 -11 -11 -11 -10 -10 -10 -11 -12 -12 -12 -12 -13 -15 -14 -15 -15 -15 -14 -14 -14 -15 -14 -13 -13 -13 -14 -13 -13 -11 -11 -11 -11
-12 -12 -12 -12 -12 -12 -13 -12 -13 -12 -12 -12 -11 -11 -12 -12 -11 -12 -11 -13 -14 -13 -13 -13 -14 -15 -14 -15 -15 -15 -14 -14 -14 -14 -14 -14 -13 -14 -13 -13 -13 -12 -11 -11 -11
-13 -13 -13 -13 -13 -13 -13 -13 -13 -13 -13 -12 -12 -12 -12 -12 -12 -12 -12 -14 -14 -14 -13 -14 -15 -16 -15 -15 -14 -15 -14 -14 -13 -13 -14 -14 -13 -13 -13 -13 -13 -11 -11 -11 -11
-14 -14 -14 -14 -14 -14 -14 -14 -14 -13 -14 -13 -13 -12 -13 -13 -13 -12 -12 -14 -14 -14 -14 -14 -14 -16 -15 -15 -15 -15 -14 -13 -13 -13 -13 -14 -12 -14 -14 -13 -12 -11 -11 -11 -11
-15 -15 -15 -15 -15 -15 -15 -15 -15 -15 -15 -14 -14 -13 -13 -13 -13 -14 -14 -14 -14 -14 -14 -15 -15 -16 -15 -15 -15 -16 -14 -13 -13 -14 -14 -14 -13 -14 -14 -13 -12 -12 -11 -11 -12
-16 -16 -16 -16 -16 -16 -16 -15 -16 -15 -16 -15 -14 -14 -14 -13 -13 -14 -15 -15 -14 -14 -14 -15 -15 -15 -15 -15 -15 -15 -15 -14 -14 -15 -14 -14 -13 -14 -15 -13 -13 -12 -12 -11 -11
-17 -17 -17 -17 -17 -17 -16 -16 -16 -16 -16 -16 -15 -15 -14 -14 -15 -15 -14 -15 -15 -14 -14 -15 -14 -14 -15 -15 -15 -17 -15 -15 -15 -15 -15 -15 -14 -14 -14 -15 -13 -12 -13 -12 -11
-18 -18 -18 -17 -17 -17 -17 -17 -16 -16 -16 -16 -16 -15 -15 -15 -15 -15 -15 -15 -15 -15 -14 -14 -14 -15 -15 -15 -16 -17 -16 -15 -16 -14 -15 -14 -15 -15 -15 -14 -13 -12 -12 -12 -11
-18 -18 -18 -18 -18 -18 -17 -17 -17 -17 -16 -17 -16 -16 -16 -16 -16 -16 -15 -15 -15 -15 -15 -14 -15 -15 -15 -15 -16 -16 -17 -16 -16 -15 -15 -14 -15 -14 -14 -14 -13 -13 -12 -12 -11
-19 -19 -19 -19 -18 -19 -18 -18 -18 -18 -17 -17 -17 -17 -17 -17 -16 -16 -16 -16 -15 -15 -15 -15 -15 -15 -15 -15 -15 -16 -16 -16 -16 -15 -14 -16 -14 -15 -15 -14 -14 -13 -13 -13 -12
-19 -19 -19 -19 -19 -19 -19 -19 -19 -18 -18 -17 -17 -17 -17 -17 -17 -17 -16 -16 -16 -15 -16 -16 -16 -15 -15 -16 -16 -15 -16 -16 -15 -15 -15 -15 -14 -13 -14 -15 -14 -14 -14 -14 -13
-20 -20 -20 -19 -20 -19 -20 -19 -19 -19 -19 -19 -18 -17 -18 -18 -18 -17 -17 -17 -16 -15 -16 -16 -17 -15 -15 -16 -15 -15 -15 -15 -15 -15 -14 -14 -14 -13 -13 -13 -15 -15 -15 -14 -13
-20 -20 -20 -20 -20 -20 -20 -20 -20 -19 -20 -20 -19 -19 -19 -19 -18 -18 -18 -17 -16 -16 -16 -16 -16 -16 -16 -16 -16 -15 -15 -15 -15 -14 -14 -14 -14 -12 -14 -14 -14 -14 -15 -14 -13
-21 -21 -21 -21 -21 -21 -21 -21 -20 -19 -21 -22 -20 -19 -19 -19 -19 -18 -18 -17 -17 -16 -16 -16 -17 -17 -17 -16 -15 -16 -15 -15 -15 -15 -15 -14 -14 -13 -14 -14 -15 -14 -14 -14 -13
-22 -22 -21 -22 -22 -22 -22 -21 -20 -21 -22 -22 -20 -20 -20 -20 -19 -19 -18 -18 -17 -17 -17 -17 -17 -18 -17 -17 -16 -16 -15 -16 -16 -15 -14 -14 -13 -14 -14 -15 -14 -14 -14 -14 -14
-23 -23 -23 -23 -23 -23 -23 -21 -21 -22 -22 -22 -21 -21 -21 -21 -20 -20 -19 -18 -18 -17 -18 -18 -17 -17 -18 -17 -17 -16 -17 -16 -15 -15 -15 -14 -14 -14 -14 -15 -15 -15 -15 -15 -15
-23 -23 -24 -24 -25 -25 -23 -23 -23 -23 -24 -23 -22 -21 -21 -21 -20 -20 -20 -19 -19 -19 -18 -18 -18 -17 -18 -18 -17 -18 -17 -16 -16 -15 -15 -15 -15 -14 -15 -15 -15 -15 -15 -15 -15
-24 -24 -25 -26 -26 -26 -25 -26 -25 -24 -25 -23 -22 -22 -22 -21 -21 -20 -21 -20 -19 -18 -18 -18 -18 -18 -18 -19 -18 -18 -18 -17 -16 -16 -15 -15 -15 -14 -15 -14 -15 -15 -15 -15 -14
-25 -26 -27 -27 -27 -27 -27 -26 -26 -25 -25 -24 -23 -22 -23 -22 -21 -21 -21 -21 -20 -18 -18 -19 -18 -18 -18 -18 -19 -18 -18 -17 -17 -16 -16 -15 -14 -14 -14 -14 -15 -15 -15 -15 -15
-28 -27 -27 -27 -27 -27 -27 -27 -26 -26 -25 -25 -24 -23 -23 -22 -22 -22 -21 -21 -20 -19 -19 -19 -19 -18 -18 -18 -18 -18 -18 -18 -17 -17 -16 -15 -15 -14 -14 -14 -14 -15 -15 -15 -15
-28 -28 -28 -28 -28 -28 -28 -27 -27 -26 -26 -26 -25 -24 -23 -23 -23 -22 -22 -22 -21 -19 -19 -18 -18 -18 -18 -19 -18 -18 -18 -17 -17 -17 -16 -16 -15 -15 -15 -15 -15 -15 -15 -14 -14
-28 -29 -29 -29 -29 -29 -28 -28 -27 -27 -27 -26 -25 -25 -24 -24 -23 -23 -22 -21 -21 -20 -19 -19 -18 -18 -19 -19 -18 -19 -18 -18 -18 -17 -16 -16 -15 -15 -15 -15 -15 -15 -14 -14 -14
-29 -30 -29 -29 -29 -29 -28 -28 -28 -28 -27 -26 -26 -25 -24 -24 -23 -23 -22 -21 -21 -21 -20 -19 -19 -19 -19 -19 -19 -19 -19 -18 -18 -17 -17 -16 -16 -16 -16 -16 -16 -15 -16 -15 -15

GFSSW_500_temp_066.txt.gz
Temp
-11 -11 -11 -11 -10 -10 -10 -10 -10 -10 -10 -9 -9 -9 -9 -9 -9 -9 -9 -9 -9 -9 -9 -8 -9 -9 -9 -9 -10 -11 -10 -9 -11 -12 -12 -14 -13 -12 -14 -13 -14 -12 -11 -12 -12
-11 -12 -11 -11 -11 -11 -11 -10 -10 -10 -10 -10 -10 -10 -10 -10 -9 -9 -9 -9 -9 -9 -9 -9 -9 -9 -9 -10 -10 -11 -11 -11 -13 -13 -13 -15 -14 -13 -12 -14 -13 -11 -12 -12 -11
-11 -11 -11 -12 -12 -11 -11 -11 -10 -10 -10 -10 -10 -10 -10 -10 -10 -9 -10 -10 -10 -10 -10 -10 -9 -9 -9 -10 -11 -12 -11 -13 -14 -14 -14 -15 -14 -13 -12 -12 -11 -12 -12 -12 -11
-11 -11 -11 -12 -12 -12 -12 -11 -11 -11 -11 -11 -11 -10 -10 -11 -10 -11 -11 -11 -10 -10 -10 -10 -10 -10 -10 -10 -13 -13 -13 -14 -14 -14 -15 -15 -15 -13 -13 -12 -11 -12 -13 -12 -11
-12 -12 -13 -13 -13 -13 -12 -12 -12 -11 -11 -11 -11 -11 -11 -11 -11 -11 -11 -11 -11 -10 -10 -10 -10 -10 -11 -12 -13 -13 -14 -14 -14 -15 -15 -15 -15 -13 -13 -12 -12 -12 -12 -12 -12
-13 -13 -13 -13 -13 -14 -13 -13 -13 -12 -12 -12 -12 -12 -12 -12 -12 -11 -11 -11 -10 -10 -11 -10 -11 -11 -12 -12 -13 -14 -14 -15 -15 -15 -15 -15 -15 -14 -13 -13 -13 -13 -13 -12 -12
-14 -14 -14 -14 -14 -14 -15 -15 -14 -14 -14 -13 -13 -13 -13 -13 -12 -12 -12 -11 -11 -11 -12 -11 -12 -13 -13 -13 -14 -15 -15 -14 -14 -14 -14 -15 -14 -14 -13 -14 -14 -14 -13 -12 -11
-15 -15 -15 -15 -14 -15 -15 -15 -16 -15 -15 -14 -14 -13 -14 -14 -13 -13 -12 -12 -12 -12 -12 -13 -13 -14 -13 -13 -15 -15 -15 -15 -15 -15 -14 -15 -13 -13 -14 -14 -14 -14 -13 -12 -12
-15 -15 -16 -16 -15 -16 -16 -17 -17 -15 -15 -15 -14 -14 -15 -14 -15 -14 -13 -12 -13 -13 -13 -14 -14 -14 -14 -14 -15 -15 -15 -14 -15 -16 -15 -15 -14 -14 -15 -14 -14 -14 -13 -12 -12
-16 -17 -17 -17 -16 -16 -16 -16 -16 -16 -16 -15 -15 -15 -15 -15 -15 -15 -14 -13 -13 -13 -14 -15 -14 -14 -14 -14 -14 -15 -15 -15 -16 -16 -16 -15 -14 -15 -15 -15 -14 -14 -13 -12 -11
-17 -17 -17 -17 -17 -17 -17 -17 -17 -17 -17 -16 -15 -16 -16 -15 -15 -15 -14 -14 -14 -14 -14 -15 -14 -14 -14 -15 -15 -15 -15 -15 -15 -16 -16 -15 -14 -15 -14 -14 -14 -13 -13 -12 -12
-18 -18 -18 -18 -19 -18 -17 -17 -17 -16 -16 -16 -16 -16 -17 -16 -16 -15 -15 -15 -15 -15 -15 -14 -15 -14 -14 -14 -14 -14 -15 -15 -16 -17 -17 -15 -15 -15 -14 -14 -13 -13 -13 -13 -12
-21 -20 -20 -19 -20 -19 -18 -18 -18 -17 -16 -18 -17 -16 -17 -16 -16 -16 -15 -15 -15 -15 -15 -15 -15 -15 -14 -14 -14 -14 -15 -16 -17 -17 -16 -15 -14 -15 -14 -13 -14 -14 -14 -13 -12
-20 -20 -20 -19 -19 -19 -19 -18 -18 -18 -17 -17 -17 -17 -17 -17 -17 -16 -16 -16 -16 -16 -16 -15 -15 -15 -14 -14 -14 -15 -16 -16 -17 -17 -16 -15 -14 -14 -13 -13 -14 -15 -14 -13 -12
-20 -20 -20 -20 -20 -20 -19 -19 -19 -18 -18 -18 -18 -18 -18 -18 -17 -17 -16 -16 -16 -16 -16 -16 -15 -15 -14 -15 -15 -15 -16 -16 -16 -16 -16 -16 -15 -14 -13 -13 -13 -14 -13 -14 -13
-20 -21 -21 -20 -21 -20 -20 -20 -19 -19 -18 -19 -19 -19 -19 -19 -18 -18 -17 -17 -17 -16 -16 -16 -16 -15 -15 -15 -15 -15 -16 -16 -16 -17 -15 -15 -14 -14 -13 -13 -14 -14 -14 -14 -13
-21 -21 -21 -21 -21 -21 -21 -20 -20 -19 -20 -20 -20 -19 -19 -19 -19 -18 -18 -18 -18 -17 -17 -16 -16 -16 -15 -15 -16 -16 -16 -16 -16 -16 -14 -15 -15 -13 -14 -14 -14 -14 -13 -13 -12
-21 -21 -21 -22 -22 -21 -22 -21 -20 -20 -21 -22 -20 -19 -19 -20 -19 -19 -19 -18 -18 -18 -17 -16 -17 -16 -17 -16 -16 -16 -16 -16 -16 -16 -15 -15 -14 -12 -14 -15 -15 -14 -14 -13 -12
-22 -22 -22 -23 -23 -22 -22 -22 -21 -21 -22 -23 -22 -21 -20 -21 -20 -19 -19 -19 -18 -18 -18 -17 -17 -17 -16 -16 -17 -16 -15 -17 -16 -16 -15 -14 -14 -14 -14 -14 -15 -14 -14 -13 -14
-22 -22 -24 -24 -23 -23 -23 -22 -22 -22 -23 -24 -23 -22 -21 -21 -21 -20 -19 -19 -19 -18 -18 -18 -17 -17 -17 -17 -17 -17 -17 -16 -16 -17 -16 -15 -15 -15 -15 -15 -14 -14 -14 -13 -15
-23 -23 -24 -24 -24 -24 -23 -23 -23 -24 -25 -24 -24 -23 -22 -23 -22 -21 -20 -20 -19 -19 -18 -18 -18 -18 -18 -18 -17 -18 -17 -17 -17 -16 -16 -16 -15 -15 -15 -15 -15 -14 -14 -13 -14
-23 -23 -24 -24 -24 -24 -24 -25 -25 -24 -26 -25 -25 -24 -24 -23 -23 -22 -21 -20 -20 -19 -19 -18 -17 -18 -18 -18 -18 -18 -18 -17 -17 -17 -16 -16 -15 -15 -15 -15 -14 -15 -15 -14 -14
-24 -25 -27 -27 -27 -26 -27 -27 -26 -26 -27 -26 -25 -25 -24 -24 -23 -23 -22 -21 -20 -20 -19 -19 -18 -19 -19 -19 -19 -18 -18 -18 -17 -17 -17 -16 -14 -14 -15 -15 -14 -14 -15 -15 -14
-27 -28 -29 -29 -29 -29 -29 -28 -27 -27 -27 -27 -26 -25 -25 -25 -24 -23 -23 -22 -21 -21 -20 -19 -19 -18 -19 -19 -19 -18 -19 -18 -17 -17 -17 -16 -15 -15 -15 -15 -14 -14 -13 -15 -15
-27 -29 -30 -30 -29 -29 -29 -28 -28 -28 -28 -27 -27 -26 -25 -25 -25 -24 -23 -22 -22 -21 -20 -19 -19 -19 -18 -19 -19 -18 -18 -18 -18 -17 -17 -17 -16 -15 -14 -15 -15 -14 -15 -15 -15
-28 -29 -29 -30 -30 -29 -28 -28 -28 -28 -28 -27 -26 -26 -26 -26 -25 -24 -23 -22 -22 -21 -20 -19 -20 -19 -19 -19 -19 -18 -18 -18 -18 -18 -17 -17 -17 -16 -16 -15 -15 -15 -15 -15 -15
-29 -29 -29 -30 -30 -30 -29 -29 -29 -28 -27 -27 -27 -26 -26 -26 -25 -25 -24 -23 -22 -22 -21 -20 -20 -19 -19 -19 -19 -18 -19 -19 -18 -18 -18 -17 -17 -16 -16 -16 -15 -15 -15 -15 -15

GFSSW_500_temp_069.txt.gz
Temp
-10 -10 -10 -10 -10 -10 -10 -10 -10 -10 -10 -10 -10 -9 -10 -9 -10 -9 -9 -10 -9 -9 -9 -8 -9 -9 -8 -8 -9 -9 -8 -8 -8 -9 -11 -13 -14 -14 -13 -13 -13 -13 -15 -14 -12
-10 -10 -10 -11 -11 -11 -10 -10 -10 -10 -11 -11 -10 -10 -10 -10 -10 -9 -10 -10 -10 -10 -10 -9 -9 -9 -9 -9 -9 -9 -9 -9 -9 -10 -11 -13 -14 -14 -14 -14 -14 -13 -14 -14 -13
-11 -11 -11 -12 -11 -11 -11 -11 -11 -11 -11 -11 -11 -11 -11 -11 -10 -10 -10 -11 -10 -10 -10 -10 -10 -9 -9 -9 -9 -9 -9 -9 -9 -11 -12 -13 -15 -15 -14 -15 -14 -13 -13 -13 -13
-11 -12 -11 -12 -12 -11 -12 -12 -12 -12 -12 -11 -11 -11 -11 -11 -11 -11 -11 -11 -11 -11 -11 -10 -10 -10 -10 -10 -10 -9 -9 -10 -10 -13 -13 -13 -14 -15 -15 -15 -14 -13 -12 -12 -13
-12 -12 -12 -12 -12 -12 -13 -13 -12 -12 -12 -12 -12 -12 -12 -12 -12 -11 -12 -12 -11 -11 -11 -11 -11 -11 -10 -10 -10 -9 -10 -10 -11 -13 -14 -14 -14 -15 -15 -15 -14 -14 -13 -12 -13
-13 -13 -13 -13 -13 -13 -13 -13 -13 -13 -13 -13 -14 -13 -12 -12 -12 -12 -13 -13 -12 -12 -12 -12 -12 -11 -10 -10 -10 -10 -11 -11 -12 -13 -14 -15 -14 -15 -15 -15 -15 -14 -13 -13 -13
-14 -13 -13 -14 -14 -14 -14 -14 -14 -14 -13 -13 -15 -15 -14 -13 -13 -13 -13 -13 -13 -13 -12 -12 -12 -11 -11 -10 -11 -11 -12 -12 -13 -14 -14 -15 -15 -15 -15 -15 -15 -14 -13 -13 -13
-14 -14 -14 -14 -14 -15 -15 -15 -15 -14 -14 -14 -15 -16 -16 -15 -14 -14 -14 -14 -14 -13 -13 -12 -12 -12 -12 -11 -12 -12 -12 -13 -14 -15 -15 -16 -15 -15 -15 -15 -15 -14 -14 -14 -14
-15 -15 -15 -15 -15 -15 -15 -16 -15 -15 -15 -15 -15 -16 -16 -17 -16 -15 -14 -14 -14 -14 -14 -13 -12 -12 -12 -12 -12 -13 -13 -13 -14 -15 -16 -17 -15 -15 -15 -15 -15 -15 -15 -14 -14
-16 -16 -16 -16 -16 -16 -16 -17 -16 -16 -16 -16 -16 -17 -17 -17 -16 -16 -15 -15 -15 -14 -14 -14 -13 -13 -13 -13 -13 -14 -14 -14 -14 -16 -16 -16 -15 -15 -15 -15 -15 -15 -15 -14 -14
-16 -17 -17 -16 -17 -16 -17 -17 -17 -16 -16 -16 -16 -17 -17 -17 -16 -16 -16 -16 -15 -15 -15 -14 -13 -14 -13 -13 -13 -14 -14 -14 -14 -15 -16 -16 -16 -15 -15 -15 -15 -15 -15 -14 -13
-17 -17 -17 -17 -17 -17 -18 -18 -18 -17 -17 -17 -17 -17 -18 -17 -16 -17 -16 -16 -16 -15 -15 -15 -14 -14 -14 -14 -14 -14 -14 -14 -14 -16 -15 -16 -15 -14 -15 -15 -15 -15 -15 -14 -13
-20 -20 -20 -19 -19 -19 -19 -19 -19 -18 -16 -18 -18 -17 -17 -17 -17 -17 -16 -16 -16 -16 -15 -15 -15 -15 -15 -15 -14 -14 -14 -14 -14 -16 -14 -14 -14 -14 -15 -15 -14 -15 -15 -14 -13
-21 -21 -20 -20 -20 -19 -19 -19 -19 -19 -17 -18 -18 -18 -17 -17 -17 -17 -17 -16 -16 -16 -15 -15 -15 -15 -15 -15 -15 -14 -15 -14 -15 -15 -14 -15 -13 -14 -15 -14 -15 -14 -14 -14 -13
-21 -21 -21 -21 -20 -20 -20 -20 -19 -19 -18 -19 -18 -18 -18 -18 -18 -17 -17 -17 -17 -17 -16 -16 -16 -15 -16 -15 -15 -15 -15 -14 -15 -15 -14 -15 -14 -14 -15 -14 -14 -14 -13 -13 -13
-21 -21 -21 -21 -21 -20 -21 -20 -20 -19 -18 -19 -19 -19 -18 -18 -18 -18 -18 -18 -17 -17 -17 -17 -16 -16 -16 -16 -15 -15 -15 -15 -16 -15 -14 -15 -14 -14 -15 -14 -14 -14 -14 -13 -13
-21 -21 -22 -21 -21 -21 -21 -21 -20 -19 -20 -20 -20 -19 -19 -19 -19 -19 -19 -18 -18 -17 -17 -17 -17 -17 -16 -16 -15 -15 -16 -16 -16 -15 -13 -16 -15 -13 -15 -15 -15 -15 -15 -14 -13
-21 -21 -22 -21 -21 -21 -21 -21 -20 -20 -22 -22 -21 -21 -20 -20 -20 -19 -19 -19 -19 -18 -18 -18 -17 -17 -17 -16 -16 -15 -17 -16 -15 -15 -15 -16 -16 -14 -15 -15 -15 -15 -14 -13 -13
-22 -22 -22 -22 -22 -22 -22 -22 -22 -22 -22 -23 -22 -22 -21 -21 -20 -20 -20 -19 -19 -19 -19 -18 -17 -17 -17 -17 -16 -16 -16 -17 -16 -17 -17 -17 -16 -15 -15 -14 -15 -14 -14 -14 -14
-22 -22 -22 -22 -23 -23 -23 -22 -23 -23 -23 -23 -23 -23 -22 -22 -22 -21 -21 -20 -19 -19 -19 -18 -18 -17 -17 -17 -16 -17 -18 -17 -18 -18 -17 -17 -16 -15 -14 -15 -15 -14 -14 -13 -14
-22 -23 -23 -23 -23 -23 -23 -23 -23 -24 -24 -24 -23 -24 -23 -23 -23 -23 -21 -20 -20 -20 -20 -19 -18 -18 -18 -18 -17 -18 -18 -17 -17 -17 -16 -17 -16 -15 -14 -14 -14 -14 -14 -14 -14
-23 -24 -24 -24 -23 -23 -23 -24 -24 -24 -25 -24 -24 -24 -24 -24 -24 -23 -22 -21 -21 -21 -20 -20 -19 -19 -18 -18 -18 -18 -18 -17 -17 -17 -17 -17 -16 -15 -15 -15 -15 -15 -14 -15 -14
-24 -24 -25 -25 -25 -26 -27 -27 -27 -26 -26 -26 -25 -25 -25 -24 -23 -23 -23 -22 -22 -21 -21 -20 -19 -19 -19 -19 -18 -18 -18 -18 -18 -18 -17 -17 -17 -15 -14 -14 -15 -14 -14 -14 -15
-24 -25 -27 -27 -28 -29 -30 -30 -29 -28 -28 -28 -26 -26 -25 -25 -24 -23 -24 -23 -22 -22 -21 -21 -20 -20 -20 -20 -19 -18 -19 -18 -18 -18 -18 -17 -16 -15 -15 -14 -14 -14 -15 -15 -15
-26 -27 -28 -28 -28 -29 -30 -30 -29 -29 -29 -29 -28 -27 -27 -26 -25 -25 -23 -23 -23 -23 -22 -22 -21 -21 -20 -20 -20 -19 -19 -19 -18 -18 -18 -18 -16 -16 -15 -15 -15 -15 -15 -14 -15
-27 -28 -28 -28 -28 -29 -29 -30 -29 -29 -29 -28 -28 -28 -27 -26 -26 -25 -24 -24 -23 -23 -23 -22 -22 -21 -21 -20 -20 -19 -19 -19 -19 -19 -19 -18 -17 -16 -16 -15 -16 -15 -15 -15 -15
-28 -29 -29 -29 -29 -29 -29 -29 -29 -29 -28 -28 -28 -28 -27 -27 -27 -26 -25 -25 -24 -24 -24 -23 -21 -21 -21 -20 -20 -19 -20 -19 -18 -18 -18 -18 -18 -17 -16 -16 -16 -16 -15 -15 -15

GFSSW_500_temp_072.txt.gz
Temp
-10 -10 -10 -10 -10 -10 -10 -10 -11 -11 -10 -10 -10 -10 -10 -10 -11 -10 -10 -10 -10 -10 -10 -10 -10 -10 -10 -9 -9 -9 -8 -8 -8 -9 -10 -11 -13 -13 -11 -11 -12 -13 -13 -14 -13
-10 -10 -10 -10 -10 -10 -10 -10 -10 -11 -11 -10 -11 -11 -11 -11 -11 -10 -10 -10 -11 -10 -10 -10 -10 -10 -10 -10 -9 -9 -9 -9 -9 -10 -10 -10 -12 -14 -12 -12 -14 -13 -14 -15 -14
-10 -10 -10 -11 -11 -11 -11 -11 -11 -11 -11 -11 -11 -12 -12 -12 -11 -11 -11 -11 -11 -11 -11 -11 -11 -10 -10 -10 -10 -10 -9 -9 -9 -10 -10 -10 -11 -14 -13 -13 -14 -14 -15 -15 -14
-11 -11 -11 -11 -12 -11 -12 -12 -12 -11 -12 -12 -12 -12 -12 -12 -12 -12 -12 -11 -12 -11 -11 -12 -11 -11 -10 -10 -11 -9 -10 -10 -10 -10 -10 -10 -11 -12 -14 -13 -15 -15 -15 -14 -13
-12 -11 -11 -11 -12 -12 -12 -12 -12 -12 -13 -13 -13 -13 -13 -13 -13 -12 -12 -12 -12 -12 -12 -12 -12 -11 -11 -11 -11 -10 -10 -10 -10 -10 -10 -10 -10 -12 -14 -15 -15 -15 -15 -15 -14
-12 -12 -12 -12 -12 -12 -13 -13 -13 -13 -13 -13 -13 -13 -13 -13 -13 -13 -14 -14 -13 -13 -13 -13 -13 -12 -12 -11 -11 -11 -10 -11 -10 -10 -10 -11 -11 -12 -14 -15 -15 -15 -15 -14 -14
-13 -13 -12 -12 -12 -13 -14 -14 -13 -14 -14 -14 -14 -14 -14 -14 -14 -15 -16 -16 -15 -14 -14 -13 -13 -13 -12 -12 -12 -11 -11 -11 -11 -11 -11 -12 -11 -12 -14 -15 -15 -15 -15 -15 -14
-13 -13 -13 -13 -13 -14 -14 -14 -14 -14 -15 -15 -15 -14 -14 -15 -15 -15 -18 -18 -16 -15 -15 -14 -14 -13 -13 -13 -12 -12 -11 -11 -12 -11 -12 -13 -11 -14 -15 -16 -16 -16 -15 -15 -14
-14 -14 -14 -14 -15 -15 -15 -15 -15 -15 -15 -15 -15 -15 -15 -16 -16 -17 -18 -18 -18 -16 -16 -15 -14 -14 -14 -14 -13 -12 -11 -11 -11 -12 -12 -13 -12 -15 -16 -15 -16 -16 -15 -15 -15
-15 -15 -15 -15 -15 -15 -16 -16 -16 -15 -16 -16 -16 -16 -16 -16 -16 -17 -18 -18 -18 -18 -17 -16 -15 -14 -14 -15 -13 -12 -12 -12 -12 -13 -13 -13 -13 -15 -15 -16 -16 -16 -16 -15 -15
-16 -16 -16 -16 -16 -16 -17 -17 -16 -16 -16 -16 -17 -17 -17 -17 -17 -17 -19 -19 -19 -18 -17 -17 -16 -14 -15 -14 -13 -13 -13 -12 -12 -13 -14 -13 -13 -14 -15 -15 -15 -15 -15 -15 -15
-17 -17 -17 -17 -17 -17 -17 -17 -17 -17 -17 -18 -17 -17 -18 -17 -17 -20 -19 -19 -18 -17 -17 -16 -16 -16 -14 -15 -14 -13 -13 -13 -13 -14 -14 -14 -14 -14 -14 -15 -15 -15 -14 -15 -15
-18 -18 -17 -17 -17 -18 -18 -18 -18 -18 -16 -19 -18 -18 -18 -18 -18 -19 -17 -18 -19 -18 -18 -17 -16 -16 -15 -15 -14 -14 -14 -14 -13 -15 -14 -13 -14 -14 -15 -15 -15 -15 -15 -14 -15
-18 -19 -20 -19 -19 -20 -20 -19 -19 -19 -17 -18 -18 -18 -18 -18 -18 -19 -18 -19 -19 -19 -18 -17 -17 -16 -15 -15 -14 -14 -15 -14 -14 -14 -14 -14 -12 -14 -15 -15 -15 -15 -15 -15 -15
-20 -21 -21 -21 -20 -20 -20 -20 -20 -20 -19 -19 -19 -18 -18 -18 -18 -18 -19 -19 -19 -18 -17 -17 -17 -16 -16 -16 -15 -15 -15 -15 -14 -14 -14 -14 -13 -12 -15 -15 -15 -15 -15 -15 -15
-21 -21 -21 -21 -21 -21 -21 -21 -20 -20 -20 -20 -20 -19 -19 -19 -18 -18 -18 -19 -19 -18 -18 -18 -17 -17 -17 -16 -16 -15 -16 -15 -15 -15 -13 -14 -14 -12 -15 -15 -15 -15 -15 -15 -15
-21 -22 -21 -21 -21 -21 -21 -21 -21 -20 -21 -20 -20 -20 -20 -20 -19 -19 -18 -18 -18 -18 -18 -18 -18 -17 -17 -17 -16 -16 -16 -15 -15 -14 -14 -14 -14 -13 -16 -15 -15 -15 -15 -15 -14
-21 -22 -22 -21 -22 -21 -21 -21 -21 -21 -21 -21 -21 -21 -21 -20 -20 -20 -19 -19 -19 -19 -18 -18 -18 -18 -18 -17 -17 -17 -16 -16 -15 -15 -15 -15 -15 -15 -15 -15 -15 -15 -15 -15 -15
-22 -22 -22 -22 -22 -22 -22 -22 -22 -22 -22 -22 -22 -22 -22 -21 -20 -20 -20 -20 -20 -19 -19 -19 -19 -18 -18 -18 -17 -17 -16 -16 -16 -16 -16 -16 -16 -15 -14 -15 -15 -15 -15 -15 -15
-22 -22 -22 -22 -22 -22 -22 -22 -23 -23 -23 -23 -23 -23 -23 -22 -22 -21 -21 -21 -21 -20 -20 -19 -19 -19 -18 -18 -18 -17 -17 -16 -17 -17 -17 -17 -16 -15 -15 -15 -16 -15 -15 -14 -15
-22 -22 -22 -22 -22 -23 -23 -23 -23 -24 -23 -24 -24 -24 -23 -23 -23 -23 -22 -21 -21 -21 -21 -20 -19 -19 -19 -19 -18 -18 -17 -17 -17 -18 -18 -18 -16 -15 -15 -16 -16 -15 -14 -14 -15
-23 -23 -23 -23 -23 -23 -23 -23 -23 -23 -24 -24 -24 -24 -24 -24 -23 -23 -23 -22 -22 -22 -21 -21 -20 -20 -20 -19 -19 -18 -17 -17 -18 -18 -18 -18 -17 -15 -15 -16 -16 -15 -15 -15 -15
-23 -23 -24 -24 -24 -24 -24 -25 -25 -26 -26 -26 -26 -25 -25 -24 -23 -24 -24 -23 -23 -23 -21 -21 -21 -21 -21 -20 -19 -18 -18 -18 -18 -18 -18 -18 -17 -17 -16 -15 -15 -15 -15 -14 -15
-24 -24 -24 -24 -25 -26 -27 -27 -27 -29 -30 -29 -28 -27 -26 -25 -24 -24 -24 -23 -24 -23 -23 -22 -22 -21 -21 -21 -20 -19 -19 -19 -18 -18 -18 -18 -17 -17 -16 -15 -15 -15 -15 -14 -14
-24 -25 -26 -27 -27 -27 -27 -27 -28 -30 -30 -30 -29 -29 -28 -26 -25 -24 -24 -24 -24 -23 -23 -23 -22 -22 -22 -21 -21 -20 -19 -19 -18 -19 -18 -18 -18 -16 -16 -16 -15 -15 -16 -15 -15
-25 -26 -27 -28 -28 -28 -28 -28 -29 -30 -30 -29 -28 -29 -28 -27 -27 -26 -25 -24 -23 -23 -23 -23 -23 -23 -22 -22 -21 -20 -20 -19 -19 -18 -18 -18 -18 -17 -16 -16 -16 -16 -16 -15 -15
-26 -27 -28 -28 -28 -28 -29 -29 -29 -29 -29 -29 -29 -28 -28 -28 -27 -27 -26 -26 -25 -24 -24 -24 -24 -23 -23 -22 -21 -20 -20 -19 -19 -19 -19 -19 -18 -18 -17 -16 -17 -16 -16 -15 -15

GFSSW_500_temp_075.txt.gz
Temp
-9 -9 -9 -9 -9 -9 -9 -9 -9 -9 -9 -10 -10 -11 -12 -11 -11 -11 -11 -11 -11 -11 -10 -10 -10 -10 -10 -10 -10 -10 -9 -9 -8 -9 -10 -12 -11 -10 -10 -9 -9 -9 -10 -10 -11
-9 -9 -9 -9 -9 -9 -9 -9 -9 -9 -9 -9 -11 -11 -12 -12 -12 -12 -11 -11 -12 -11 -11 -11 -10 -10 -10 -10 -10 -10 -9 -9 -10 -11 -11 -11 -11 -11 -10 -10 -10 -10 -10 -11 -12
-10 -9 -10 -10 -10 -9 -9 -9 -9 -9 -10 -10 -10 -11 -11 -12 -12 -13 -12 -12 -12 -12 -12 -12 -11 -11 -11 -11 -11 -10 -10 -10 -10 -11 -10 -10 -10 -10 -10 -10 -10 -10 -10 -11 -12
-10 -10 -10 -10 -9 -10 -10 -10 -10 -10 -10 -10 -10 -11 -12 -12 -13 -12 -13 -13 -13 -13 -13 -12 -12 -12 -11 -11 -11 -11 -11 -11 -10 -11 -10 -10 -10 -10 -10 -10 -12 -11 -11 -12 -13
-11 -11 -11 -11 -10 -10 -10 -10 -11 -11 -11 -11 -11 -11 -13 -13 -13 -13 -13 -13 -13 -13 -13 -14 -13 -12 -12 -12 -12 -11 -12 -11 -11 -11 -11 -10 -10 -10 -10 -11 -13 -12 -12 -13 -14
-11 -12 -11 -12 -11 -11 -11 -11 -11 -11 -11 -12 -12 -13 -13 -14 -14 -14 -13 -14 -14 -14 -14 -15 -14 -13 -12 -12 -12 -12 -11 -11 -11 -12 -11 -11 -10 -10 -11 -13 -13 -13 -13 -14 -14
-12 -12 -11 -11 -12 -12 -12 -12 -12 -12 -12 -13 -13 -14 -14 -15 -15 -15 -14 -14 -15 -15 -16 -18 -16 -15 -13 -14 -13 -13 -12 -12 -12 -12 -11 -11 -10 -11 -12 -13 -13 -14 -15 -15 -15
-12 -12 -12 -13 -13 -13 -13 -13 -13 -13 -14 -14 -14 -14 -14 -15 -15 -15 -15 -15 -15 -16 -18 -18 -18 -16 -15 -15 -14 -13 -13 -13 -13 -13 -12 -11 -10 -12 -12 -12 -13 -15 -15 -15 -15
-13 -14 -14 -14 -14 -15 -15 -14 -14 -15 -15 -15 -15 -15 -15 -16 -16 -15 -15 -16 -16 -19 -19 -19 -18 -18 -16 -15 -15 -14 -14 -13 -13 -13 -12 -12 -11 -12 -12 -12 -14 -16 -15 -15 -15
-15 -15 -14 -14 -14 -15 -15 -15 -15 -15 -16 -16 -16 -16 -16 -16 -16 -16 -17 -17 -18 -18 -19 -19 -19 -18 -17 -17 -16 -15 -14 -13 -13 -14 -13 -12 -11 -11 -12 -12 -14 -15 -15 -15 -15
-15 -15 -14 -15 -15 -16 -16 -16 -16 -16 -17 -17 -17 -17 -17 -16 -17 -17 -17 -17 -18 -20 -19 -19 -18 -18 -19 -18 -17 -16 -14 -14 -14 -14 -13 -13 -11 -11 -12 -13 -14 -15 -15 -15 -15
-16 -15 -15 -16 -16 -16 -17 -17 -17 -16 -17 -17 -17 -17 -17 -17 -18 -18 -18 -18 -18 -19 -19 -19 -19 -18 -18 -18 -16 -15 -15 -14 -14 -14 -13 -13 -12 -12 -12 -13 -14 -15 -15 -15 -16
-17 -17 -17 -17 -17 -17 -17 -17 -17 -17 -16 -18 -19 -18 -17 -17 -18 -19 -18 -18 -19 -21 -20 -20 -19 -19 -18 -18 -17 -16 -15 -14 -14 -14 -14 -13 -12 -12 -13 -13 -14 -14 -15 -15 -15
-18 -18 -18 -17 -18 -18 -18 -18 -18 -18 -18 -18 -18 -18 -18 -18 -18 -18 -18 -19 -19 -19 -20 -19 -19 -19 -19 -18 -17 -16 -15 -15 -15 -14 -14 -13 -12 -12 -13 -13 -14 -14 -15 -15 -15
-19 -19 -19 -19 -19 -19 -19 -19 -19 -20 -19 -19 -19 -19 -19 -19 -19 -19 -18 -19 -19 -19 -19 -19 -19 -19 -19 -18 -17 -16 -16 -16 -15 -14 -14 -14 -13 -12 -13 -13 -14 -14 -15 -15 -15
-20 -20 -20 -21 -21 -20 -20 -20 -20 -20 -20 -20 -19 -20 -20 -19 -19 -19 -19 -19 -19 -19 -20 -20 -20 -19 -19 -18 -17 -17 -17 -16 -16 -15 -14 -14 -14 -12 -13 -14 -14 -14 -15 -15 -15
-21 -21 -21 -21 -21 -21 -21 -21 -21 -21 -21 -20 -20 -20 -20 -20 -20 -19 -19 -19 -19 -19 -19 -20 -20 -19 -19 -18 -18 -17 -17 -16 -16 -16 -15 -14 -13 -13 -14 -14 -14 -15 -15 -15 -14
-22 -22 -22 -22 -21 -21 -21 -21 -21 -21 -21 -21 -21 -21 -21 -20 -20 -20 -20 -20 -20 -20 -19 -19 -19 -19 -19 -18 -18 -18 -17 -17 -17 -16 -15 -15 -14 -14 -15 -15 -15 -15 -15 -15 -15
-22 -22 -22 -22 -21 -21 -22 -22 -22 -21 -21 -21 -21 -21 -21 -21 -21 -20 -20 -20 -20 -20 -20 -20 -20 -19 -19 -19 -18 -18 -18 -17 -17 -17 -16 -15 -16 -14 -15 -15 -16 -15 -15 -15 -15
-22 -22 -22 -22 -22 -22 -22 -22 -22 -22 -22 -21 -22 -22 -22 -22 -22 -21 -21 -20 -20 -20 -21 -20 -20 -20 -19 -19 -19 -18 -18 -18 -18 -17 -16 -17 -16 -15 -15 -15 -16 -15 -16 -16 -15
-22 -22 -22 -22 -22 -22 -22 -22 -22 -23 -23 -23 -23 -23 -23 -23 -23 -23 -22 -21 -21 -22 -21 -21 -20 -20 -20 -20 -19 -19 -18 -18 -19 -18 -18 -17 -17 -16 -15 -15 -15 -16 -16 -16 -15
-23 -23 -23 -22 -22 -22 -22 -23 -23 -23 -23 -23 -23 -24 -24 -24 -24 -24 -23 -23 -22 -22 -22 -22 -21 -21 -21 -21 -20 -19 -19 -19 -19 -19 -18 -18 -17 -16 -16 -16 -16 -16 -16 -16 -15
-23 -23 -23 -23 -23 -23 -23 -23 -24 -25 -26 -26 -27 -26 -26 -25 -25 -24 -24 -23 -23 -23 -23 -22 -22 -22 -21 -21 -20 -20 -20 -20 -19 -19 -18 -18 -17 -17 -17 -17 -16 -16 -16 -16 -16
-24 -23 -23 -23 -23 -24 -24 -25 -26 -27 -27 -27 -28 -29 -29 -28 -27 -26 -25 -24 -24 -24 -23 -22 -22 -22 -21 -21 -21 -20 -20 -20 -19 -19 -19 -18 -18 -17 -17 -17 -16 -16 -16 -16 -16
-24 -24 -24 -24 -24 -25 -26 -27 -27 -28 -28 -29 -29 -29 -29 -29 -29 -27 -26 -24 -25 -23 -23 -23 -22 -22 -22 -22 -21 -21 -21 -20 -20 -19 -19 -18 -18 -17 -18 -17 -16 -16 -15 -15 -16
-24 -24 -24 -25 -25 -27 -27 -27 -27 -28 -28 -29 -29 -29 -29 -29 -29 -28 -27 -25 -25 -24 -23 -24 -23 -23 -23 -22 -22 -22 -21 -21 -20 -19 -19 -18 -18 -17 -18 -17 -17 -15 -16 -16 -15
-24 -24 -25 -25 -26 -27 -27 -27 -27 -28 -29 -29 -29 -29 -29 -29 -29 -28 -27 -26 -25 -25 -24 -23 -24 -23 -23 -23 -22 -22 -22 -21 -20 -20 -19 -19 -18 -18 -18 -18 -17 -17 -16 -16 -16

GFSSW_500_temp_078.txt.gz
Temp
-10 -10 -10 -9 -9 -9 -9 -9 -9 -8 -9 -9 -8 -8 -9 -9 -9 -10 -10 -11 -11 -11 -11 -11 -11 -11 -11 -10 -10 -10 -10 -9 -9 -9 -10 -11 -11 -11 -10 -9 -9 -9 -9 -9 -10
-10 -10 -10 -9 -9 -9 -9 -9 -9 -9 -9 -9 -8 -9 -9 -9 -9 -9 -10 -10 -11 -11 -11 -12 -12 -12 -11 -11 -11 -10 -10 -10 -10 -10 -10 -11 -11 -11 -10 -9 -9 -9 -9 -9 -10
-10 -10 -10 -10 -10 -10 -10 -9 -9 -9 -9 -9 -9 -9 -9 -9 -10 -10 -10 -11 -11 -12 -12 -12 -12 -12 -12 -12 -11 -11 -10 -10 -10 -11 -11 -11 -11 -11 -10 -9 -10 -10 -9 -9 -10
-10 -10 -11 -11 -11 -11 -10 -10 -10 -9 -10 -10 -10 -10 -10 -10 -11 -9 -11 -11 -12 -12 -12 -13 -13 -13 -12 -12 -12 -11 -11 -11 -11 -11 -11 -11 -11 -11 -10 -10 -10 -10 -10 -10 -10
-11 -11 -11 -11 -11 -11 -10 -10 -10 -10 -11 -11 -11 -11 -11 -11 -11 -11 -11 -12 -13 -13 -13 -13 -13 -13 -13 -13 -13 -12 -12 -12 -11 -11 -12 -11 -11 -11 -11 -10 -11 -11 -10 -10 -10
-11 -11 -11 -11 -11 -11 -10 -11 -11 -11 -11 -11 -11 -12 -11 -12 -11 -12 -12 -13 -14 -14 -14 -14 -14 -14 -14 -15 -15 -15 -13 -12 -12 -12 -12 -12 -11 -11 -11 -12 -11 -11 -10 -11 -11
-11 -11 -11 -11 -11 -11 -11 -11 -11 -12 -12 -12 -12 -12 -12 -13 -13 -14 -14 -14 -14 -14 -15 -15 -15 -15 -15 -17 -17 -16 -14 -13 -13 -13 -12 -12 -11 -11 -12 -12 -11 -11 -11 -11 -11
-12 -12 -12 -11 -11 -12 -11 -11 -12 -13 -13 -13 -13 -13 -14 -14 -14 -15 -15 -14 -15 -15 -16 -15 -15 -16 -16 -18 -18 -17 -16 -14 -14 -14 -13 -13 -11 -12 -13 -12 -11 -11 -11 -11 -12
-12 -12 -12 -12 -12 -13 -13 -14 -14 -14 -14 -14 -13 -14 -15 -15 -15 -15 -15 -15 -15 -16 -16 -16 -16 -18 -19 -19 -18 -18 -17 -16 -15 -15 -14 -13 -12 -12 -13 -12 -12 -11 -11 -11 -12
-13 -13 -13 -14 -15 -15 -14 -15 -15 -14 -14 -15 -15 -15 -15 -15 -16 -16 -16 -16 -16 -16 -16 -17 -19 -19 -19 -19 -19 -19 -17 -16 -15 -15 -15 -14 -12 -13 -13 -12 -12 -12 -11 -12 -13
-15 -15 -15 -15 -15 -15 -15 -15 -15 -15 -15 -15 -15 -16 -16 -16 -17 -17 -17 -16 -16 -17 -17 -18 -19 -19 -19 -20 -19 -19 -18 -17 -16 -16 -15 -14 -13 -13 -13 -12 -12 -12 -12 -12 -13
-15 -15 -15 -15 -15 -15 -16 -15 -15 -16 -17 -16 -16 -16 -16 -17 -17 -17 -17 -17 -18 -18 -17 -18 -19 -20 -20 -20 -19 -19 -18 -18 -17 -17 -16 -14 -14 -13 -13 -13 -13 -12 -12 -13 -14
-15 -15 -15 -15 -15 -16 -16 -16 -16 -17 -17 -17 -17 -17 -17 -17 -17 -18 -18 -18 -18 -18 -18 -19 -19 -20 -20 -19 -19 -19 -19 -18 -17 -17 -16 -15 -13 -13 -13 -13 -12 -12 -12 -13 -14
-16 -16 -16 -16 -16 -17 -17 -17 -17 -17 -17 -17 -18 -18 -18 -18 -18 -18 -18 -18 -19 -19 -19 -19 -20 -20 -21 -20 -19 -19 -19 -18 -18 -17 -16 -15 -13 -13 -13 -13 -13 -12 -13 -13 -14
-17 -17 -17 -17 -17 -17 -18 -18 -18 -18 -18 -18 -19 -19 -19 -19 -19 -19 -19 -19 -19 -19 -19 -19 -19 -20 -21 -20 -20 -20 -19 -18 -18 -17 -15 -15 -14 -13 -13 -13 -13 -13 -13 -14 -15
-18 -18 -18 -19 -18 -18 -18 -18 -18 -19 -19 -19 -19 -19 -20 -20 -19 -19 -19 -19 -19 -19 -19 -19 -19 -19 -20 -20 -20 -20 -19 -19 -17 -17 -16 -16 -14 -13 -13 -13 -12 -13 -13 -14 -14
-19 -20 -20 -20 -20 -20 -20 -20 -19 -20 -20 -19 -20 -20 -20 -20 -20 -20 -19 -19 -20 -19 -20 -20 -20 -20 -20 -20 -20 -20 -19 -18 -17 -17 -16 -15 -14 -14 -14 -14 -12 -13 -13 -13 -14
-20 -21 -21 -21 -21 -21 -21 -21 -21 -20 -20 -20 -20 -21 -20 -20 -20 -20 -20 -20 -20 -20 -19 -20 -20 -20 -20 -20 -20 -20 -20 -18 -18 -17 -16 -15 -15 -14 -14 -14 -13 -14 -14 -14 -14
-21 -22 -22 -22 -22 -22 -21 -21 -21 -21 -21 -21 -21 -21 -21 -21 -21 -21 -21 -21 -20 -20 -20 -20 -20 -20 -20 -20 -21 -20 -19 -18 -18 -17 -16 -16 -16 -15 -15 -15 -14 -15 -14 -15 -15
-23 -23 -22 -22 -22 -22 -22 -22 -22 -22 -22 -22 -21 -21 -21 -21 -22 -21 -22 -21 -21 -21 -20 -20 -21 -20 -21 -20 -20 -20 -19 -19 -18 -18 -17 -17 -16 -16 -15 -15 -15 -15 -15 -15 -15
-24 -23 -23 -22 -22 -22 -22 -22 -22 -22 -22 -22 -22 -22 -22 -22 -22 -23 -23 -22 -22 -21 -21 -21 -21 -21 -21 -21 -20 -20 -20 -19 -19 -18 -17 -17 -17 -16 -16 -16 -16 -16 -16 -16 -16
-23 -23 -23 -23 -22 -22 -22 -22 -22 -22 -22 -22 -22 -22 -23 -23 -23 -23 -23 -24 -23 -22 -22 -22 -22 -22 -22 -21 -21 -20 -20 -20 -19 -18 -18 -18 -17 -16 -17 -17 -16 -16 -16 -16 -16
-23 -23 -23 -23 -23 -23 -22 -22 -22 -23 -23 -24 -25 -26 -26 -26 -26 -25 -25 -25 -24 -24 -23 -23 -22 -22 -21 -21 -21 -20 -20 -20 -20 -19 -18 -18 -18 -17 -17 -16 -17 -17 -17 -16 -16
-24 -23 -23 -23 -23 -23 -23 -23 -23 -24 -26 -26 -27 -27 -27 -28 -28 -27 -26 -26 -26 -24 -24 -24 -23 -23 -23 -22 -21 -21 -21 -20 -20 -19 -19 -18 -18 -18 -17 -17 -16 -17 -17 -17 -16
-24 -24 -24 -23 -23 -23 -24 -24 -25 -26 -26 -27 -27 -27 -29 -29 -29 -28 -29 -27 -27 -25 -24 -24 -23 -23 -22 -22 -21 -21 -21 -21 -20 -20 -19 -19 -18 -18 -18 -17 -16 -16 -17 -17 -16
-24 -24 -24 -24 -24 -24 -24 -25 -26 -26 -26 -27 -27 -28 -29 -28 -29 -29 -28 -28 -27 -26 -25 -23 -23 -23 -23 -21 -22 -21 -21 -21 -20 -20 -19 -19 -19 -18 -18 -17 -17 -16 -16 -16 -16
-24 -24 -24 -24 -24 -24 -25 -25 -26 -26 -26 -27 -27 -28 -29 -29 -29 -29 -29 -29 -28 -26 -24 -24 -23 -23 -23 -23 -22 -22 -22 -22 -21 -20 -20 -19 -19 -19 -19 -18 -18 -17 -16 -16 -15

GFSSW_500_temp_081.txt.gz
Temp
-10 -10 -10 -10 -10 -10 -10 -10 -10 -9 -10 -9 -9 -9 -8 -8 -8 -8 -8 -9 -9 -9 -10 -10 -10 -10 -10 -11 -11 -11 -11 -10 -10 -10 -10 -10 -10 -11 -11 -10 -10 -9 -9 -9 -8
-10 -10 -10 -10 -10 -10 -10 -10 -10 -10 -10 -9 -9 -9 -9 -9 -8 -8 -8 -9 -10 -9 -9 -10 -11 -11 -11 -11 -11 -11 -11 -11 -11 -11 -10 -10 -10 -11 -10 -10 -10 -10 -9 -9 -9
-10 -10 -10 -10 -10 -10 -10 -10 -10 -9 -9 -9 -9 -9 -9 -9 -9 -8 -9 -9 -10 -10 -10 -11 -11 -11 -12 -12 -12 -12 -11 -11 -11 -11 -11 -10 -10 -11 -11 -10 -10 -10 -10 -9 -9
-11 -10 -10 -10 -10 -10 -10 -10 -10 -10 -9 -9 -9 -9 -9 -8 -9 -9 -9 -10 -10 -11 -10 -11 -11 -11 -12 -12 -12 -12 -12 -12 -12 -12 -11 -11 -11 -11 -11 -10 -10 -10 -10 -10 -10
-11 -11 -11 -11 -10 -10 -10 -10 -10 -10 -9 -9 -9 -9 -9 -9 -10 -9 -10 -10 -11 -10 -11 -12 -12 -12 -12 -13 -13 -13 -13 -13 -12 -12 -12 -12 -11 -11 -11 -11 -11 -10 -11 -10 -10
-11 -11 -11 -11 -11 -10 -10 -10 -10 -10 -10 -9 -10 -10 -10 -11 -10 -10 -10 -11 -11 -11 -12 -13 -13 -13 -13 -13 -14 -14 -14 -13 -13 -13 -13 -13 -12 -12 -11 -12 -12 -11 -11 -11 -11
-11 -11 -11 -11 -11 -11 -11 -11 -10 -10 -10 -10 -10 -10 -11 -11 -11 -11 -12 -12 -13 -13 -13 -14 -14 -14 -14 -15 -15 -15 -15 -15 -14 -14 -14 -14 -13 -12 -12 -12 -12 -11 -11 -11 -11
-11 -12 -12 -12 -11 -11 -11 -11 -11 -11 -11 -11 -11 -11 -11 -12 -12 -13 -14 -14 -14 -14 -14 -14 -14 -15 -15 -16 -16 -16 -16 -16 -16 -17 -15 -16 -14 -13 -13 -13 -12 -12 -11 -11 -11
-12 -12 -12 -12 -12 -12 -12 -12 -12 -12 -12 -12 -13 -13 -13 -14 -14 -14 -15 -14 -14 -14 -14 -14 -15 -16 -16 -16 -17 -16 -16 -18 -18 -18 -17 -17 -15 -14 -13 -13 -12 -12 -12 -12 -12
-13 -13 -13 -13 -13 -13 -13 -13 -13 -13 -13 -14 -14 -15 -14 -14 -15 -15 -15 -15 -15 -15 -15 -15 -15 -16 -16 -18 -18 -20 -20 -19 -19 -18 -18 -17 -16 -14 -14 -13 -13 -12 -12 -12 -12
-14 -14 -14 -14 -14 -14 -14 -14 -15 -15 -15 -15 -15 -15 -15 -15 -15 -15 -16 -16 -16 -16 -16 -16 -16 -17 -18 -19 -21 -19 -20 -19 -19 -19 -18 -18 -17 -15 -14 -14 -13 -13 -12 -12 -12
-14 -14 -15 -15 -15 -15 -15 -15 -16 -16 -16 -16 -16 -16 -16 -16 -16 -16 -16 -16 -16 -16 -17 -17 -17 -18 -19 -20 -20 -20 -20 -19 -19 -19 -19 -18 -17 -16 -15 -14 -13 -13 -13 -12 -12
-15 -15 -15 -15 -16 -16 -16 -16 -16 -16 -16 -16 -16 -16 -16 -17 -17 -16 -16 -16 -17 -17 -18 -18 -19 -18 -19 -20 -20 -20 -20 -20 -20 -19 -19 -17 -17 -16 -15 -14 -14 -13 -13 -13 -12
-15 -15 -15 -16 -16 -16 -16 -16 -17 -17 -18 -17 -17 -17 -17 -17 -17 -17 -17 -17 -17 -18 -18 -18 -19 -19 -19 -20 -20 -20 -20 -20 -20 -19 -19 -19 -18 -17 -16 -15 -14 -13 -13 -13 -12
-16 -16 -16 -16 -17 -17 -17 -17 -17 -18 -19 -18 -18 -18 -18 -18 -18 -18 -18 -18 -18 -18 -19 -19 -19 -19 -19 -20 -20 -20 -20 -20 -20 -19 -19 -18 -18 -16 -16 -15 -14 -14 -13 -13 -12
-17 -17 -17 -17 -17 -17 -17 -18 -18 -19 -19 -19 -19 -19 -19 -19 -19 -19 -19 -19 -19 -19 -19 -19 -19 -19 -19 -20 -20 -21 -20 -20 -20 -20 -18 -18 -17 -17 -17 -16 -14 -13 -13 -12 -13
-17 -17 -17 -17 -18 -18 -18 -19 -19 -20 -19 -19 -19 -20 -20 -20 -19 -19 -19 -19 -19 -19 -20 -21 -19 -20 -20 -20 -20 -20 -20 -21 -20 -19 -18 -18 -17 -17 -17 -15 -14 -13 -13 -13 -13
-17 -17 -18 -19 -19 -19 -20 -20 -20 -20 -20 -20 -20 -20 -20 -20 -20 -20 -20 -20 -20 -20 -20 -21 -22 -21 -20 -20 -20 -21 -20 -20 -19 -19 -18 -17 -18 -17 -16 -15 -15 -13 -12 -13 -13
-18 -19 -20 -21 -21 -21 -21 -21 -20 -21 -21 -21 -21 -20 -21 -21 -20 -21 -21 -21 -21 -22 -21 -22 -22 -21 -21 -20 -20 -20 -20 -21 -20 -19 -19 -18 -18 -18 -16 -16 -15 -14 -13 -14 -14
-20 -22 -22 -22 -23 -23 -22 -21 -21 -21 -21 -21 -21 -21 -21 -22 -21 -21 -21 -22 -21 -21 -21 -21 -22 -22 -22 -20 -20 -20 -20 -19 -20 -19 -19 -17 -17 -16 -16 -16 -15 -14 -14 -15 -15
-22 -23 -23 -23 -23 -23 -22 -22 -22 -22 -22 -22 -21 -21 -21 -21 -21 -21 -21 -23 -21 -22 -22 -21 -22 -22 -23 -21 -21 -20 -20 -20 -20 -19 -18 -18 -17 -17 -17 -16 -15 -14 -14 -15 -15
-23 -23 -24 -24 -23 -23 -23 -22 -22 -22 -22 -22 -21 -21 -21 -22 -22 -22 -23 -23 -24 -22 -22 -22 -21 -21 -23 -23 -22 -22 -20 -20 -19 -19 -19 -18 -18 -18 -17 -16 -16 -16 -15 -15 -15
-24 -25 -24 -23 -23 -23 -23 -22 -22 -22 -22 -22 -22 -22 -23 -24 -25 -25 -26 -25 -25 -24 -24 -23 -22 -21 -22 -22 -22 -20 -20 -19 -19 -19 -19 -19 -18 -18 -17 -17 -17 -16 -16 -16 -16
-25 -24 -24 -23 -23 -23 -23 -23 -23 -23 -23 -23 -23 -24 -25 -26 -26 -26 -27 -26 -26 -26 -25 -25 -23 -22 -22 -21 -21 -20 -21 -20 -20 -20 -20 -19 -19 -18 -17 -17 -17 -16 -16 -16 -16
-24 -24 -24 -24 -24 -23 -23 -23 -23 -24 -24 -24 -25 -25 -26 -26 -27 -28 -28 -28 -28 -28 -26 -25 -24 -23 -22 -22 -21 -20 -20 -20 -20 -20 -20 -20 -19 -19 -18 -17 -17 -16 -17 -17 -16
-24 -24 -24 -24 -24 -24 -24 -24 -24 -25 -25 -25 -25 -26 -26 -27 -28 -28 -28 -28 -28 -28 -26 -25 -24 -23 -23 -22 -22 -21 -22 -21 -21 -20 -20 -20 -20 -19 -18 -18 -17 -17 -16 -16 -17
-25 -24 -24 -24 -24 -24 -24 -24 -25 -25 -25 -25 -26 -26 -26 -27 -28 -28 -28 -28 -28 -28 -27 -26 -25 -24 -23 -23 -22 -22 -21 -21 -21 -21 -21 -20 -19 -19 -18 -18 -18 -17 -17 -16 -16

GFSSW_500_temp_084.txt.gz
Temp
-10 -10 -10 -9 -9 -9 -9 -9 -9 -9 -9 -10 -10 -9 -9 -9 -9 -8 -8 -8 -8 -8 -8 -8 -9 -10 -9 -10 -10 -11 -9 -8 -10 -10 -10 -11 -11 -12 -10 -10 -10 -10 -10 -11 -9
-10 -10 -10 -10 -10 -10 -10 -9 -9 -9 -10 -10 -10 -9 -9 -9 -9 -8 -8 -8 -7 -8 -8 -8 -8 -9 -10 -10 -11 -10 -10 -10 -11 -11 -11 -11 -12 -11 -11 -10 -10 -10 -10 -10 -10
-10 -10 -10 -11 -10 -10 -10 -10 -10 -10 -10 -10 -10 -9 -9 -9 -9 -8 -8 -8 -7 -8 -8 -8 -9 -10 -10 -11 -11 -11 -9 -11 -11 -11 -12 -11 -11 -11 -10 -10 -11 -10 -11 -10 -10
-11 -11 -10 -10 -10 -10 -10 -10 -10 -10 -10 -10 -10 -9 -9 -9 -9 -8 -8 -8 -8 -8 -9 -9 -9 -10 -10 -10 -11 -10 -10 -10 -11 -12 -12 -12 -12 -11 -11 -11 -11 -11 -10 -10 -10
-11 -11 -11 -11 -10 -11 -11 -10 -10 -10 -10 -10 -10 -10 -9 -9 -9 -8 -8 -8 -9 -9 -10 -10 -10 -10 -10 -10 -11 -11 -11 -11 -12 -12 -13 -13 -12 -12 -11 -12 -12 -11 -11 -10 -10
-11 -11 -11 -11 -11 -11 -11 -11 -11 -10 -11 -11 -10 -10 -10 -10 -9 -9 -9 -9 -9 -10 -10 -10 -11 -11 -10 -11 -11 -12 -12 -12 -12 -12 -13 -14 -13 -14 -12 -13 -13 -12 -12 -12 -11
-11 -11 -11 -11 -12 -11 -11 -11 -11 -11 -11 -11 -10 -10 -10 -10 -10 -9 -10 -10 -11 -11 -11 -11 -11 -11 -12 -13 -13 -13 -13 -14 -14 -14 -14 -15 -14 -14 -13 -14 -13 -13 -12 -12 -12
-11 -11 -11 -11 -11 -12 -12 -12 -12 -12 -12 -11 -11 -11 -11 -11 -11 -11 -11 -12 -12 -11 -11 -12 -13 -14 -14 -14 -14 -14 -14 -15 -14 -16 -15 -17 -13 -14 -15 -15 -14 -13 -13 -13 -12
-12 -12 -12 -12 -12 -12 -12 -12 -12 -12 -12 -12 -12 -12 -12 -12 -12 -12 -12 -12 -12 -13 -13 -14 -14 -14 -14 -14 -14 -15 -15 -16 -15 -16 -17 -19 -14 -15 -16 -16 -15 -14 -13 -13 -13
-13 -13 -13 -13 -13 -13 -13 -13 -12 -12 -13 -13 -13 -13 -13 -13 -13 -13 -13 -13 -14 -15 -15 -15 -15 -15 -15 -16 -15 -16 -16 -16 -16 -17 -18 -18 -16 -17 -17 -17 -16 -15 -14 -13 -13
-13 -13 -13 -13 -14 -14 -13 -14 -14 -14 -13 -14 -14 -14 -13 -14 -14 -14 -15 -16 -16 -15 -15 -15 -15 -16 -16 -16 -15 -15 -16 -16 -17 -18 -18 -18 -18 -18 -18 -17 -17 -15 -14 -14 -13
-13 -13 -13 -13 -14 -14 -14 -15 -15 -15 -15 -15 -15 -15 -15 -15 -15 -16 -16 -16 -16 -16 -16 -16 -15 -17 -17 -17 -17 -17 -17 -17 -17 -18 -19 -19 -19 -18 -18 -18 -17 -17 -15 -14 -14
-13 -13 -14 -14 -14 -15 -15 -15 -16 -15 -16 -16 -16 -16 -16 -16 -16 -16 -17 -17 -16 -16 -17 -16 -17 -17 -17 -18 -18 -18 -19 -19 -18 -19 -19 -19 -19 -19 -18 -18 -18 -17 -15 -14 -14
-14 -14 -15 -15 -15 -15 -16 -16 -16 -16 -17 -16 -16 -17 -17 -17 -17 -17 -17 -17 -17 -17 -17 -17 -18 -18 -18 -18 -18 -18 -19 -19 -20 -20 -19 -20 -19 -18 -17 -17 -17 -17 -15 -15 -14
-15 -16 -15 -15 -16 -16 -16 -16 -17 -17 -19 -17 -17 -17 -18 -18 -18 -17 -18 -18 -18 -18 -18 -18 -18 -18 -18 -19 -19 -18 -19 -19 -19 -20 -20 -19 -19 -17 -18 -18 -17 -17 -17 -15 -15
-16 -16 -16 -16 -16 -16 -17 -17 -18 -19 -20 -19 -18 -19 -19 -19 -19 -18 -19 -18 -18 -18 -18 -18 -19 -18 -18 -19 -19 -19 -19 -19 -20 -20 -19 -18 -19 -17 -18 -17 -15 -16 -16 -17 -14
-17 -16 -17 -17 -17 -17 -17 -19 -20 -21 -20 -19 -19 -20 -19 -19 -19 -19 -19 -19 -19 -19 -19 -20 -19 -19 -19 -19 -19 -19 -19 -19 -19 -20 -18 -18 -17 -17 -16 -16 -15 -16 -16 -14 -13
-17 -17 -17 -17 -18 -17 -18 -20 -21 -22 -20 -20 -20 -20 -20 -20 -20 -20 -20 -19 -20 -20 -20 -21 -21 -21 -21 -20 -20 -19 -19 -19 -20 -19 -18 -18 -17 -15 -16 -17 -16 -16 -15 -14 -13
-17 -17 -18 -18 -19 -18 -20 -21 -21 -21 -21 -21 -21 -21 -21 -20 -20 -20 -20 -20 -20 -21 -23 -22 -21 -21 -21 -21 -21 -20 -19 -20 -19 -19 -18 -18 -18 -16 -16 -16 -16 -15 -15 -14 -14
-18 -18 -19 -19 -21 -21 -21 -21 -22 -22 -21 -21 -21 -21 -21 -21 -21 -20 -20 -21 -21 -21 -21 -21 -21 -21 -21 -21 -21 -20 -20 -19 -19 -19 -19 -18 -19 -18 -17 -17 -16 -15 -14 -14 -14
-19 -20 -22 -22 -22 -22 -23 -22 -22 -22 -22 -21 -21 -21 -21 -21 -21 -21 -20 -20 -21 -22 -22 -22 -21 -20 -21 -21 -21 -21 -20 -19 -19 -19 -19 -18 -18 -17 -17 -17 -17 -16 -15 -14 -15
-22 -23 -23 -23 -23 -24 -24 -23 -22 -22 -22 -22 -22 -21 -21 -21 -21 -21 -21 -21 -22 -23 -23 -23 -22 -21 -21 -22 -21 -21 -21 -20 -19 -19 -19 -18 -18 -18 -18 -18 -17 -16 -15 -15 -15
-24 -24 -24 -24 -24 -24 -23 -23 -22 -22 -22 -22 -22 -22 -21 -22 -22 -22 -23 -23 -23 -24 -25 -24 -24 -23 -22 -22 -21 -21 -21 -20 -20 -19 -19 -19 -18 -19 -18 -18 -17 -17 -17 -16 -16
-24 -25 -25 -25 -24 -24 -23 -23 -23 -22 -22 -22 -22 -22 -22 -23 -23 -24 -24 -25 -25 -26 -26 -26 -25 -24 -23 -22 -22 -21 -21 -20 -21 -20 -19 -20 -19 -19 -18 -18 -17 -17 -17 -16 -16
-26 -26 -25 -24 -24 -24 -23 -23 -23 -23 -23 -23 -23 -23 -24 -24 -25 -25 -25 -26 -27 -27 -27 -27 -26 -26 -24 -22 -21 -21 -21 -21 -21 -20 -20 -20 -20 -19 -18 -18 -18 -18 -17 -17 -17
-26 -25 -25 -24 -24 -24 -24 -24 -23 -23 -23 -23 -24 -24 -24 -25 -25 -26 -26 -27 -27 -27 -27 -27 -26 -26 -25 -23 -22 -21 -22 -21 -21 -19 -20 -20 -20 -19 -19 -19 -19 -18 -18 -17 -17
-26 -25 -25 -24 -24 -24 -24 -24 -24 -24 -24 -24 -24 -24 -25 -25 -26 -26 -26 -27 -28 -28 -27 -27 -26 -26 -25 -24 -23 -22 -21 -20 -21 -21 -21 -21 -19 -19 -19 -19 -19 -19 -18 -18 -17

GFSSW_500_temp_087.txt.gz
Temp
-9 -10 -10 -10 -10 -10 -10 -10 -9 -9 -9 -9 -9 -9 -9 -9 -9 -9 -9 -9 -8 -8 -8 -8 -8 -8 -7 -8 -9 -9 -7 -7 -9 -9 -10 -10 -11 -11 -11 -10 -11 -13 -14 -12 -11
-10 -10 -10 -10 -10 -10 -10 -10 -10 -10 -10 -9 -9 -9 -9 -9 -9 -9 -9 -9 -8 -8 -8 -8 -8 -8 -8 -9 -8 -8 -8 -9 -10 -10 -10 -10 -11 -11 -11 -11 -10 -10 -11 -12 -11
-10 -10 -10 -10 -10 -10 -10 -10 -10 -10 -10 -10 -9 -9 -9 -9 -9 -9 -9 -9 -9 -9 -8 -8 -8 -8 -8 -8 -9 -9 -7 -10 -10 -10 -10 -10 -10 -11 -11 -11 -12 -11 -10 -11 -11
-11 -11 -11 -11 -11 -11 -11 -11 -11 -10 -10 -10 -10 -10 -10 -9 -10 -9 -9 -9 -9 -9 -8 -8 -8 -8 -8 -9 -11 -9 -9 -9 -10 -11 -11 -11 -11 -11 -11 -11 -12 -12 -12 -11 -11
-12 -12 -11 -11 -12 -12 -11 -11 -11 -11 -11 -11 -10 -10 -10 -10 -10 -9 -10 -9 -9 -9 -9 -9 -9 -9 -9 -9 -10 -10 -11 -10 -10 -10 -10 -11 -10 -12 -12 -12 -12 -12 -13 -12 -12
-12 -12 -12 -12 -12 -12 -12 -12 -11 -11 -11 -11 -11 -10 -10 -10 -10 -10 -10 -10 -9 -9 -9 -10 -10 -10 -10 -10 -10 -11 -10 -10 -10 -11 -11 -11 -11 -13 -13 -14 -14 -14 -14 -14 -14
-12 -12 -12 -12 -12 -12 -12 -12 -11 -11 -11 -11 -11 -10 -10 -11 -10 -10 -11 -10 -10 -10 -10 -11 -11 -11 -11 -11 -11 -11 -11 -11 -11 -12 -13 -14 -13 -13 -14 -15 -14 -14 -15 -15 -14
-12 -12 -12 -12 -12 -12 -12 -12 -12 -12 -12 -11 -11 -11 -11 -11 -11 -10 -11 -11 -11 -11 -12 -12 -12 -12 -12 -12 -12 -11 -12 -13 -14 -14 -14 -16 -14 -14 -15 -15 -15 -15 -15 -15 -14
-12 -12 -12 -12 -12 -12 -12 -12 -12 -12 -12 -12 -12 -12 -12 -12 -12 -12 -12 -12 -12 -12 -12 -13 -12 -12 -13 -13 -12 -14 -14 -14 -13 -14 -15 -16 -15 -14 -14 -14 -15 -15 -15 -14 -14
-13 -13 -13 -12 -13 -13 -13 -12 -12 -13 -13 -13 -12 -12 -12 -13 -13 -13 -13 -13 -13 -13 -14 -14 -13 -13 -15 -14 -14 -15 -15 -15 -15 -15 -17 -16 -15 -15 -15 -15 -15 -16 -16 -16 -16
-13 -13 -13 -13 -13 -13 -13 -13 -13 -13 -13 -13 -13 -13 -13 -14 -14 -14 -14 -14 -13 -13 -14 -14 -13 -15 -15 -15 -15 -16 -16 -15 -15 -16 -18 -16 -16 -16 -17 -18 -18 -18 -18 -18 -16
-14 -14 -14 -14 -14 -14 -15 -13 -14 -14 -13 -14 -14 -14 -14 -14 -14 -15 -14 -14 -14 -15 -15 -15 -15 -16 -16 -16 -16 -16 -16 -16 -16 -17 -18 -17 -16 -16 -17 -17 -17 -18 -18 -18 -17
-14 -15 -15 -15 -15 -14 -14 -14 -14 -14 -15 -15 -15 -15 -15 -15 -15 -15 -15 -15 -16 -16 -16 -16 -16 -16 -16 -16 -16 -17 -18 -17 -17 -18 -17 -18 -16 -17 -17 -18 -18 -18 -18 -18 -17
-15 -15 -16 -15 -16 -15 -14 -15 -15 -15 -15 -15 -16 -16 -16 -16 -16 -16 -16 -17 -17 -17 -17 -17 -17 -17 -17 -17 -18 -16 -18 -18 -18 -18 -18 -18 -15 -16 -17 -18 -18 -18 -18 -18 -17
-16 -16 -16 -16 -15 -15 -15 -15 -16 -16 -16 -16 -16 -17 -17 -17 -17 -16 -18 -18 -18 -18 -18 -18 -18 -18 -18 -18 -18 -17 -18 -18 -18 -18 -18 -17 -17 -15 -17 -17 -18 -17 -16 -17 -18
-17 -16 -16 -16 -16 -16 -16 -16 -16 -16 -17 -16 -17 -18 -18 -18 -18 -17 -18 -18 -18 -18 -19 -18 -18 -19 -18 -18 -18 -18 -18 -18 -18 -18 -18 -18 -17 -18 -17 -17 -16 -16 -15 -16 -16
-17 -16 -17 -16 -17 -16 -16 -17 -17 -17 -19 -18 -17 -19 -19 -19 -19 -19 -18 -19 -19 -19 -19 -19 -19 -19 -19 -19 -19 -19 -19 -19 -18 -18 -18 -18 -17 -18 -18 -16 -16 -16 -16 -15 -16
-17 -17 -17 -17 -17 -17 -17 -17 -18 -20 -19 -18 -19 -20 -20 -20 -20 -20 -19 -20 -20 -20 -19 -19 -18 -20 -19 -18 -18 -19 -20 -20 -19 -19 -18 -18 -16 -17 -16 -16 -16 -16 -16 -16 -17
-18 -18 -17 -17 -17 -17 -18 -18 -19 -19 -20 -20 -22 -22 -21 -21 -20 -20 -20 -20 -21 -20 -19 -20 -18 -19 -20 -20 -20 -20 -21 -20 -19 -19 -19 -18 -19 -19 -17 -16 -15 -16 -17 -17 -17
-19 -18 -18 -18 -18 -18 -19 -19 -20 -21 -21 -22 -23 -22 -21 -21 -21 -20 -20 -21 -20 -20 -20 -21 -19 -20 -21 -21 -20 -20 -21 -20 -20 -20 -19 -19 -19 -18 -18 -17 -17 -16 -17 -16 -16
-19 -19 -19 -19 -20 -21 -21 -20 -21 -23 -24 -23 -23 -22 -21 -21 -21 -21 -21 -21 -21 -21 -21 -21 -21 -19 -21 -22 -21 -21 -21 -21 -21 -20 -19 -19 -19 -19 -18 -18 -17 -17 -17 -17 -16
-20 -20 -22 -21 -22 -22 -22 -22 -24 -24 -24 -23 -22 -22 -21 -21 -21 -21 -21 -21 -21 -21 -21 -22 -22 -22 -21 -22 -22 -21 -21 -21 -21 -20 -20 -19 -19 -18 -18 -18 -17 -17 -17 -17 -16
-22 -22 -24 -23 -23 -23 -24 -25 -24 -23 -23 -22 -22 -22 -22 -21 -21 -21 -21 -22 -21 -22 -23 -23 -23 -23 -22 -23 -23 -22 -21 -21 -21 -20 -20 -19 -19 -19 -19 -18 -18 -18 -17 -17 -17
-24 -25 -24 -24 -24 -25 -25 -24 -23 -23 -23 -22 -22 -22 -22 -22 -21 -22 -22 -22 -23 -24 -24 -24 -24 -24 -24 -23 -24 -23 -22 -21 -20 -20 -20 -19 -20 -19 -19 -18 -18 -18 -18 -17 -17
-25 -25 -25 -25 -25 -25 -25 -24 -23 -23 -23 -22 -23 -22 -22 -22 -23 -23 -23 -24 -24 -25 -25 -26 -26 -27 -26 -25 -24 -22 -22 -21 -20 -20 -20 -20 -20 -19 -19 -19 -18 -19 -18 -18 -17
-25 -26 -26 -26 -25 -24 -24 -24 -23 -23 -23 -23 -23 -23 -23 -23 -23 -24 -24 -25 -25 -26 -27 -27 -27 -27 -27 -26 -25 -22 -22 -22 -21 -21 -21 -20 -19 -19 -19 -19 -19 -19 -19 -18 -18
-26 -26 -26 -26 -25 -24 -24 -24 -24 -23 -24 -23 -23 -23 -23 -23 -24 -24 -25 -25 -25 -26 -27 -28 -28 -27 -27 -26 -25 -23 -22 -22 -22 -21 -20 -20 -20 -20 -19 -19 -19 -19 -19 -19 -19

GFSSW_500_temp_090.txt.gz
Temp
-10 -10 -10 -10 -10 -10 -10 -10 -10 -10 -10 -10 -10 -9 -9 -9 -9 -9 -9 -9 -9 -9 -9 -9 -8 -8 -8 -8 -8 -8 -7 -7 -8 -8 -8 -10 -10 -11 -11 -10 -11 -11 -11 -11 -11
-10 -11 -11 -10 -10 -10 -10 -10 -10 -11 -11 -10 -10 -10 -9 -9 -9 -9 -9 -9 -9 -9 -9 -9 -9 -8 -8 -9 -8 -8 -7 -7 -8 -8 -8 -9 -10 -11 -10 -10 -11 -11 -11 -11 -10
-11 -11 -11 -11 -11 -11 -11 -11 -11 -11 -11 -11 -10 -10 -10 -10 -10 -9 -9 -9 -9 -10 -10 -9 -9 -9 -9 -8 -8 -8 -8 -8 -8 -9 -9 -9 -9 -10 -11 -11 -12 -11 -12 -11 -11
-11 -12 -12 -12 -12 -11 -12 -11 -11 -11 -11 -11 -10 -10 -10 -10 -10 -9 -9 -9 -9 -9 -10 -10 -9 -9 -9 -9 -9 -8 -8 -9 -9 -10 -9 -10 -10 -10 -10 -10 -12 -12 -12 -12 -12
-12 -12 -12 -12 -12 -12 -12 -12 -12 -11 -11 -11 -11 -11 -10 -10 -11 -10 -10 -10 -9 -9 -9 -9 -10 -9 -9 -9 -9 -8 -10 -9 -9 -9 -10 -10 -10 -10 -10 -12 -12 -12 -13 -13 -13
-12 -12 -12 -12 -12 -12 -12 -12 -12 -12 -11 -11 -11 -11 -11 -11 -10 -10 -10 -10 -10 -10 -10 -10 -10 -10 -9 -9 -10 -11 -10 -10 -11 -11 -11 -12 -11 -10 -10 -12 -12 -14 -14 -15 -15
-12 -12 -12 -12 -12 -12 -12 -12 -12 -12 -12 -11 -11 -11 -11 -12 -10 -11 -11 -11 -10 -10 -10 -10 -10 -10 -10 -11 -11 -11 -10 -11 -11 -12 -11 -13 -10 -10 -11 -12 -12 -13 -14 -14 -15
-13 -13 -12 -13 -13 -12 -12 -12 -12 -12 -12 -12 -12 -11 -11 -11 -11 -10 -11 -12 -11 -11 -11 -11 -11 -11 -12 -12 -12 -12 -11 -11 -13 -13 -12 -14 -10 -12 -13 -13 -14 -14 -14 -15 -15
-13 -14 -13 -13 -13 -13 -13 -13 -12 -12 -12 -12 -13 -12 -12 -12 -12 -11 -11 -12 -12 -11 -12 -12 -12 -12 -13 -13 -12 -14 -12 -12 -12 -14 -13 -15 -13 -12 -14 -15 -15 -15 -14 -14 -15
-14 -14 -14 -14 -14 -13 -13 -13 -13 -13 -13 -13 -13 -13 -12 -12 -12 -12 -12 -12 -12 -13 -13 -13 -13 -14 -14 -14 -13 -13 -13 -12 -13 -15 -16 -14 -15 -15 -15 -15 -15 -15 -14 -15 -16
-14 -14 -14 -14 -15 -14 -14 -13 -13 -13 -13 -13 -13 -14 -13 -12 -12 -12 -12 -13 -13 -14 -14 -14 -14 -15 -14 -15 -14 -14 -14 -14 -15 -15 -16 -15 -15 -15 -16 -16 -16 -15 -16 -16 -17
-15 -14 -15 -15 -14 -14 -14 -14 -15 -15 -14 -14 -14 -13 -13 -12 -13 -14 -14 -14 -14 -14 -15 -14 -15 -16 -15 -15 -15 -15 -15 -16 -15 -15 -16 -16 -15 -16 -16 -16 -17 -17 -17 -18 -17
-16 -16 -16 -15 -15 -15 -15 -15 -15 -15 -14 -14 -14 -14 -13 -14 -14 -15 -15 -15 -15 -15 -15 -15 -16 -16 -15 -15 -16 -16 -16 -16 -15 -16 -16 -16 -16 -17 -17 -17 -17 -17 -19 -18 -18
-17 -17 -17 -17 -16 -16 -16 -16 -16 -16 -15 -15 -15 -14 -15 -15 -15 -16 -16 -16 -16 -16 -16 -16 -16 -16 -16 -16 -17 -16 -17 -16 -17 -17 -16 -16 -18 -17 -17 -17 -17 -18 -18 -17 -17
-18 -18 -18 -18 -17 -17 -17 -17 -17 -16 -16 -17 -16 -16 -16 -16 -16 -17 -17 -17 -17 -16 -16 -17 -17 -17 -17 -17 -17 -17 -17 -17 -17 -17 -17 -16 -19 -16 -17 -16 -17 -17 -17 -17 -18
-18 -18 -18 -17 -18 -18 -18 -17 -17 -17 -16 -17 -17 -17 -17 -17 -17 -18 -18 -18 -18 -18 -17 -18 -17 -17 -18 -17 -18 -18 -18 -18 -18 -18 -17 -18 -18 -16 -18 -17 -18 -17 -17 -17 -17
-19 -19 -18 -18 -18 -18 -18 -17 -17 -17 -18 -17 -17 -18 -18 -18 -18 -19 -19 -20 -20 -18 -18 -17 -18 -18 -18 -17 -18 -18 -18 -18 -18 -18 -18 -19 -18 -18 -18 -18 -17 -17 -17 -17 -16
-19 -18 -19 -18 -18 -18 -18 -17 -17 -18 -17 -17 -18 -19 -20 -19 -19 -20 -20 -20 -20 -19 -19 -18 -18 -19 -19 -18 -18 -19 -19 -19 -20 -19 -19 -19 -18 -19 -18 -18 -18 -16 -16 -16 -16
-19 -19 -19 -19 -18 -18 -18 -18 -17 -18 -19 -19 -19 -20 -20 -19 -20 -21 -21 -21 -20 -19 -19 -18 -18 -19 -19 -19 -19 -19 -19 -21 -21 -20 -19 -19 -19 -19 -19 -18 -17 -17 -16 -16 -15
-19 -20 -20 -19 -19 -19 -19 -19 -19 -20 -21 -21 -20 -21 -21 -20 -21 -21 -21 -21 -21 -20 -20 -19 -19 -19 -20 -20 -20 -20 -21 -21 -21 -21 -20 -19 -20 -20 -19 -18 -18 -17 -17 -16 -16
-20 -20 -20 -20 -20 -21 -21 -20 -21 -22 -22 -21 -21 -22 -22 -22 -22 -22 -21 -21 -21 -20 -20 -20 -20 -19 -19 -21 -21 -22 -21 -21 -21 -21 -20 -19 -19 -19 -20 -19 -18 -18 -17 -17 -17
-21 -21 -22 -21 -22 -22 -21 -22 -22 -22 -22 -22 -22 -23 -23 -22 -22 -22 -21 -21 -21 -21 -21 -21 -20 -19 -19 -21 -22 -23 -22 -22 -22 -21 -21 -20 -19 -19 -19 -19 -19 -18 -17 -17 -17
-21 -21 -21 -21 -23 -23 -24 -23 -23 -23 -24 -24 -24 -23 -23 -23 -22 -21 -21 -21 -21 -21 -22 -22 -22 -21 -21 -21 -22 -23 -23 -22 -22 -22 -21 -21 -20 -20 -19 -19 -19 -18 -18 -17 -17
-22 -22 -23 -24 -24 -24 -24 -24 -25 -25 -24 -24 -24 -23 -22 -22 -22 -21 -22 -21 -22 -22 -22 -22 -23 -23 -23 -23 -23 -23 -23 -23 -22 -22 -21 -21 -20 -20 -19 -19 -19 -19 -18 -18 -18
-23 -24 -25 -25 -25 -24 -26 -25 -25 -25 -24 -24 -23 -22 -22 -22 -22 -22 -22 -23 -23 -23 -23 -23 -24 -24 -25 -25 -24 -23 -23 -24 -23 -22 -21 -21 -20 -19 -19 -19 -19 -19 -19 -18 -18
-25 -24 -25 -25 -25 -26 -26 -25 -25 -24 -23 -23 -23 -23 -23 -22 -22 -23 -22 -23 -23 -24 -25 -25 -25 -26 -26 -27 -27 -25 -24 -24 -23 -23 -22 -22 -21 -20 -19 -19 -19 -19 -19 -19 -18
-25 -25 -25 -26 -26 -26 -25 -25 -24 -24 -23 -23 -23 -23 -23 -23 -23 -23 -23 -23 -24 -25 -26 -26 -26 -26 -26 -27 -27 -27 -26 -25 -24 -23 -22 -21 -21 -20 -21 -20 -19 -19 -19 -19 -19

GFSSW_500_temp_093.txt.gz
Temp
-10 -10 -10 -10 -10 -10 -10 -10 -10 -10 -10 -10 -10 -10 -10 -10 -10 -10 -10 -10 -10 -10 -10 -9 -9 -9 -9 -9 -9 -9 -8 -7 -8 -9 -8 -10 -9 -10 -10 -9 -11 -12 -11 -10 -10
-11 -11 -11 -11 -11 -11 -11 -11 -11 -11 -10 -10 -10 -10 -10 -10 -11 -10 -10 -10 -10 -10 -10 -9 -9 -9 -9 -9 -9 -9 -8 -8 -8 -8 -8 -8 -9 -10 -9 -9 -11 -12 -11 -11 -11
-11 -11 -11 -11 -11 -11 -11 -11 -11 -11 -11 -11 -11 -11 -11 -11 -11 -11 -10 -10 -10 -10 -10 -10 -10 -9 -9 -9 -9 -9 -8 -9 -8 -9 -9 -8 -9 -10 -10 -10 -10 -12 -12 -11 -12
-10 -11 -11 -12 -12 -12 -12 -12 -12 -12 -11 -11 -11 -11 -11 -11 -11 -10 -10 -11 -11 -10 -10 -10 -9 -9 -9 -9 -9 -9 -9 -9 -9 -9 -9 -8 -8 -9 -10 -10 -11 -11 -13 -12 -12
-11 -11 -11 -12 -12 -12 -12 -12 -12 -12 -12 -11 -11 -11 -11 -11 -12 -10 -11 -11 -10 -10 -10 -10 -10 -9 -9 -9 -9 -9 -9 -9 -9 -9 -10 -10 -10 -9 -10 -11 -12 -12 -13 -13 -13
-12 -11 -11 -11 -12 -12 -12 -13 -13 -12 -12 -12 -11 -11 -11 -11 -12 -11 -11 -11 -11 -11 -10 -10 -10 -10 -9 -10 -10 -10 -9 -10 -10 -10 -10 -10 -10 -9 -10 -11 -11 -11 -12 -13 -14
-12 -12 -12 -13 -12 -12 -12 -12 -13 -13 -12 -12 -12 -11 -11 -12 -11 -11 -12 -12 -12 -11 -11 -11 -10 -10 -10 -10 -10 -10 -10 -10 -11 -12 -11 -10 -10 -11 -11 -11 -11 -12 -13 -13 -13
-12 -12 -12 -13 -13 -13 -13 -13 -13 -13 -13 -12 -12 -11 -11 -12 -11 -12 -12 -12 -12 -11 -11 -11 -11 -10 -10 -11 -11 -11 -11 -11 -13 -13 -12 -12 -10 -12 -12 -12 -11 -12 -13 -14 -14
-12 -12 -12 -12 -13 -13 -14 -13 -13 -13 -13 -12 -12 -11 -12 -12 -12 -12 -12 -12 -12 -11 -11 -11 -11 -11 -12 -12 -12 -12 -12 -12 -13 -14 -13 -13 -12 -12 -13 -13 -13 -13 -13 -14 -14
-13 -13 -13 -14 -14 -15 -14 -14 -14 -14 -14 -13 -12 -12 -12 -12 -13 -13 -13 -12 -12 -12 -11 -11 -11 -11 -13 -13 -12 -13 -12 -12 -13 -15 -14 -14 -13 -13 -14 -14 -14 -14 -14 -14 -14
-15 -15 -15 -16 -15 -15 -15 -15 -15 -14 -13 -14 -13 -13 -13 -13 -13 -13 -13 -13 -12 -12 -12 -12 -11 -13 -14 -13 -13 -13 -13 -13 -15 -15 -14 -15 -14 -14 -15 -15 -14 -14 -14 -15 -15
-18 -18 -17 -17 -17 -16 -17 -17 -16 -14 -14 -14 -14 -14 -14 -13 -14 -14 -13 -14 -13 -13 -13 -13 -13 -16 -14 -14 -14 -14 -14 -14 -15 -16 -15 -15 -14 -15 -16 -15 -15 -15 -15 -15 -16
-18 -18 -18 -18 -18 -17 -18 -17 -17 -17 -16 -14 -14 -14 -15 -14 -14 -14 -13 -14 -13 -14 -14 -14 -16 -15 -16 -15 -15 -15 -15 -15 -15 -16 -16 -16 -15 -15 -16 -15 -17 -17 -16 -16 -15
-19 -19 -19 -19 -19 -18 -18 -18 -18 -18 -17 -15 -15 -14 -15 -14 -14 -15 -15 -15 -15 -16 -15 -15 -17 -16 -16 -16 -16 -16 -16 -16 -16 -16 -16 -16 -16 -15 -15 -16 -17 -17 -16 -16 -16
-19 -19 -20 -19 -19 -19 -19 -19 -19 -18 -18 -17 -16 -15 -16 -15 -15 -16 -16 -16 -16 -16 -16 -16 -17 -17 -17 -17 -17 -16 -17 -17 -16 -16 -16 -16 -18 -15 -15 -16 -17 -17 -17 -17 -16
-19 -19 -20 -19 -19 -19 -19 -19 -19 -19 -19 -18 -17 -17 -16 -16 -16 -17 -17 -17 -17 -17 -17 -18 -18 -17 -17 -17 -17 -17 -17 -17 -17 -17 -17 -17 -18 -16 -16 -16 -17 -17 -17 -17 -17
-20 -19 -20 -19 -19 -19 -19 -19 -19 -19 -19 -19 -18 -17 -17 -18 -17 -17 -18 -18 -18 -18 -18 -18 -18 -18 -18 -18 -18 -18 -18 -18 -18 -18 -18 -18 -17 -17 -17 -18 -17 -17 -17 -17 -16
-20 -19 -20 -20 -19 -19 -19 -19 -19 -18 -18 -18 -19 -19 -18 -18 -18 -19 -19 -18 -18 -19 -19 -18 -19 -19 -19 -19 -19 -19 -19 -19 -19 -19 -18 -18 -17 -17 -18 -19 -18 -18 -17 -17 -16
-20 -20 -20 -19 -19 -20 -20 -19 -19 -18 -19 -19 -20 -20 -19 -19 -20 -21 -20 -19 -19 -19 -20 -19 -19 -20 -20 -20 -19 -19 -20 -20 -20 -19 -19 -17 -18 -18 -19 -19 -18 -18 -18 -17 -16
-20 -20 -20 -19 -20 -20 -20 -20 -20 -20 -21 -21 -21 -21 -20 -21 -21 -21 -21 -20 -20 -20 -21 -20 -19 -19 -20 -20 -20 -20 -20 -20 -20 -20 -19 -18 -18 -18 -19 -19 -18 -18 -17 -17 -17
-20 -20 -20 -19 -20 -21 -21 -21 -21 -22 -22 -22 -22 -22 -22 -23 -23 -22 -22 -21 -21 -21 -21 -20 -20 -19 -20 -21 -21 -21 -20 -20 -20 -21 -21 -20 -18 -19 -20 -19 -19 -19 -18 -18 -17
-20 -20 -19 -20 -21 -22 -22 -21 -22 -23 -23 -23 -23 -23 -23 -22 -23 -23 -23 -22 -22 -21 -21 -21 -20 -19 -20 -20 -21 -21 -21 -21 -21 -21 -21 -21 -19 -20 -20 -19 -19 -19 -18 -18 -17
-21 -21 -20 -21 -22 -23 -24 -24 -24 -24 -23 -23 -23 -23 -23 -23 -24 -23 -23 -22 -22 -22 -22 -21 -20 -20 -20 -20 -21 -21 -21 -21 -22 -22 -21 -22 -21 -20 -20 -19 -20 -19 -19 -18 -18
-21 -21 -21 -21 -23 -23 -23 -23 -23 -24 -24 -23 -23 -23 -24 -24 -24 -23 -23 -23 -22 -22 -22 -21 -21 -21 -21 -21 -21 -22 -22 -23 -23 -22 -22 -21 -21 -21 -20 -20 -20 -19 -19 -19 -19
-22 -22 -23 -23 -24 -24 -24 -25 -24 -25 -25 -25 -25 -24 -24 -24 -24 -23 -23 -22 -22 -21 -21 -22 -22 -22 -22 -23 -23 -22 -23 -23 -23 -23 -22 -22 -21 -21 -20 -20 -19 -19 -19 -19 -19
-24 -24 -24 -24 -24 -25 -25 -25 -26 -25 -25 -25 -25 -24 -24 -23 -23 -23 -22 -22 -22 -22 -22 -22 -23 -23 -24 -24 -25 -25 -24 -24 -24 -24 -22 -22 -22 -21 -21 -21 -20 -19 -20 -20 -19
-24 -25 -25 -25 -25 -25 -26 -26 -26 -25 -25 -25 -24 -24 -23 -23 -23 -23 -22 -23 -23 -23 -23 -23 -24 -25 -25 -26 -26 -26 -26 -26 -25 -25 -24 -23 -22 -22 -22 -21 -21 -20 -20 -20 -19

GFSSW_500_temp_096.txt.gz
Temp
-10 -10 -10 -10 -10 -10 -10 -10 -10 -10 -10 -10 -10 -10 -10 -10 -10 -10 -10 -10 -10 -10 -10 -10 -10 -10 -10 -10 -9 -9 -9 -8 -9 -9 -9 -9 -9 -9 -9 -8 -9 -9 -9 -9 -9
-10 -10 -10 -10 -10 -10 -10 -10 -11 -10 -10 -10 -10 -10 -10 -10 -11 -11 -11 -10 -10 -10 -10 -10 -10 -10 -10 -10 -10 -10 -9 -9 -9 -9 -9 -9 -9 -10 -9 -9 -9 -10 -10 -10 -9
-11 -11 -10 -11 -10 -10 -10 -11 -11 -11 -11 -10 -11 -11 -10 -11 -11 -11 -11 -11 -11 -11 -11 -10 -10 -10 -10 -10 -10 -10 -9 -9 -9 -9 -9 -9 -9 -9 -9 -9 -10 -10 -11 -10 -10
-11 -11 -11 -11 -11 -11 -11 -11 -11 -11 -11 -11 -11 -11 -11 -11 -11 -11 -11 -11 -11 -11 -11 -11 -11 -10 -10 -10 -10 -9 -9 -10 -10 -9 -9 -10 -10 -10 -10 -11 -11 -10 -11 -11 -11
-11 -11 -11 -11 -11 -11 -11 -12 -12 -11 -11 -11 -12 -12 -11 -11 -12 -11 -11 -11 -11 -11 -11 -11 -11 -10 -10 -10 -10 -10 -10 -9 -9 -9 -10 -10 -9 -9 -10 -11 -11 -11 -11 -11 -12
-12 -12 -12 -11 -11 -11 -11 -11 -11 -12 -12 -11 -11 -12 -12 -11 -12 -12 -11 -12 -12 -12 -11 -11 -11 -11 -11 -10 -10 -10 -10 -9 -9 -10 -9 -10 -9 -9 -10 -11 -11 -11 -11 -11 -11
-12 -12 -12 -12 -12 -12 -11 -12 -11 -11 -12 -12 -11 -11 -11 -12 -12 -12 -12 -12 -12 -12 -12 -11 -11 -11 -11 -11 -10 -10 -10 -10 -10 -11 -10 -10 -9 -10 -11 -11 -12 -12 -12 -12 -13
-12 -12 -12 -12 -12 -12 -12 -13 -12 -12 -12 -11 -12 -12 -10 -13 -12 -12 -12 -12 -12 -12 -12 -12 -11 -11 -11 -11 -11 -10 -10 -10 -11 -11 -10 -10 -10 -11 -12 -12 -12 -12 -12 -13 -13
-13 -13 -13 -13 -12 -13 -13 -14 -13 -13 -13 -12 -11 -12 -11 -12 -13 -13 -12 -13 -12 -12 -12 -12 -12 -11 -11 -11 -11 -11 -11 -11 -11 -12 -12 -11 -11 -12 -14 -13 -13 -13 -12 -12 -12
-13 -13 -13 -12 -13 -14 -15 -16 -15 -15 -14 -14 -14 -12 -12 -12 -12 -13 -13 -13 -13 -13 -12 -12 -12 -11 -11 -12 -11 -12 -10 -9 -11 -14 -13 -12 -12 -13 -14 -13 -13 -13 -13 -13 -13
-13 -13 -13 -13 -14 -15 -16 -17 -17 -16 -15 -16 -14 -14 -13 -13 -13 -13 -13 -13 -13 -13 -13 -13 -12 -11 -13 -12 -11 -11 -12 -13 -14 -14 -14 -13 -13 -14 -14 -14 -13 -13 -13 -13 -13
-15 -16 -17 -18 -17 -18 -18 -18 -18 -17 -17 -16 -16 -16 -15 -15 -14 -14 -14 -14 -14 -14 -14 -13 -12 -13 -13 -12 -12 -12 -13 -14 -15 -16 -14 -14 -14 -14 -15 -15 -14 -14 -14 -14 -13
-18 -19 -19 -19 -19 -18 -18 -19 -19 -18 -19 -18 -17 -16 -16 -16 -15 -15 -14 -14 -14 -15 -14 -14 -13 -14 -14 -13 -13 -14 -15 -16 -15 -16 -16 -15 -14 -15 -15 -15 -15 -15 -15 -15 -14
-20 -20 -20 -20 -19 -19 -19 -20 -19 -19 -19 -18 -18 -18 -17 -16 -15 -16 -15 -15 -15 -15 -15 -14 -13 -15 -15 -14 -15 -15 -16 -16 -16 -16 -16 -16 -15 -15 -16 -16 -16 -15 -15 -15 -15
-19 -19 -20 -20 -20 -19 -19 -20 -20 -20 -20 -19 -18 -18 -18 -17 -17 -17 -17 -16 -16 -16 -15 -15 -16 -16 -16 -16 -17 -16 -17 -17 -17 -17 -16 -16 -16 -15 -16 -16 -15 -15 -15 -16 -16
-20 -20 -20 -19 -20 -20 -20 -20 -20 -20 -19 -20 -19 -18 -18 -18 -17 -17 -18 -17 -17 -16 -16 -16 -16 -17 -17 -18 -18 -18 -18 -17 -17 -17 -17 -17 -17 -15 -16 -16 -16 -16 -16 -17 -17
-19 -19 -20 -20 -20 -20 -20 -20 -20 -20 -20 -20 -19 -19 -19 -19 -18 -18 -17 -17 -17 -17 -16 -18 -18 -19 -19 -20 -20 -20 -19 -19 -18 -18 -18 -18 -17 -16 -17 -16 -16 -16 -17 -18 -17
-20 -20 -20 -20 -20 -20 -20 -20 -20 -20 -20 -20 -19 -19 -19 -19 -19 -19 -18 -18 -18 -18 -19 -19 -19 -20 -20 -21 -21 -21 -20 -21 -19 -18 -18 -18 -17 -17 -17 -17 -17 -17 -17 -18 -17
-20 -21 -20 -20 -20 -21 -20 -20 -20 -20 -20 -20 -20 -20 -20 -20 -19 -20 -18 -18 -19 -19 -20 -21 -22 -22 -22 -22 -21 -21 -21 -21 -20 -19 -18 -17 -17 -18 -18 -18 -18 -18 -18 -18 -17
-21 -21 -20 -20 -20 -20 -20 -19 -20 -20 -20 -20 -21 -21 -21 -21 -20 -20 -21 -21 -20 -21 -21 -21 -21 -22 -22 -22 -22 -21 -21 -21 -20 -20 -19 -18 -18 -18 -18 -18 -18 -19 -19 -19 -18
-20 -21 -21 -20 -20 -20 -20 -20 -20 -21 -21 -21 -21 -21 -21 -22 -21 -22 -22 -22 -22 -22 -22 -22 -22 -22 -23 -22 -22 -21 -21 -20 -20 -20 -19 -19 -18 -18 -18 -18 -19 -19 -19 -18 -18
-21 -21 -21 -20 -20 -20 -20 -20 -21 -22 -22 -22 -22 -22 -22 -22 -23 -23 -23 -22 -22 -23 -24 -23 -23 -22 -22 -22 -22 -22 -21 -20 -20 -20 -20 -20 -19 -19 -18 -18 -19 -19 -19 -19 -19
-22 -21 -21 -20 -20 -20 -20 -21 -23 -23 -24 -23 -22 -22 -22 -22 -22 -22 -23 -23 -23 -24 -23 -23 -22 -22 -21 -21 -21 -21 -21 -20 -20 -20 -20 -21 -19 -20 -19 -19 -20 -20 -19 -19 -19
-22 -21 -21 -21 -21 -21 -22 -23 -23 -24 -24 -24 -23 -23 -23 -23 -23 -23 -23 -24 -24 -23 -23 -23 -22 -21 -21 -22 -21 -21 -21 -21 -21 -21 -21 -20 -20 -21 -21 -21 -20 -20 -20 -19 -19
-22 -22 -22 -22 -22 -22 -23 -24 -25 -24 -24 -24 -24 -23 -23 -23 -23 -23 -24 -24 -23 -23 -22 -22 -22 -21 -22 -22 -21 -21 -22 -23 -22 -22 -22 -21 -21 -21 -21 -21 -21 -20 -20 -20 -20
-23 -23 -23 -23 -23 -24 -25 -25 -25 -25 -25 -24 -24 -24 -24 -24 -24 -24 -24 -24 -23 -23 -22 -22 -22 -22 -22 -22 -22 -22 -23 -23 -23 -23 -23 -23 -22 -22 -22 -22 -22 -21 -21 -20 -20
-24 -24 -25 -24 -25 -25 -25 -25 -25 -25 -25 -25 -25 -25 -25 -25 -25 -24 -23 -23 -23 -22 -22 -22 -22 -22 -22 -23 -23 -23 -25 -25 -25 -25 -25 -25 -24 -22 -22 -22 -22 -22 -21 -20 -20

GFSSW_500_temp_099.txt.gz
Temp
-10 -10 -10 -10 -10 -10 -10 -10 -10 -9 -9 -10 -9 -10 -10 -10 -10 -10 -10 -10 -10 -10 -10 -10 -10 -10 -10 -10 -9 -9 -9 -9 -10 -10 -10 -10 -9 -9 -9 -9 -9 -9 -9 -9 -9
-11 -11 -11 -11 -11 -11 -11 -10 -10 -10 -10 -10 -10 -10 -10 -10 -10 -10 -10 -10 -10 -10 -10 -10 -10 -11 -10 -10 -10 -10 -9 -10 -10 -10 -9 -10 -10 -10 -9 -9 -9 -9 -9 -9 -9
-11 -11 -11 -11 -11 -11 -11 -11 -11 -10 -10 -10 -10 -10 -10 -10 -10 -11 -11 -11 -11 -11 -11 -11 -10 -10 -11 -10 -10 -10 -9 -10 -10 -10 -10 -10 -10 -10 -10 -9 -10 -10 -10 -10 -9
-11 -12 -12 -12 -12 -12 -11 -11 -11 -11 -11 -11 -11 -10 -10 -10 -10 -11 -11 -11 -12 -11 -11 -11 -11 -11 -11 -10 -11 -10 -10 -10 -10 -10 -10 -10 -10 -10 -9 -9 -10 -9 -10 -10 -9
-12 -12 -12 -12 -12 -12 -12 -12 -12 -11 -11 -11 -11 -10 -11 -10 -11 -12 -11 -11 -12 -12 -11 -12 -12 -11 -11 -11 -11 -11 -11 -10 -10 -10 -10 -10 -10 -9 -10 -10 -10 -10 -10 -10 -10
-12 -12 -12 -12 -12 -12 -12 -12 -12 -12 -12 -11 -11 -11 -11 -10 -12 -11 -11 -11 -12 -12 -12 -12 -12 -11 -11 -11 -11 -11 -11 -11 -10 -10 -10 -10 -10 -9 -10 -11 -11 -11 -11 -11 -11
-12 -12 -12 -12 -13 -13 -12 -12 -12 -12 -12 -11 -11 -11 -10 -10 -11 -11 -11 -12 -12 -12 -12 -11 -12 -12 -11 -11 -11 -11 -11 -11 -11 -11 -10 -10 -9 -10 -10 -11 -11 -11 -11 -12 -11
-12 -13 -13 -13 -13 -13 -13 -13 -13 -12 -12 -11 -11 -10 -10 -11 -11 -12 -12 -11 -12 -12 -12 -12 -12 -11 -11 -12 -11 -12 -11 -11 -11 -11 -10 -10 -9 -10 -11 -11 -11 -12 -12 -12 -12
-13 -13 -13 -13 -13 -13 -13 -13 -13 -13 -12 -12 -12 -12 -11 -12 -12 -12 -12 -12 -13 -12 -12 -12 -11 -12 -12 -11 -12 -12 -12 -11 -11 -11 -10 -10 -10 -10 -12 -12 -12 -12 -12 -12 -13
-13 -13 -13 -13 -14 -14 -14 -14 -14 -14 -13 -13 -13 -13 -13 -12 -12 -13 -14 -14 -13 -13 -13 -12 -12 -12 -12 -12 -13 -13 -12 -11 -11 -11 -11 -10 -10 -11 -13 -13 -13 -13 -13 -13 -13
-14 -14 -14 -14 -14 -14 -14 -15 -16 -17 -17 -17 -17 -16 -16 -16 -15 -14 -15 -15 -15 -14 -13 -13 -13 -11 -13 -13 -12 -12 -12 -11 -12 -12 -11 -11 -11 -12 -14 -14 -14 -14 -14 -13 -14
-14 -15 -15 -14 -15 -15 -16 -18 -19 -19 -18 -18 -18 -18 -18 -17 -17 -16 -16 -15 -15 -15 -15 -14 -13 -13 -14 -14 -13 -13 -13 -12 -12 -12 -11 -12 -12 -14 -15 -15 -15 -14 -14 -14 -14
-15 -15 -15 -15 -16 -18 -19 -19 -19 -19 -19 -18 -18 -18 -18 -19 -17 -17 -17 -16 -16 -15 -14 -15 -15 -15 -14 -15 -14 -13 -13 -14 -14 -13 -13 -13 -13 -15 -15 -15 -15 -15 -15 -15 -15
-16 -16 -16 -17 -19 -19 -19 -20 -20 -20 -21 -19 -18 -19 -19 -18 -18 -18 -18 -17 -16 -16 -15 -15 -15 -15 -15 -15 -15 -14 -15 -15 -15 -14 -14 -14 -13 -15 -16 -16 -15 -15 -15 -15 -15
-16 -17 -18 -19 -19 -19 -20 -20 -20 -20 -21 -20 -19 -18 -18 -19 -19 -18 -18 -18 -18 -18 -16 -16 -16 -16 -16 -15 -16 -15 -16 -16 -16 -16 -15 -15 -15 -15 -16 -16 -16 -16 -16 -15 -15
-18 -18 -19 -19 -19 -19 -20 -20 -20 -21 -20 -20 -19 -19 -19 -19 -20 -19 -19 -18 -18 -18 -18 -17 -17 -17 -17 -17 -17 -17 -17 -18 -17 -17 -16 -17 -17 -15 -16 -16 -16 -16 -16 -16 -16
-19 -19 -19 -19 -19 -19 -20 -20 -21 -21 -20 -20 -20 -20 -20 -19 -19 -19 -19 -19 -18 -18 -17 -17 -17 -17 -17 -18 -18 -19 -19 -19 -19 -19 -17 -18 -17 -17 -17 -17 -16 -16 -16 -16 -16
-20 -20 -19 -19 -19 -20 -20 -20 -20 -20 -20 -20 -20 -20 -20 -20 -20 -19 -20 -19 -19 -18 -19 -19 -19 -18 -19 -20 -20 -20 -20 -20 -20 -20 -19 -18 -17 -17 -17 -17 -17 -16 -17 -17 -16
-20 -20 -20 -20 -20 -20 -20 -20 -20 -20 -20 -21 -20 -20 -20 -20 -20 -20 -20 -20 -19 -19 -20 -21 -22 -22 -22 -21 -22 -22 -21 -21 -20 -20 -20 -19 -18 -18 -17 -17 -17 -17 -17 -17 -17
-21 -21 -21 -20 -21 -20 -20 -20 -20 -20 -21 -20 -20 -21 -20 -20 -20 -20 -20 -20 -20 -21 -22 -23 -23 -22 -22 -23 -23 -22 -22 -21 -21 -20 -20 -19 -19 -18 -18 -17 -17 -18 -18 -18 -18
-21 -21 -21 -21 -21 -20 -20 -20 -21 -21 -21 -20 -21 -21 -21 -21 -21 -21 -21 -21 -21 -22 -23 -23 -22 -22 -22 -22 -22 -22 -22 -22 -22 -21 -21 -20 -19 -18 -18 -18 -18 -18 -18 -18 -19
-21 -21 -21 -21 -21 -21 -21 -21 -21 -21 -20 -20 -21 -22 -22 -22 -22 -22 -22 -22 -22 -22 -22 -22 -22 -22 -22 -22 -22 -22 -23 -23 -22 -22 -21 -21 -19 -19 -19 -19 -18 -18 -18 -19 -20
-22 -21 -21 -21 -21 -21 -21 -21 -21 -20 -21 -22 -23 -23 -22 -22 -22 -22 -22 -22 -22 -22 -22 -22 -23 -24 -24 -23 -23 -23 -23 -23 -22 -22 -21 -21 -19 -19 -20 -19 -19 -18 -18 -19 -20
-22 -22 -21 -22 -21 -22 -22 -21 -21 -21 -23 -24 -24 -23 -23 -23 -22 -22 -22 -22 -22 -23 -22 -24 -24 -24 -23 -23 -23 -23 -23 -22 -22 -21 -21 -20 -20 -21 -21 -20 -19 -19 -19 -19 -20
-22 -22 -22 -22 -22 -22 -22 -21 -22 -23 -24 -25 -24 -23 -23 -23 -23 -23 -23 -23 -23 -23 -23 -23 -23 -24 -23 -23 -22 -22 -22 -22 -21 -21 -20 -21 -20 -21 -21 -21 -20 -20 -20 -20 -20
-22 -22 -22 -22 -22 -22 -22 -23 -24 -25 -25 -25 -24 -24 -24 -23 -23 -23 -23 -23 -23 -24 -24 -24 -23 -23 -23 -22 -22 -22 -23 -22 -22 -22 -21 -21 -21 -23 -21 -21 -21 -21 -21 -20 -21
-23 -23 -23 -23 -23 -24 -24 -25 -25 -26 -25 -25 -24 -24 -24 -23 -23 -23 -23 -24 -24 -24 -23 -23 -23 -22 -23 -23 -22 -22 -23 -24 -24 -24 -24 -24 -24 -24 -25 -24 -22 -22 -22 -22 -20

GFSSW_500_temp_102.txt.gz
Temp
-11 -11 -11 -11 -10 -10 -10 -10 -10 -10 -10 -10 -10 -10 -9 -9 -10 -10 -9 -10 -10 -10 -10 -10 -10 -10 -10 -10 -10 -10 -9 -10 -10 -10 -10 -10 -10 -9 -9 -9 -9 -9 -9 -9 -9
-11 -11 -11 -11 -11 -11 -11 -10 -10 -10 -10 -10 -10 -10 -10 -10 -10 -10 -10 -10 -10 -10 -10 -10 -10 -10 -10 -10 -10 -10 -10 -10 -10 -10 -10 -10 -10 -10 -9 -10 -10 -10 -9 -9 -9
-11 -11 -11 -11 -11 -11 -11 -11 -10 -10 -10 -10 -10 -10 -10 -10 -10 -10 -10 -10 -10 -10 -11 -11 -11 -11 -11 -10 -10 -10 -10 -10 -10 -10 -10 -10 -10 -10 -10 -9 -10 -9 -9 -9 -9
-12 -12 -12 -12 -12 -11 -11 -11 -11 -11 -11 -10 -10 -11 -10 -10 -10 -10 -10 -10 -10 -10 -10 -10 -11 -11 -11 -11 -11 -11 -11 -11 -11 -10 -10 -10 -10 -10 -10 -10 -10 -10 -10 -9 -9
-13 -13 -12 -12 -12 -12 -12 -12 -12 -11 -11 -11 -11 -11 -11 -10 -10 -11 -10 -10 -10 -10 -10 -11 -11 -11 -11 -11 -11 -11 -11 -11 -11 -11 -11 -11 -10 -10 -10 -10 -10 -10 -10 -10 -9
-13 -13 -13 -13 -12 -12 -12 -12 -12 -12 -12 -11 -11 -11 -11 -10 -11 -11 -11 -11 -11 -10 -10 -10 -11 -11 -10 -11 -11 -11 -11 -11 -11 -11 -11 -11 -10 -10 -11 -10 -10 -10 -10 -10 -10
-13 -13 -13 -13 -12 -12 -12 -12 -12 -12 -12 -12 -11 -11 -10 -10 -11 -11 -11 -11 -11 -11 -11 -10 -10 -10 -10 -11 -11 -11 -11 -11 -11 -12 -11 -11 -10 -10 -10 -10 -10 -10 -10 -10 -10
-13 -14 -14 -14 -14 -13 -13 -13 -13 -13 -13 -12 -12 -11 -11 -11 -11 -11 -12 -11 -12 -12 -12 -11 -10 -10 -10 -10 -11 -11 -11 -11 -12 -12 -11 -11 -11 -10 -10 -11 -11 -11 -11 -11 -11
-14 -14 -14 -14 -14 -13 -13 -13 -13 -13 -12 -12 -12 -12 -11 -11 -12 -12 -12 -12 -13 -12 -12 -12 -11 -11 -10 -10 -11 -11 -12 -12 -12 -12 -12 -11 -11 -10 -11 -11 -11 -11 -11 -11 -11
-15 -15 -14 -14 -14 -14 -14 -13 -13 -13 -13 -13 -13 -13 -13 -13 -13 -13 -14 -14 -14 -14 -14 -13 -13 -12 -11 -11 -10 -12 -13 -13 -12 -11 -12 -11 -11 -11 -11 -11 -11 -11 -11 -12 -12
-15 -15 -15 -14 -14 -14 -14 -14 -14 -14 -13 -15 -14 -14 -15 -14 -15 -15 -15 -16 -16 -15 -16 -16 -16 -13 -14 -14 -14 -14 -13 -13 -12 -12 -12 -12 -12 -11 -12 -11 -11 -11 -12 -12 -12
-15 -15 -15 -15 -15 -15 -14 -14 -14 -15 -15 -16 -16 -15 -17 -17 -17 -17 -17 -17 -17 -17 -18 -16 -15 -15 -15 -15 -14 -14 -13 -13 -13 -14 -13 -13 -12 -12 -12 -12 -12 -12 -13 -12 -13
-15 -16 -15 -15 -15 -15 -15 -15 -16 -17 -19 -17 -17 -17 -18 -19 -18 -19 -18 -18 -19 -19 -18 -17 -16 -15 -15 -15 -15 -14 -14 -14 -14 -14 -14 -13 -13 -13 -13 -14 -14 -14 -14 -13 -14
-16 -17 -16 -16 -16 -16 -16 -16 -17 -19 -20 -18 -17 -18 -19 -19 -19 -19 -19 -19 -19 -19 -18 -17 -17 -16 -15 -15 -15 -14 -15 -15 -15 -15 -15 -13 -15 -13 -14 -15 -15 -15 -14 -14 -15
-17 -17 -17 -17 -17 -17 -17 -17 -18 -20 -21 -19 -18 -18 -19 -19 -19 -18 -19 -19 -19 -19 -19 -19 -18 -18 -17 -16 -16 -15 -16 -16 -16 -15 -16 -15 -15 -16 -15 -16 -16 -16 -15 -15 -15
-18 -18 -18 -18 -17 -18 -18 -19 -20 -20 -20 -20 -19 -19 -19 -19 -19 -19 -19 -20 -20 -20 -19 -20 -19 -18 -18 -18 -17 -18 -18 -16 -17 -17 -16 -16 -16 -19 -16 -17 -16 -16 -16 -16 -16
-19 -20 -19 -19 -18 -19 -19 -19 -20 -21 -20 -20 -19 -19 -19 -19 -19 -19 -20 -20 -20 -20 -19 -19 -19 -19 -19 -19 -18 -18 -17 -19 -19 -18 -16 -18 -18 -19 -16 -17 -17 -17 -17 -17 -16
-20 -20 -20 -20 -20 -19 -19 -20 -20 -20 -20 -20 -19 -19 -19 -19 -20 -20 -20 -20 -19 -19 -20 -19 -19 -19 -19 -18 -19 -19 -19 -20 -20 -21 -20 -17 -19 -18 -18 -17 -18 -18 -17 -17 -17
-21 -21 -21 -20 -20 -20 -20 -21 -20 -20 -20 -20 -20 -19 -19 -19 -20 -20 -20 -20 -20 -20 -20 -20 -21 -20 -21 -21 -21 -21 -21 -22 -21 -21 -20 -20 -20 -19 -17 -18 -18 -18 -18 -18 -17
-21 -21 -21 -21 -20 -20 -20 -20 -20 -20 -20 -20 -20 -20 -20 -20 -20 -20 -20 -20 -20 -20 -20 -20 -22 -22 -22 -22 -22 -22 -22 -22 -22 -22 -21 -21 -21 -21 -17 -18 -19 -18 -18 -18 -18
-22 -22 -21 -21 -21 -21 -21 -21 -21 -20 -21 -21 -21 -21 -21 -21 -20 -20 -20 -20 -21 -21 -21 -22 -22 -22 -22 -22 -23 -22 -23 -22 -21 -21 -22 -21 -21 -21 -19 -19 -19 -19 -18 -18 -18
-23 -22 -22 -21 -21 -21 -21 -21 -21 -21 -21 -21 -21 -20 -21 -21 -21 -21 -21 -21 -21 -22 -22 -23 -22 -22 -22 -22 -22 -22 -21 -22 -22 -22 -22 -21 -21 -21 -21 -20 -19 -19 -18 -18 -18
-23 -22 -22 -22 -21 -21 -21 -21 -21 -21 -21 -21 -21 -21 -21 -21 -22 -22 -22 -22 -22 -22 -22 -22 -22 -23 -23 -22 -22 -22 -22 -22 -22 -22 -22 -22 -22 -21 -20 -20 -19 -19 -19 -18 -18
-23 -23 -22 -22 -22 -22 -22 -22 -22 -21 -21 -21 -21 -21 -22 -22 -23 -22 -22 -22 -22 -22 -22 -22 -22 -22 -23 -22 -23 -23 -22 -22 -22 -22 -22 -22 -22 -21 -21 -21 -20 -18 -19 -18 -18
-23 -23 -23 -22 -22 -22 -22 -22 -22 -21 -22 -21 -22 -23 -23 -23 -23 -23 -22 -22 -22 -22 -22 -22 -22 -22 -22 -23 -23 -23 -24 -24 -23 -22 -22 -22 -21 -22 -21 -21 -20 -19 -19 -19 -19
-23 -23 -23 -23 -23 -22 -22 -22 -22 -22 -22 -23 -24 -24 -24 -24 -24 -23 -23 -22 -22 -22 -23 -23 -23 -23 -23 -24 -24 -23 -23 -22 -22 -22 -21 -21 -21 -21 -21 -21 -20 -20 -20 -20 -20
-23 -23 -23 -23 -23 -23 -23 -23 -23 -23 -24 -25 -25 -24 -24 -24 -23 -24 -23 -23 -23 -23 -23 -24 -24 -24 -23 -23 -23 -23 -23 -23 -22 -22 -22 -22 -22 -23 -23 -22 -22 -21 -21 -21 -21

GFSSW_500_temp_105.txt.gz
Temp
-10 -10 -10 -10 -11 -10 -10 -10 -10 -10 -10 -10 -10 -10 -9 -10 -9 -9 -10 -10 -10 -10 -10 -10 -10 -10 -10 -10 -10 -10 -9 -9 -10 -10 -10 -10 -10 -10 -10 -9 -9 -9 -9 -9 -9
-11 -11 -11 -11 -11 -11 -11 -11 -11 -11 -10 -10 -10 -10 -9 -10 -10 -10 -10 -10 -10 -10 -10 -10 -10 -10 -10 -10 -10 -10 -10 -10 -10 -10 -10 -10 -10 -10 -10 -9 -10 -9 -9 -9 -9
-11 -11 -11 -11 -11 -11 -11 -11 -11 -11 -11 -11 -10 -10 -10 -10 -10 -10 -10 -10 -10 -10 -10 -10 -10 -10 -10 -10 -10 -10 -10 -11 -10 -10 -10 -11 -10 -10 -10 -10 -10 -10 -9 -9 -9
-12 -12 -12 -12 -12 -12 -12 -12 -12 -11 -11 -11 -11 -11 -11 -11 -10 -10 -11 -10 -10 -10 -10 -10 -10 -10 -10 -10 -10 -10 -10 -10 -11 -10 -10 -11 -11 -10 -10 -10 -11 -10 -10 -10 -9
-13 -13 -12 -12 -12 -12 -12 -12 -12 -12 -12 -11 -11 -11 -11 -10 -10 -11 -11 -11 -10 -11 -10 -10 -10 -10 -10 -10 -10 -9 -10 -10 -10 -10 -10 -11 -11 -11 -11 -11 -11 -10 -10 -10 -10
-13 -13 -13 -12 -12 -13 -12 -12 -12 -12 -12 -11 -11 -11 -11 -11 -11 -11 -11 -11 -11 -11 -11 -11 -10 -10 -10 -10 -10 -10 -9 -9 -10 -10 -10 -11 -11 -11 -11 -11 -11 -11 -11 -10 -10
-13 -13 -13 -13 -13 -13 -13 -12 -13 -12 -12 -12 -11 -12 -11 -11 -12 -11 -12 -12 -11 -11 -11 -11 -11 -10 -10 -10 -10 -10 -10 -9 -9 -10 -10 -11 -10 -10 -11 -11 -11 -11 -11 -11 -10
-14 -14 -14 -14 -13 -13 -13 -13 -13 -13 -13 -12 -12 -12 -11 -11 -12 -12 -12 -11 -12 -12 -11 -12 -12 -11 -11 -11 -10 -10 -10 -10 -10 -10 -11 -11 -10 -11 -11 -11 -11 -11 -11 -11 -11
-14 -14 -14 -14 -14 -14 -14 -14 -14 -14 -13 -13 -12 -12 -12 -11 -12 -12 -12 -12 -12 -12 -12 -12 -12 -12 -12 -12 -11 -11 -11 -11 -10 -12 -11 -10 -11 -11 -11 -10 -11 -11 -11 -11 -10
-15 -14 -14 -14 -15 -14 -15 -15 -14 -14 -14 -13 -13 -13 -13 -12 -12 -12 -12 -12 -12 -12 -13 -13 -13 -13 -12 -13 -12 -13 -14 -14 -12 -14 -12 -11 -10 -12 -11 -11 -12 -12 -12 -12 -11
-15 -15 -15 -15 -15 -15 -15 -15 -14 -14 -14 -14 -13 -13 -13 -13 -12 -12 -13 -13 -13 -13 -13 -15 -15 -13 -15 -16 -16 -16 -16 -15 -14 -15 -14 -12 -11 -12 -12 -12 -12 -12 -12 -12 -11
-15 -15 -15 -15 -15 -16 -15 -15 -15 -15 -15 -14 -14 -13 -13 -14 -13 -14 -15 -14 -15 -15 -17 -17 -16 -16 -17 -17 -18 -16 -16 -15 -15 -14 -14 -13 -13 -13 -13 -12 -13 -13 -12 -12 -12
-16 -16 -16 -16 -16 -15 -16 -15 -16 -16 -17 -14 -14 -14 -15 -15 -14 -15 -18 -16 -17 -18 -18 -19 -18 -19 -19 -19 -18 -17 -16 -15 -15 -14 -15 -14 -13 -13 -13 -14 -14 -13 -13 -12 -12
-16 -16 -16 -17 -16 -16 -16 -16 -17 -18 -18 -14 -15 -14 -15 -17 -16 -17 -18 -18 -18 -19 -19 -19 -18 -19 -19 -18 -18 -19 -18 -16 -15 -15 -15 -16 -14 -14 -15 -13 -15 -15 -14 -13 -13
-17 -17 -17 -17 -16 -16 -17 -17 -18 -19 -21 -16 -15 -15 -15 -17 -18 -18 -18 -19 -19 -19 -19 -18 -19 -19 -19 -19 -20 -19 -18 -18 -18 -16 -15 -15 -17 -17 -17 -15 -15 -16 -15 -14 -14
-18 -18 -17 -17 -17 -17 -18 -18 -19 -20 -19 -19 -16 -17 -18 -18 -18 -18 -18 -19 -19 -19 -19 -19 -19 -19 -19 -19 -19 -18 -18 -18 -18 -20 -18 -16 -18 -18 -18 -18 -18 -16 -15 -15 -16
-18 -18 -18 -18 -18 -19 -19 -20 -20 -20 -18 -19 -18 -19 -19 -18 -19 -19 -19 -18 -19 -20 -19 -19 -19 -20 -19 -19 -19 -19 -19 -19 -19 -19 -19 -18 -19 -18 -18 -19 -19 -17 -16 -17 -17
-19 -19 -19 -19 -19 -19 -20 -21 -21 -20 -20 -20 -19 -19 -19 -19 -19 -19 -19 -18 -19 -20 -20 -20 -20 -19 -20 -20 -20 -19 -20 -19 -18 -18 -18 -18 -19 -19 -18 -18 -18 -18 -18 -18 -17
-20 -20 -20 -20 -20 -20 -20 -21 -20 -20 -20 -20 -20 -20 -20 -19 -19 -19 -19 -18 -19 -19 -20 -20 -20 -20 -20 -20 -20 -20 -20 -20 -20 -20 -20 -19 -19 -19 -19 -19 -19 -20 -20 -19 -18
-22 -22 -21 -21 -21 -21 -21 -21 -21 -20 -20 -20 -20 -20 -20 -20 -20 -20 -20 -19 -19 -19 -20 -20 -21 -20 -20 -20 -21 -20 -21 -21 -21 -20 -21 -19 -19 -19 -19 -20 -20 -21 -20 -20 -19
-22 -23 -22 -22 -22 -22 -21 -21 -21 -20 -21 -21 -21 -20 -20 -21 -21 -21 -21 -19 -20 -20 -20 -21 -21 -21 -21 -21 -21 -21 -21 -21 -21 -21 -20 -20 -19 -19 -19 -20 -20 -20 -20 -20 -19
-24 -23 -23 -23 -23 -22 -22 -21 -21 -21 -21 -21 -21 -21 -20 -21 -21 -21 -21 -20 -21 -21 -21 -21 -22 -22 -23 -22 -22 -21 -22 -21 -21 -21 -21 -20 -20 -20 -20 -20 -21 -21 -20 -20 -19
-25 -24 -24 -23 -23 -22 -22 -22 -21 -21 -21 -21 -21 -21 -21 -21 -21 -20 -20 -20 -20 -21 -21 -22 -22 -22 -22 -22 -22 -22 -22 -22 -22 -21 -21 -21 -21 -21 -21 -21 -21 -21 -20 -20 -19
-25 -25 -24 -24 -23 -22 -22 -22 -22 -22 -21 -22 -21 -21 -21 -21 -21 -21 -21 -21 -21 -21 -22 -22 -22 -22 -23 -23 -23 -22 -23 -23 -22 -22 -22 -22 -23 -22 -22 -21 -21 -20 -20 -20 -20
-26 -25 -25 -24 -23 -23 -23 -23 -22 -22 -22 -22 -21 -21 -21 -21 -21 -21 -22 -22 -22 -22 -22 -22 -22 -22 -22 -22 -22 -22 -22 -22 -22 -22 -22 -23 -23 -23 -22 -21 -20 -21 -20 -20 -19
-26 -25 -25 -24 -23 -23 -23 -22 -23 -22 -22 -22 -22 -22 -22 -22 -22 -23 -23 -23 -22 -22 -22 -22 -22 -22 -22 -22 -22 -22 -23 -23 -22 -23 -23 -22 -23 -22 -21 -21 -21 -21 -20 -20 -20
-26 -25 -25 -24 -23 -23 -23 -23 -23 -23 -22 -22 -23 -22 -23 -23 -24 -23 -23 -23 -23 -23 -22 -22 -22 -23 -23 -23 -23 -24 -23 -23 -23 -23 -22 -22 -22 -22 -22 -22 -22 -21 -21 -20 -20

GFSSW_500_temp_108.txt.gz
Temp
-9 -9 -9 -9 -9 -9 -10 -10 -10 -10 -11 -10 -10 -10 -10 -10 -10 -10 -10 -10 -10 -10 -10 -10 -10 -10 -10 -10 -10 -10 -10 -9 -10 -10 -10 -11 -11 -9 -9 -9 -9 -9 -9 -9 -9
-9 -10 -10 -10 -10 -10 -11 -11 -11 -11 -11 -11 -11 -10 -10 -10 -10 -10 -10 -10 -10 -10 -10 -10 -10 -10 -10 -10 -10 -10 -10 -10 -11 -11 -10 -10 -10 -10 -10 -10 -9 -9 -10 -9 -9
-10 -11 -11 -11 -11 -11 -11 -11 -11 -11 -11 -11 -11 -11 -11 -10 -10 -10 -11 -11 -10 -10 -10 -10 -10 -10 -10 -10 -10 -10 -9 -10 -10 -10 -10 -10 -11 -11 -10 -9 -10 -10 -10 -10 -9
-12 -12 -12 -12 -12 -12 -12 -12 -12 -12 -12 -12 -12 -11 -11 -11 -11 -11 -11 -11 -11 -11 -10 -10 -10 -10 -10 -10 -10 -10 -9 -9 -9 -10 -10 -10 -10 -10 -11 -10 -10 -10 -10 -9 -10
-12 -13 -13 -13 -12 -12 -12 -12 -12 -12 -12 -12 -12 -11 -11 -11 -12 -12 -11 -11 -11 -11 -11 -11 -11 -11 -10 -10 -10 -10 -10 -9 -9 -9 -10 -10 -10 -10 -10 -11 -11 -11 -10 -10 -10
-13 -13 -13 -13 -13 -13 -13 -13 -13 -12 -12 -12 -12 -12 -12 -11 -12 -12 -11 -12 -12 -11 -11 -11 -11 -11 -11 -11 -10 -10 -10 -10 -9 -9 -9 -10 -9 -10 -10 -11 -11 -11 -11 -10 -10
-13 -13 -13 -13 -13 -14 -14 -13 -13 -13 -12 -12 -12 -12 -12 -12 -12 -12 -12 -11 -11 -11 -11 -11 -11 -11 -11 -11 -10 -11 -11 -10 -10 -10 -10 -11 -9 -9 -10 -11 -10 -10 -11 -11 -11
-14 -14 -14 -14 -14 -14 -14 -14 -14 -14 -13 -13 -13 -13 -12 -12 -12 -12 -12 -12 -12 -12 -12 -12 -11 -11 -11 -11 -11 -11 -11 -11 -10 -11 -10 -12 -9 -11 -11 -11 -11 -11 -11 -11 -11
-14 -14 -14 -14 -14 -14 -14 -14 -14 -14 -13 -13 -13 -13 -13 -12 -13 -12 -12 -12 -12 -12 -12 -12 -12 -12 -12 -12 -11 -11 -11 -11 -10 -11 -12 -14 -11 -11 -12 -12 -11 -10 -11 -12 -11
-15 -15 -15 -15 -15 -15 -14 -14 -14 -14 -14 -14 -14 -14 -14 -13 -12 -12 -12 -13 -13 -12 -12 -12 -12 -11 -12 -12 -12 -12 -13 -12 -10 -11 -14 -14 -16 -13 -13 -13 -12 -11 -12 -12 -12
-16 -16 -16 -16 -15 -15 -15 -15 -15 -15 -14 -14 -14 -14 -14 -13 -13 -13 -13 -13 -13 -13 -13 -12 -12 -11 -12 -13 -13 -14 -14 -14 -12 -12 -16 -16 -15 -15 -15 -14 -13 -12 -12 -13 -14
-16 -16 -16 -16 -16 -16 -15 -15 -15 -15 -15 -14 -14 -14 -14 -14 -13 -13 -14 -13 -13 -13 -13 -13 -12 -14 -13 -13 -15 -17 -17 -16 -18 -17 -18 -17 -16 -15 -16 -15 -15 -14 -14 -13 -15
-16 -16 -16 -16 -16 -16 -16 -16 -16 -16 -16 -14 -14 -14 -14 -14 -14 -14 -15 -15 -14 -13 -14 -14 -13 -16 -15 -15 -17 -18 -18 -19 -19 -18 -18 -18 -16 -16 -14 -16 -16 -16 -15 -15 -14
-17 -17 -16 -16 -16 -17 -16 -16 -17 -17 -17 -14 -14 -14 -14 -14 -14 -15 -15 -15 -15 -15 -16 -15 -17 -17 -18 -17 -18 -18 -19 -19 -19 -19 -19 -19 -18 -17 -16 -15 -16 -17 -18 -17 -13
-17 -17 -17 -17 -16 -17 -17 -17 -18 -18 -18 -16 -14 -14 -14 -15 -16 -16 -15 -17 -16 -17 -18 -17 -18 -18 -18 -18 -19 -18 -18 -19 -19 -19 -19 -18 -19 -15 -17 -16 -16 -17 -17 -18 -14
-18 -18 -18 -17 -18 -18 -18 -18 -19 -19 -17 -17 -16 -15 -15 -15 -16 -18 -17 -17 -18 -18 -18 -18 -19 -18 -18 -18 -19 -19 -19 -20 -19 -19 -18 -17 -20 -17 -17 -17 -17 -18 -17 -17 -15
-18 -19 -18 -19 -18 -19 -19 -19 -20 -19 -18 -17 -17 -16 -16 -16 -16 -18 -19 -18 -18 -18 -19 -19 -18 -18 -18 -18 -19 -19 -19 -20 -19 -19 -18 -20 -20 -18 -17 -17 -18 -18 -18 -17 -17
-19 -19 -19 -19 -19 -19 -20 -20 -21 -19 -18 -19 -19 -18 -17 -18 -18 -18 -19 -19 -19 -18 -19 -19 -19 -19 -18 -19 -19 -19 -19 -19 -20 -19 -19 -20 -19 -18 -18 -18 -17 -18 -17 -18 -18
-20 -20 -20 -20 -20 -20 -20 -20 -20 -19 -20 -19 -20 -19 -19 -19 -19 -20 -20 -19 -19 -19 -19 -20 -19 -19 -18 -19 -19 -19 -19 -20 -20 -20 -20 -19 -19 -18 -17 -17 -18 -18 -19 -18 -18
-21 -21 -21 -21 -21 -21 -21 -21 -21 -20 -20 -21 -21 -21 -20 -20 -20 -20 -20 -20 -19 -19 -20 -20 -20 -20 -20 -19 -19 -20 -21 -20 -21 -20 -20 -19 -19 -18 -18 -18 -19 -18 -18 -18 -18
-22 -22 -22 -22 -22 -22 -22 -21 -21 -21 -22 -21 -22 -21 -21 -21 -21 -20 -20 -21 -20 -19 -20 -20 -20 -21 -21 -20 -21 -20 -21 -21 -20 -20 -20 -20 -19 -18 -18 -19 -19 -19 -19 -19 -19
-23 -24 -23 -23 -23 -23 -22 -22 -22 -23 -22 -21 -22 -22 -22 -21 -21 -20 -20 -21 -20 -20 -21 -21 -21 -21 -21 -22 -21 -22 -22 -21 -21 -20 -20 -20 -20 -19 -19 -19 -20 -20 -19 -18 -19
-26 -25 -24 -24 -23 -23 -23 -23 -23 -23 -23 -22 -22 -22 -22 -21 -21 -21 -21 -21 -21 -21 -21 -21 -21 -22 -21 -21 -21 -21 -22 -22 -21 -21 -21 -20 -20 -20 -20 -20 -20 -19 -19 -20 -20
-27 -26 -25 -25 -24 -23 -23 -23 -23 -23 -22 -22 -22 -22 -22 -21 -21 -21 -21 -21 -21 -21 -21 -22 -22 -22 -22 -22 -22 -21 -22 -21 -22 -21 -21 -21 -21 -21 -22 -20 -18 -18 -19 -20 -20
-27 -27 -26 -25 -24 -24 -24 -24 -23 -23 -23 -23 -22 -22 -22 -22 -21 -21 -21 -21 -21 -21 -22 -22 -22 -22 -22 -22 -22 -22 -22 -22 -22 -22 -22 -22 -22 -23 -21 -20 -19 -20 -21 -20 -20
-27 -26 -26 -26 -26 -25 -25 -24 -23 -23 -23 -23 -22 -22 -22 -22 -22 -22 -21 -21 -21 -21 -22 -22 -22 -22 -22 -22 -22 -22 -22 -22 -22 -22 -22 -23 -23 -21 -21 -21 -22 -22 -22 -21 -21
-27 -27 -27 -27 -26 -25 -25 -24 -24 -24 -23 -23 -23 -22 -22 -22 -22 -22 -22 -21 -21 -22 -23 -22 -23 -22 -22 -22 -23 -23 -22 -22 -23 -24 -23 -23 -22 -22 -22 -23 -22 -22 -22 -22 -21

GFSSW_500_temp_111.txt.gz
Temp
-9 -9 -9 -9 -9 -9 -9 -9 -9 -9 -10 -10 -10 -10 -10 -11 -10 -10 -11 -11 -10 -10 -10 -10 -10 -10 -10 -10 -10 -10 -9 -10 -10 -10 -10 -10 -10 -10 -9 -9 -9 -10 -10 -10 -10
-9 -10 -10 -10 -9 -9 -9 -10 -10 -10 -10 -11 -10 -11 -11 -11 -11 -11 -11 -11 -11 -11 -11 -10 -10 -10 -10 -10 -10 -9 -9 -10 -10 -10 -10 -10 -10 -10 -10 -9 -10 -10 -10 -10 -10
-10 -10 -10 -10 -10 -10 -10 -10 -11 -11 -11 -11 -11 -11 -11 -11 -12 -12 -11 -11 -11 -11 -11 -11 -11 -10 -10 -10 -10 -10 -9 -10 -10 -10 -10 -10 -10 -10 -10 -10 -10 -10 -10 -10 -10
-10 -11 -11 -11 -11 -11 -11 -11 -11 -11 -12 -12 -12 -12 -12 -12 -12 -12 -12 -12 -11 -11 -11 -11 -10 -11 -10 -10 -10 -10 -10 -10 -10 -10 -10 -10 -10 -10 -10 -10 -10 -10 -10 -10 -10
-11 -11 -12 -12 -12 -12 -13 -12 -12 -12 -12 -12 -12 -12 -12 -12 -13 -12 -12 -12 -12 -11 -11 -11 -11 -11 -11 -11 -11 -11 -10 -10 -10 -10 -10 -10 -10 -10 -10 -10 -11 -11 -10 -10 -10
-12 -13 -13 -13 -13 -13 -13 -13 -13 -13 -13 -13 -12 -12 -12 -12 -12 -12 -12 -12 -12 -12 -12 -12 -11 -11 -11 -11 -11 -10 -10 -10 -10 -10 -10 -10 -10 -10 -10 -11 -11 -11 -11 -11 -11
-14 -14 -15 -15 -14 -14 -13 -13 -13 -13 -13 -13 -13 -13 -12 -13 -13 -13 -12 -12 -12 -12 -12 -12 -12 -12 -11 -11 -11 -11 -10 -10 -10 -10 -11 -11 -10 -10 -10 -11 -11 -11 -11 -11 -11
-15 -15 -15 -14 -14 -14 -14 -13 -13 -13 -14 -14 -13 -13 -12 -13 -13 -13 -13 -13 -13 -12 -13 -12 -12 -12 -12 -11 -11 -11 -11 -11 -11 -11 -11 -13 -10 -10 -11 -11 -11 -11 -12 -11 -11
-15 -15 -15 -15 -14 -14 -14 -14 -14 -14 -14 -14 -14 -14 -13 -13 -13 -13 -13 -13 -13 -13 -13 -13 -12 -12 -12 -12 -11 -12 -11 -11 -10 -11 -11 -13 -10 -10 -10 -10 -10 -11 -11 -12 -12
-16 -15 -15 -15 -15 -15 -15 -15 -14 -14 -15 -15 -14 -14 -14 -13 -13 -13 -13 -13 -14 -13 -13 -13 -13 -12 -12 -13 -12 -12 -12 -11 -10 -11 -11 -11 -11 -10 -10 -13 -12 -12 -13 -13 -14
-16 -16 -15 -16 -15 -15 -15 -15 -15 -15 -15 -15 -15 -14 -14 -14 -14 -13 -13 -13 -13 -13 -13 -13 -13 -12 -13 -13 -13 -13 -12 -12 -11 -11 -13 -11 -13 -12 -9 -15 -16 -16 -17 -16 -16
-17 -16 -17 -16 -16 -16 -16 -16 -16 -16 -15 -15 -15 -13 -15 -15 -13 -13 -14 -13 -13 -13 -13 -13 -13 -14 -13 -13 -13 -13 -13 -12 -12 -12 -15 -14 -13 -15 -15 -16 -16 -16 -16 -17 -17
-17 -17 -17 -17 -17 -16 -17 -16 -16 -17 -16 -13 -14 -14 -15 -15 -14 -14 -14 -14 -14 -14 -14 -14 -13 -13 -13 -13 -15 -14 -15 -15 -15 -15 -15 -17 -17 -17 -17 -18 -18 -17 -17 -17 -17
-18 -18 -18 -17 -17 -17 -17 -17 -17 -18 -17 -13 -14 -13 -14 -15 -14 -15 -15 -15 -15 -15 -16 -14 -14 -14 -14 -15 -18 -15 -17 -17 -17 -17 -17 -17 -18 -17 -17 -18 -18 -18 -17 -18 -17
-18 -18 -18 -18 -17 -17 -18 -18 -18 -18 -18 -15 -14 -14 -14 -14 -15 -15 -15 -16 -16 -16 -16 -14 -15 -15 -16 -17 -18 -18 -17 -17 -18 -18 -18 -17 -20 -17 -18 -18 -18 -18 -17 -17 -18
-18 -18 -18 -18 -18 -18 -18 -19 -19 -19 -16 -15 -16 -15 -15 -15 -15 -16 -16 -16 -16 -16 -16 -16 -16 -17 -17 -18 -18 -18 -18 -19 -19 -19 -18 -19 -19 -17 -18 -17 -18 -19 -18 -17 -17
-18 -19 -19 -19 -18 -19 -19 -20 -20 -19 -16 -15 -17 -17 -17 -16 -16 -17 -17 -17 -16 -16 -17 -18 -18 -18 -19 -19 -19 -18 -18 -19 -19 -19 -18 -19 -18 -18 -19 -19 -18 -18 -18 -17 -17
-19 -20 -20 -20 -20 -20 -20 -21 -21 -18 -18 -18 -19 -19 -17 -17 -17 -17 -18 -18 -17 -17 -18 -18 -19 -19 -19 -19 -19 -18 -19 -20 -19 -19 -18 -18 -18 -19 -19 -18 -18 -17 -17 -17 -17
-20 -20 -20 -20 -20 -21 -21 -21 -20 -19 -19 -20 -20 -20 -18 -19 -19 -19 -18 -17 -18 -19 -19 -19 -19 -19 -19 -19 -18 -18 -19 -19 -19 -19 -19 -19 -19 -19 -19 -17 -18 -17 -17 -17 -18
-21 -21 -21 -20 -21 -21 -22 -22 -20 -20 -20 -21 -20 -20 -20 -19 -21 -21 -20 -19 -19 -20 -19 -19 -20 -20 -20 -19 -19 -19 -19 -20 -20 -20 -20 -20 -19 -19 -19 -18 -18 -18 -18 -18 -18
-21 -21 -21 -21 -22 -22 -22 -21 -21 -21 -21 -21 -21 -21 -20 -20 -21 -21 -21 -20 -21 -21 -20 -20 -21 -20 -20 -19 -19 -19 -20 -21 -21 -21 -20 -20 -20 -19 -19 -19 -18 -18 -18 -18 -18
-22 -22 -22 -22 -23 -23 -22 -22 -22 -22 -22 -21 -22 -22 -21 -21 -21 -21 -21 -21 -21 -21 -20 -20 -20 -21 -21 -20 -20 -19 -20 -21 -21 -21 -21 -20 -20 -20 -20 -20 -20 -19 -18 -18 -18
-23 -23 -23 -23 -23 -23 -23 -23 -23 -23 -22 -22 -22 -22 -22 -22 -22 -21 -22 -21 -21 -21 -21 -21 -21 -20 -21 -21 -21 -21 -21 -22 -22 -21 -22 -21 -21 -20 -20 -20 -19 -19 -19 -19 -18
-26 -26 -25 -24 -24 -24 -24 -24 -24 -23 -23 -23 -23 -23 -23 -22 -22 -21 -22 -22 -22 -21 -21 -21 -21 -21 -21 -21 -21 -21 -22 -22 -22 -21 -21 -21 -21 -21 -20 -20 -19 -19 -20 -20 -21
-27 -27 -27 -27 -26 -25 -25 -25 -24 -24 -23 -23 -23 -23 -23 -23 -23 -22 -22 -22 -22 -21 -22 -21 -21 -21 -22 -22 -21 -22 -22 -22 -22 -22 -22 -22 -21 -21 -20 -20 -20 -20 -20 -21 -21
-27 -27 -27 -26 -26 -26 -26 -26 -25 -24 -25 -25 -24 -24 -23 -23 -23 -23 -22 -22 -22 -22 -22 -21 -22 -22 -22 -22 -22 -22 -22 -22 -22 -22 -22 -22 -21 -21 -21 -21 -21 -21 -20 -20 -20
-27 -27 -26 -26 -27 -27 -26 -26 -25 -25 -25 -24 -24 -24 -24 -23 -23 -23 -22 -22 -22 -22 -21 -22 -22 -22 -22 -22 -22 -22 -22 -22 -23 -23 -22 -23 -22 -22 -23 -23 -22 -21 -21 -20 -20